GEFSSGP_prec_meanprecacc_006.txt.gz
Total_Precipitation_Accumulation
0.00 0.00 0.00 0.01 0.10 0.06 0.00 0.00 0.00 0.00 0.00 0.00 0.00 0.00 0.00 0.00 0.00 0.04 0.01 0.00 0.00 0.00 0.00 0.02 0.06 0.07 0.06 0.05 0.02 0.08 0.09 0.03 0.02 0.02 0.02 0.01 0.03 0.05 0.05 0.04 0.02 0.01 0.00 0.02 0.07 0.09 0.04 0.02 0.04
0.00 0.00 0.00 0.04 0.12 0.02 0.00 0.00 0.00 0.00 0.00 0.00 0.00 0.00 0.00 0.00 0.00 0.00 0.00 0.00 0.00 0.00 0.00 0.02 0.04 0.08 0.08 0.04 0.04 0.15 0.17 0.10 0.04 0.02 0.01 0.00 0.02 0.08 0.14 0.13 0.04 0.01 0.00 0.01 0.05 0.08 0.04 0.03 0.06
0.00 0.00 0.00 0.03 0.03 0.00 0.00 0.00 0.00 0.00 0.00 0.00 0.00 0.00 0.00 0.00 0.00 0.00 0.00 0.00 0.00 0.00 0.01 0.10 0.12 0.09 0.07 0.06 0.12 0.25 0.22 0.18 0.08 0.02 0.00 0.00 0.02 0.06 0.12 0.09 0.04 0.00 0.00 0.01 0.03 0.05 0.03 0.02 0.03
0.00 0.00 0.00 0.01 0.00 0.00 0.00 0.00 0.00 0.00 0.00 0.00 0.00 0.00 0.00 0.00 0.00 0.00 0.00 0.00 0.00 0.00 0.02 0.07 0.09 0.09 0.09 0.13 0.21 0.23 0.23 0.27 0.13 0.02 0.01 0.04 0.06 0.06 0.10 0.10 0.04 0.01 0.00 0.00 0.01 0.02 0.02 0.01 0.01
0.00 0.00 0.04 0.07 0.01 0.00 0.00 0.00 0.00 0.00 0.00 0.00 0.00 0.00 0.00 0.00 0.00 0.00 0.00 0.00 0.00 0.00 0.02 0.03 0.08 0.09 0.11 0.16 0.22 0.22 0.21 0.27 0.19 0.04 0.05 0.08 0.05 0.05 0.08 0.10 0.04 0.01 0.00 0.00 0.00 0.01 0.03 0.03 0.02
0.00 0.00 0.09 0.12 0.01 0.00 0.00 0.00 0.00 0.00 0.00 0.00 0.00 0.00 0.00 0.00 0.00 0.00 0.00 0.00 0.00 0.00 0.01 0.02 0.04 0.05 0.09 0.14 0.19 0.17 0.18 0.22 0.17 0.08 0.07 0.05 0.06 0.05 0.07 0.05 0.02 0.00 0.00 0.00 0.00 0.03 0.03 0.02 0.01
0.00 0.01 0.05 0.04 0.00 0.00 0.00 0.00 0.00 0.00 0.00 0.00 0.00 0.00 0.00 0.00 0.00 0.00 0.00 0.00 0.00 0.00 0.00 0.01 0.01 0.01 0.02 0.07 0.13 0.15 0.17 0.17 0.10 0.06 0.03 0.04 0.06 0.04 0.03 0.01 0.00 0.00 0.00 0.00 0.01 0.02 0.02 0.00 0.00
0.00 0.00 0.00 0.00 0.00 0.00 0.00 0.00 0.00 0.00 0.00 0.00 0.00 0.00 0.00 0.00 0.00 0.00 0.00 0.00 0.00 0.00 0.00 0.00 0.01 0.01 0.02 0.02 0.06 0.11 0.13 0.13 0.09 0.06 0.04 0.03 0.03 0.03 0.02 0.00 0.00 0.00 0.00 0.00 0.00 0.01 0.01 0.00 0.00
0.00 0.00 0.00 0.01 0.00 0.00 0.00 0.00 0.00 0.00 0.00 0.00 0.00 0.00 0.00 0.00 0.00 0.00 0.00 0.00 0.00 0.00 0.00 0.00 0.00 0.00 0.02 0.05 0.06 0.09 0.10 0.09 0.06 0.04 0.04 0.05 0.04 0.05 0.06 0.01 0.00 0.00 0.00 0.00 0.01 0.01 0.01 0.00 0.00
0.00 0.00 0.00 0.01 0.00 0.00 0.00 0.00 0.00 0.00 0.00 0.00 0.00 0.00 0.00 0.00 0.00 0.00 0.00 0.00 0.00 0.00 0.00 0.00 0.00 0.00 0.01 0.08 0.22 0.33 0.20 0.11 0.06 0.02 0.02 0.09 0.05 0.09 0.08 0.01 0.00 0.01 0.00 0.00 0.00 0.01 0.00 0.00 0.00
0.00 0.00 0.00 0.00 0.00 0.00 0.00 0.00 0.00 0.00 0.00 0.00 0.00 0.00 0.00 0.00 0.00 0.00 0.00 0.00 0.00 0.00 0.00 0.00 0.00 0.00 0.00 0.07 0.21 0.34 0.35 0.25 0.20 0.04 0.01 0.05 0.02 0.02 0.03 0.01 0.02 0.03 0.00 0.00 0.00 0.00 0.00 0.00 0.00
0.00 0.00 0.00 0.00 0.00 0.00 0.00 0.00 0.00 0.00 0.00 0.00 0.00 0.00 0.00 0.00 0.00 0.00 0.00 0.00 0.00 0.00 0.00 0.00 0.00 0.00 0.00 0.01 0.02 0.07 0.12 0.12 0.13 0.06 0.01 0.01 0.00 0.00 0.00 0.00 0.01 0.01 0.00 0.00 0.00 0.00 0.00 0.00 0.00
0.00 0.00 0.00 0.00 0.00 0.00 0.00 0.00 0.00 0.00 0.00 0.00 0.00 0.00 0.00 0.00 0.00 0.00 0.00 0.00 0.00 0.00 0.00 0.00 0.00 0.00 0.00 0.00 0.00 0.01 0.02 0.03 0.04 0.05 0.06 0.01 0.00 0.00 0.00 0.00 0.00 0.00 0.00 0.00 0.00 0.00 0.00 0.00 0.00
0.00 0.00 0.00 0.00 0.00 0.00 0.00 0.00 0.00 0.00 0.00 0.00 0.00 0.00 0.00 0.00 0.00 0.00 0.00 0.00 0.00 0.00 0.00 0.00 0.00 0.00 0.00 0.00 0.00 0.00 0.01 0.01 0.01 0.01 0.03 0.02 0.00 0.00 0.00 0.00 0.00 0.00 0.00 0.00 0.00 0.00 0.00 0.00 0.00
0.00 0.00 0.00 0.00 0.00 0.00 0.00 0.00 0.00 0.00 0.00 0.00 0.00 0.00 0.00 0.00 0.00 0.00 0.00 0.00 0.00 0.00 0.00 0.00 0.00 0.00 0.00 0.00 0.00 0.00 0.00 0.00 0.00 0.01 0.01 0.00 0.00 0.00 0.00 0.00 0.00 0.00 0.00 0.00 0.00 0.00 0.00 0.00 0.00
0.00 0.00 0.00 0.00 0.00 0.00 0.00 0.00 0.00 0.00 0.00 0.00 0.00 0.00 0.00 0.00 0.00 0.00 0.00 0.00 0.00 0.00 0.00 0.00 0.00 0.00 0.00 0.00 0.00 0.00 0.00 0.00 0.00 0.01 0.01 0.00 0.00 0.00 0.00 0.00 0.00 0.00 0.00 0.00 0.00 0.00 0.00 0.00 0.00
0.00 0.00 0.00 0.00 0.00 0.00 0.00 0.00 0.00 0.00 0.00 0.00 0.00 0.00 0.00 0.00 0.00 0.00 0.00 0.00 0.00 0.00 0.00 0.00 0.00 0.00 0.00 0.00 0.00 0.01 0.01 0.01 0.01 0.00 0.02 0.03 0.01 0.00 0.00 0.00 0.00 0.00 0.00 0.00 0.00 0.00 0.00 0.00 0.00
0.07 0.02 0.02 0.01 0.01 0.01 0.01 0.00 0.00 0.00 0.00 0.00 0.00 0.00 0.00 0.00 0.00 0.00 0.00 0.00 0.00 0.00 0.00 0.00 0.00 0.00 0.01 0.02 0.03 0.10 0.12 0.10 0.07 0.04 0.03 0.05 0.04 0.01 0.00 0.00 0.00 0.00 0.00 0.03 0.03 0.04 0.03 0.01 0.00
0.01 0.01 0.02 0.02 0.03 0.04 0.03 0.01 0.00 0.00 0.00 0.00 0.00 0.00 0.00 0.00 0.00 0.00 0.00 0.00 0.00 0.00 0.00 0.00 0.00 0.01 0.03 0.04 0.06 0.15 0.32 0.26 0.22 0.18 0.07 0.10 0.12 0.06 0.03 0.02 0.00 0.00 0.01 0.02 0.07 0.21 0.23 0.13 0.01
0.03 0.05 0.04 0.04 0.03 0.04 0.03 0.01 0.00 0.00 0.00 0.00 0.00 0.00 0.00 0.00 0.00 0.00 0.00 0.00 0.00 0.00 0.00 0.00 0.00 0.01 0.01 0.03 0.05 0.12 0.17 0.08 0.09 0.12 0.14 0.11 0.08 0.04 0.03 0.05 0.04 0.02 0.04 0.10 0.18 0.32 0.39 0.21 0.03
0.06 0.08 0.10 0.10 0.06 0.04 0.03 0.02 0.00 0.00 0.00 0.00 0.00 0.00 0.00 0.00 0.00 0.00 0.00 0.00 0.00 0.00 0.00 0.00 0.00 0.01 0.01 0.01 0.03 0.05 0.08 0.10 0.19 0.21 0.22 0.20 0.15 0.08 0.04 0.05 0.05 0.04 0.06 0.12 0.13 0.26 0.43 0.27 0.09
0.05 0.05 0.06 0.09 0.12 0.12 0.12 0.12 0.03 0.01 0.01 0.00 0.00 0.00 0.00 0.00 0.00 0.00 0.00 0.00 0.00 0.00 0.00 0.00 0.00 0.00 0.01 0.01 0.03 0.07 0.10 0.14 0.16 0.20 0.20 0.13 0.12 0.09 0.06 0.07 0.05 0.04 0.05 0.12 0.13 0.19 0.34 0.41 0.29
0.02 0.01 0.02 0.05 0.08 0.08 0.08 0.11 0.04 0.02 0.02 0.01 0.00 0.00 0.00 0.00 0.00 0.00 0.00 0.00 0.00 0.00 0.00 0.00 0.00 0.00 0.00 0.01 0.04 0.07 0.08 0.09 0.11 0.13 0.11 0.13 0.10 0.05 0.04 0.08 0.04 0.03 0.05 0.11 0.18 0.28 0.36 0.44 0.37
0.00 0.01 0.01 0.02 0.04 0.04 0.03 0.06 0.04 0.02 0.01 0.00 0.00 0.00 0.00 0.00 0.00 0.00 0.00 0.00 0.00 0.00 0.00 0.00 0.00 0.00 0.00 0.01 0.01 0.03 0.05 0.07 0.08 0.06 0.05 0.06 0.09 0.11 0.12 0.16 0.10 0.05 0.04 0.08 0.14 0.24 0.32 0.41 0.43
0.00 0.01 0.05 0.06 0.05 0.03 0.01 0.03 0.02 0.01 0.00 0.00 0.00 0.00 0.00 0.00 0.00 0.01 0.00 0.00 0.00 0.00 0.00 0.00 0.00 0.00 0.00 0.00 0.00 0.01 0.02 0.04 0.04 0.05 0.04 0.04 0.05 0.06 0.10 0.18 0.24 0.20 0.12 0.07 0.07 0.13 0.17 0.27 0.42
0.00 0.01 0.06 0.08 0.07 0.03 0.01 0.00 0.00 0.00 0.00 0.00 0.00 0.00 0.00 0.00 0.00 0.01 0.00 0.00 0.00 0.00 0.00 0.00 0.00 0.00 0.00 0.00 0.00 0.01 0.01 0.01 0.01 0.01 0.02 0.03 0.03 0.02 0.01 0.05 0.15 0.25 0.28 0.19 0.11 0.06 0.09 0.17 0.27
0.00 0.00 0.01 0.02 0.02 0.02 0.01 0.00 0.00 0.00 0.00 0.00 0.00 0.00 0.00 0.00 0.00 0.00 0.00 0.00 0.00 0.00 0.00 0.00 0.00 0.00 0.00 0.00 0.00 0.00 0.01 0.00 0.00 0.01 0.02 0.02 0.01 0.01 0.00 0.03 0.05 0.07 0.09 0.10 0.09 0.08 0.06 0.08 0.19
0.00 0.01 0.01 0.04 0.07 0.05 0.03 0.02 0.02 0.01 0.01 0.00 0.01 0.03 0.03 0.04 0.04 0.04 0.01 0.00 0.00 0.00 0.00 0.00 0.00 0.00 0.00 0.00 0.00 0.00 0.00 0.00 0.00 0.00 0.02 0.01 0.01 0.01 0.00 0.00 0.01 0.01 0.01 0.03 0.07 0.10 0.10 0.10 0.14
0.04 0.05 0.06 0.09 0.09 0.12 0.14 0.13 0.08 0.08 0.05 0.02 0.03 0.04 0.03 0.03 0.04 0.04 0.03 0.01 0.00 0.00 0.00 0.00 0.00 0.00 0.00 0.00 0.00 0.00 0.00 0.00 0.00 0.00 0.01 0.01 0.01 0.01 0.00 0.00 0.00 0.01 0.02 0.03 0.06 0.08 0.08 0.10 0.12
0.03 0.03 0.08 0.17 0.13 0.15 0.16 0.10 0.05 0.06 0.05 0.03 0.04 0.03 0.02 0.02 0.02 0.01 0.01 0.01 0.00 0.00 0.00 0.00 0.00 0.00 0.00 0.00 0.00 0.00 0.00 0.00 0.00 0.00 0.00 0.01 0.00 0.00 0.00 0.01 0.01 0.01 0.03 0.04 0.07 0.08 0.09 0.12 0.14

GEFSSGP_prec_meanprecacc_012.txt.gz
Total_Precipitation_Accumulation
0.00 0.01 0.03 0.07 0.20 0.08 0.00 0.00 0.00 0.00 0.00 0.00 0.00 0.00 0.00 0.00 0.01 0.05 0.01 0.00 0.00 0.00 0.00 0.02 0.06 0.07 0.07 0.05 0.04 0.11 0.11 0.04 0.03 0.04 0.03 0.03 0.04 0.05 0.05 0.04 0.02 0.01 0.01 0.02 0.08 0.12 0.07 0.06 0.08
0.00 0.00 0.03 0.15 0.19 0.02 0.00 0.00 0.00 0.00 0.00 0.00 0.00 0.00 0.00 0.00 0.00 0.00 0.00 0.00 0.00 0.00 0.00 0.02 0.04 0.08 0.08 0.06 0.08 0.21 0.20 0.11 0.06 0.04 0.03 0.02 0.03 0.08 0.15 0.14 0.04 0.01 0.01 0.01 0.06 0.10 0.06 0.05 0.11
0.00 0.01 0.04 0.18 0.10 0.01 0.00 0.00 0.00 0.00 0.00 0.00 0.00 0.00 0.00 0.00 0.00 0.00 0.00 0.00 0.00 0.00 0.02 0.10 0.12 0.10 0.08 0.09 0.18 0.32 0.27 0.20 0.09 0.03 0.01 0.01 0.03 0.06 0.14 0.10 0.05 0.01 0.00 0.01 0.05 0.07 0.04 0.03 0.04
0.00 0.02 0.12 0.19 0.05 0.00 0.00 0.00 0.00 0.00 0.00 0.00 0.00 0.00 0.00 0.00 0.00 0.00 0.00 0.00 0.00 0.00 0.02 0.07 0.11 0.09 0.09 0.15 0.26 0.29 0.29 0.31 0.15 0.03 0.01 0.05 0.06 0.07 0.11 0.10 0.04 0.01 0.01 0.01 0.01 0.03 0.03 0.02 0.01
0.03 0.08 0.24 0.27 0.04 0.00 0.00 0.00 0.00 0.00 0.00 0.00 0.00 0.00 0.00 0.00 0.00 0.00 0.00 0.00 0.00 0.00 0.02 0.03 0.11 0.11 0.11 0.17 0.24 0.23 0.24 0.31 0.22 0.05 0.06 0.09 0.06 0.06 0.09 0.11 0.04 0.01 0.00 0.00 0.00 0.02 0.03 0.03 0.02
0.04 0.14 0.34 0.35 0.06 0.00 0.00 0.00 0.00 0.00 0.00 0.00 0.00 0.00 0.00 0.00 0.00 0.00 0.00 0.00 0.00 0.00 0.01 0.03 0.07 0.07 0.09 0.14 0.20 0.17 0.19 0.24 0.18 0.08 0.07 0.06 0.06 0.06 0.09 0.06 0.02 0.00 0.00 0.00 0.00 0.03 0.03 0.02 0.01
0.05 0.13 0.29 0.20 0.02 0.00 0.00 0.00 0.00 0.00 0.00 0.00 0.00 0.00 0.00 0.00 0.00 0.00 0.00 0.00 0.02 0.02 0.01 0.01 0.02 0.02 0.03 0.07 0.13 0.16 0.18 0.18 0.10 0.06 0.03 0.05 0.07 0.05 0.04 0.01 0.00 0.00 0.00 0.00 0.01 0.02 0.02 0.00 0.00
0.01 0.05 0.14 0.10 0.02 0.00 0.00 0.00 0.00 0.00 0.00 0.00 0.00 0.00 0.00 0.00 0.00 0.00 0.01 0.02 0.03 0.02 0.01 0.00 0.01 0.01 0.02 0.02 0.06 0.11 0.14 0.14 0.09 0.06 0.05 0.06 0.05 0.03 0.02 0.00 0.00 0.00 0.00 0.00 0.00 0.01 0.01 0.00 0.00
0.02 0.03 0.08 0.11 0.04 0.01 0.00 0.00 0.00 0.00 0.00 0.00 0.00 0.00 0.00 0.00 0.00 0.00 0.00 0.03 0.04 0.03 0.01 0.01 0.01 0.00 0.02 0.05 0.06 0.10 0.11 0.10 0.07 0.05 0.06 0.07 0.04 0.05 0.06 0.01 0.00 0.00 0.00 0.00 0.01 0.01 0.01 0.00 0.00
0.04 0.05 0.06 0.16 0.09 0.02 0.01 0.00 0.00 0.00 0.00 0.00 0.00 0.00 0.00 0.00 0.00 0.00 0.00 0.01 0.02 0.04 0.05 0.03 0.00 0.00 0.02 0.09 0.22 0.33 0.20 0.12 0.06 0.03 0.03 0.10 0.06 0.09 0.08 0.01 0.00 0.01 0.00 0.00 0.01 0.01 0.00 0.00 0.00
0.02 0.05 0.04 0.07 0.07 0.02 0.01 0.00 0.00 0.00 0.00 0.00 0.00 0.00 0.00 0.00 0.00 0.00 0.00 0.00 0.00 0.01 0.03 0.05 0.02 0.00 0.01 0.07 0.21 0.34 0.35 0.25 0.20 0.04 0.02 0.07 0.03 0.02 0.03 0.01 0.02 0.03 0.00 0.00 0.00 0.00 0.00 0.00 0.00
0.01 0.02 0.02 0.01 0.02 0.02 0.01 0.00 0.00 0.00 0.00 0.00 0.00 0.00 0.00 0.00 0.00 0.00 0.00 0.00 0.00 0.00 0.00 0.02 0.03 0.00 0.00 0.01 0.02 0.07 0.12 0.12 0.13 0.06 0.02 0.02 0.01 0.00 0.00 0.00 0.01 0.01 0.00 0.00 0.00 0.00 0.00 0.00 0.00
0.02 0.01 0.01 0.00 0.01 0.02 0.01 0.00 0.00 0.00 0.00 0.00 0.00 0.00 0.00 0.00 0.00 0.00 0.00 0.00 0.00 0.00 0.00 0.00 0.01 0.01 0.00 0.00 0.00 0.01 0.02 0.03 0.04 0.05 0.06 0.02 0.00 0.00 0.00 0.00 0.00 0.00 0.00 0.00 0.00 0.00 0.00 0.00 0.00
0.01 0.01 0.01 0.02 0.02 0.01 0.01 0.00 0.00 0.00 0.00 0.00 0.00 0.00 0.00 0.00 0.00 0.00 0.00 0.00 0.00 0.00 0.00 0.00 0.00 0.01 0.00 0.00 0.00 0.00 0.01 0.01 0.01 0.01 0.03 0.02 0.00 0.00 0.00 0.00 0.00 0.00 0.00 0.00 0.00 0.00 0.00 0.00 0.00
0.00 0.00 0.00 0.00 0.00 0.00 0.00 0.00 0.00 0.01 0.01 0.01 0.00 0.00 0.00 0.00 0.00 0.00 0.00 0.00 0.00 0.00 0.00 0.00 0.00 0.01 0.00 0.01 0.01 0.00 0.00 0.01 0.01 0.01 0.01 0.01 0.00 0.00 0.00 0.00 0.00 0.00 0.00 0.00 0.00 0.00 0.00 0.00 0.00
0.00 0.00 0.01 0.02 0.01 0.01 0.01 0.00 0.01 0.01 0.02 0.02 0.03 0.01 0.00 0.00 0.00 0.00 0.00 0.00 0.00 0.00 0.00 0.00 0.00 0.00 0.00 0.01 0.01 0.01 0.01 0.02 0.01 0.02 0.01 0.01 0.01 0.00 0.00 0.00 0.00 0.00 0.00 0.00 0.00 0.00 0.00 0.00 0.00
0.01 0.02 0.03 0.03 0.02 0.03 0.03 0.03 0.04 0.04 0.04 0.05 0.05 0.02 0.00 0.00 0.00 0.00 0.00 0.00 0.00 0.00 0.00 0.00 0.00 0.01 0.01 0.02 0.03 0.05 0.09 0.11 0.09 0.08 0.05 0.06 0.05 0.03 0.01 0.00 0.01 0.01 0.00 0.00 0.01 0.01 0.00 0.00 0.00
0.09 0.05 0.05 0.05 0.04 0.03 0.04 0.04 0.05 0.05 0.03 0.03 0.03 0.01 0.01 0.00 0.00 0.00 0.00 0.00 0.00 0.00 0.00 0.00 0.01 0.02 0.04 0.06 0.08 0.19 0.26 0.26 0.29 0.25 0.13 0.14 0.13 0.10 0.07 0.03 0.03 0.02 0.01 0.04 0.04 0.06 0.04 0.02 0.01
0.06 0.04 0.04 0.06 0.07 0.06 0.05 0.04 0.04 0.04 0.03 0.02 0.02 0.02 0.01 0.01 0.00 0.00 0.00 0.00 0.00 0.00 0.00 0.00 0.01 0.03 0.07 0.09 0.12 0.27 0.47 0.43 0.46 0.42 0.25 0.22 0.26 0.26 0.22 0.13 0.06 0.03 0.03 0.04 0.12 0.25 0.28 0.17 0.04
0.05 0.06 0.05 0.05 0.04 0.05 0.05 0.04 0.03 0.04 0.05 0.04 0.03 0.02 0.01 0.01 0.00 0.00 0.00 0.00 0.00 0.00 0.00 0.00 0.01 0.04 0.06 0.08 0.10 0.18 0.24 0.15 0.20 0.28 0.31 0.26 0.23 0.27 0.29 0.28 0.20 0.10 0.09 0.15 0.26 0.41 0.50 0.33 0.13
0.06 0.08 0.10 0.10 0.06 0.04 0.04 0.03 0.01 0.02 0.03 0.03 0.03 0.02 0.01 0.01 0.00 0.00 0.00 0.00 0.00 0.00 0.00 0.00 0.01 0.05 0.07 0.06 0.06 0.08 0.10 0.13 0.24 0.27 0.32 0.31 0.25 0.22 0.23 0.31 0.30 0.23 0.18 0.23 0.25 0.41 0.60 0.48 0.30
0.06 0.05 0.06 0.09 0.13 0.12 0.13 0.13 0.04 0.03 0.04 0.03 0.03 0.03 0.02 0.01 0.01 0.01 0.01 0.00 0.00 0.00 0.00 0.00 0.02 0.04 0.04 0.03 0.04 0.07 0.10 0.17 0.19 0.23 0.24 0.16 0.15 0.15 0.15 0.23 0.29 0.32 0.29 0.34 0.34 0.40 0.56 0.64 0.53
0.02 0.01 0.03 0.06 0.11 0.09 0.08 0.12 0.05 0.04 0.06 0.06 0.04 0.03 0.02 0.01 0.02 0.03 0.03 0.03 0.02 0.02 0.01 0.01 0.02 0.03 0.01 0.02 0.04 0.08 0.09 0.12 0.14 0.14 0.12 0.13 0.11 0.08 0.08 0.16 0.18 0.21 0.26 0.37 0.53 0.60 0.63 0.64 0.53
0.01 0.02 0.05 0.08 0.10 0.06 0.05 0.07 0.05 0.03 0.03 0.02 0.02 0.02 0.02 0.03 0.07 0.11 0.11 0.11 0.10 0.08 0.07 0.04 0.03 0.01 0.01 0.01 0.01 0.03 0.06 0.11 0.12 0.08 0.07 0.08 0.11 0.13 0.15 0.19 0.15 0.11 0.16 0.26 0.40 0.54 0.65 0.69 0.62
0.01 0.04 0.09 0.11 0.11 0.08 0.06 0.10 0.08 0.03 0.01 0.01 0.01 0.01 0.03 0.06 0.12 0.20 0.22 0.22 0.18 0.16 0.12 0.05 0.01 0.00 0.00 0.00 0.00 0.01 0.03 0.06 0.08 0.07 0.05 0.04 0.05 0.07 0.11 0.22 0.29 0.27 0.25 0.28 0.33 0.41 0.45 0.53 0.64
0.02 0.06 0.15 0.17 0.14 0.11 0.07 0.09 0.07 0.06 0.03 0.02 0.01 0.02 0.06 0.12 0.17 0.19 0.18 0.19 0.17 0.12 0.06 0.02 0.00 0.00 0.00 0.00 0.00 0.01 0.02 0.02 0.02 0.02 0.03 0.03 0.03 0.02 0.02 0.06 0.16 0.27 0.34 0.34 0.33 0.27 0.28 0.38 0.47
0.04 0.05 0.08 0.15 0.12 0.08 0.06 0.08 0.08 0.07 0.07 0.05 0.04 0.06 0.12 0.24 0.31 0.29 0.29 0.30 0.19 0.08 0.03 0.01 0.00 0.00 0.00 0.00 0.00 0.00 0.01 0.00 0.01 0.01 0.03 0.02 0.01 0.01 0.00 0.03 0.05 0.08 0.11 0.14 0.17 0.19 0.23 0.24 0.35
0.07 0.11 0.14 0.23 0.24 0.16 0.13 0.15 0.16 0.16 0.17 0.17 0.20 0.25 0.29 0.38 0.46 0.51 0.55 0.46 0.20 0.06 0.02 0.01 0.00 0.00 0.00 0.00 0.00 0.00 0.00 0.00 0.00 0.01 0.02 0.01 0.01 0.01 0.00 0.00 0.01 0.01 0.02 0.04 0.09 0.15 0.22 0.24 0.27
0.11 0.17 0.21 0.27 0.30 0.30 0.29 0.34 0.32 0.35 0.38 0.44 0.49 0.44 0.37 0.41 0.45 0.53 0.54 0.39 0.16 0.05 0.02 0.01 0.00 0.00 0.00 0.00 0.00 0.01 0.01 0.01 0.01 0.01 0.01 0.01 0.01 0.01 0.00 0.00 0.01 0.02 0.02 0.03 0.06 0.08 0.10 0.13 0.17
0.16 0.24 0.36 0.44 0.34 0.32 0.31 0.38 0.33 0.28 0.29 0.35 0.43 0.33 0.20 0.19 0.20 0.21 0.19 0.14 0.09 0.05 0.02 0.01 0.01 0.01 0.02 0.02 0.02 0.02 0.02 0.03 0.02 0.02 0.01 0.01 0.00 0.00 0.01 0.02 0.02 0.01 0.03 0.04 0.07 0.08 0.09 0.12 0.15

GEFSSGP_prec_meanprecacc_018.txt.gz
Total_Precipitation_Accumulation
0.00 0.02 0.04 0.08 0.20 0.08 0.00 0.00 0.00 0.00 0.00 0.00 0.00 0.00 0.00 0.00 0.01 0.06 0.01 0.00 0.00 0.00 0.00 0.02 0.07 0.08 0.07 0.06 0.05 0.11 0.11 0.04 0.04 0.06 0.06 0.04 0.04 0.05 0.05 0.04 0.02 0.01 0.01 0.02 0.09 0.13 0.09 0.08 0.11
0.00 0.01 0.04 0.17 0.19 0.02 0.00 0.00 0.00 0.00 0.00 0.00 0.00 0.00 0.00 0.00 0.00 0.00 0.00 0.00 0.00 0.00 0.00 0.02 0.05 0.10 0.09 0.07 0.09 0.22 0.21 0.12 0.07 0.06 0.06 0.03 0.03 0.08 0.15 0.14 0.04 0.01 0.01 0.01 0.07 0.12 0.08 0.07 0.12
0.00 0.01 0.06 0.19 0.10 0.01 0.00 0.00 0.00 0.00 0.00 0.00 0.00 0.00 0.00 0.00 0.00 0.00 0.00 0.00 0.00 0.00 0.02 0.10 0.13 0.11 0.09 0.11 0.20 0.32 0.28 0.22 0.11 0.05 0.03 0.02 0.03 0.07 0.14 0.10 0.05 0.01 0.01 0.01 0.05 0.09 0.07 0.05 0.06
0.00 0.02 0.13 0.20 0.06 0.00 0.00 0.00 0.00 0.00 0.00 0.00 0.00 0.00 0.00 0.00 0.00 0.00 0.00 0.00 0.00 0.00 0.02 0.08 0.13 0.11 0.12 0.18 0.28 0.30 0.31 0.33 0.17 0.05 0.02 0.05 0.07 0.09 0.12 0.10 0.05 0.01 0.01 0.01 0.01 0.03 0.04 0.03 0.03
0.03 0.08 0.25 0.27 0.04 0.00 0.00 0.00 0.00 0.00 0.00 0.00 0.00 0.00 0.00 0.00 0.00 0.00 0.00 0.00 0.00 0.00 0.02 0.04 0.13 0.13 0.14 0.21 0.28 0.26 0.27 0.33 0.23 0.06 0.07 0.10 0.07 0.07 0.09 0.11 0.04 0.01 0.00 0.00 0.00 0.02 0.03 0.04 0.03
0.05 0.14 0.35 0.36 0.06 0.00 0.00 0.00 0.00 0.00 0.00 0.00 0.00 0.00 0.00 0.00 0.00 0.00 0.00 0.00 0.00 0.00 0.01 0.03 0.09 0.09 0.11 0.18 0.24 0.21 0.21 0.26 0.18 0.09 0.10 0.09 0.08 0.07 0.10 0.06 0.02 0.00 0.00 0.00 0.01 0.03 0.03 0.03 0.02
0.05 0.13 0.30 0.22 0.02 0.00 0.00 0.00 0.00 0.00 0.00 0.00 0.00 0.00 0.00 0.00 0.00 0.00 0.01 0.02 0.02 0.02 0.01 0.01 0.02 0.02 0.04 0.10 0.16 0.19 0.22 0.21 0.11 0.09 0.07 0.09 0.09 0.06 0.04 0.02 0.00 0.00 0.00 0.00 0.01 0.02 0.02 0.00 0.00
0.02 0.05 0.16 0.12 0.03 0.00 0.00 0.00 0.00 0.00 0.00 0.00 0.00 0.00 0.00 0.00 0.00 0.00 0.02 0.06 0.06 0.03 0.01 0.01 0.01 0.01 0.02 0.03 0.08 0.14 0.18 0.17 0.11 0.09 0.09 0.09 0.06 0.04 0.03 0.00 0.00 0.00 0.00 0.00 0.00 0.01 0.01 0.00 0.00
0.03 0.04 0.09 0.13 0.06 0.02 0.01 0.00 0.00 0.00 0.00 0.00 0.00 0.00 0.00 0.00 0.00 0.00 0.01 0.04 0.06 0.04 0.01 0.01 0.01 0.00 0.02 0.05 0.07 0.12 0.16 0.14 0.09 0.08 0.09 0.09 0.05 0.05 0.06 0.01 0.00 0.00 0.00 0.00 0.01 0.01 0.01 0.00 0.00
0.06 0.05 0.07 0.18 0.11 0.03 0.01 0.00 0.00 0.00 0.00 0.00 0.00 0.00 0.00 0.00 0.00 0.00 0.00 0.01 0.03 0.04 0.05 0.03 0.00 0.00 0.02 0.09 0.22 0.33 0.22 0.13 0.07 0.03 0.04 0.11 0.06 0.09 0.08 0.01 0.00 0.01 0.00 0.00 0.01 0.01 0.00 0.00 0.00
0.05 0.06 0.06 0.08 0.08 0.03 0.01 0.01 0.00 0.00 0.00 0.00 0.00 0.00 0.00 0.00 0.00 0.00 0.00 0.00 0.00 0.01 0.03 0.05 0.02 0.00 0.01 0.07 0.21 0.35 0.35 0.26 0.20 0.04 0.02 0.07 0.03 0.02 0.03 0.01 0.02 0.03 0.00 0.00 0.00 0.00 0.00 0.00 0.00
0.06 0.04 0.03 0.02 0.03 0.03 0.01 0.01 0.01 0.00 0.00 0.00 0.00 0.00 0.00 0.00 0.00 0.00 0.00 0.00 0.00 0.00 0.00 0.02 0.03 0.00 0.00 0.01 0.02 0.08 0.12 0.12 0.13 0.06 0.02 0.02 0.01 0.00 0.00 0.00 0.01 0.01 0.00 0.00 0.00 0.00 0.00 0.00 0.00
0.07 0.03 0.02 0.02 0.02 0.03 0.01 0.00 0.01 0.00 0.00 0.00 0.00 0.00 0.00 0.00 0.00 0.00 0.00 0.00 0.00 0.00 0.00 0.00 0.01 0.01 0.00 0.00 0.00 0.01 0.02 0.03 0.04 0.05 0.06 0.02 0.01 0.00 0.00 0.00 0.00 0.00 0.00 0.00 0.00 0.00 0.00 0.00 0.00
0.02 0.02 0.03 0.03 0.03 0.02 0.01 0.00 0.01 0.01 0.01 0.00 0.00 0.00 0.00 0.00 0.00 0.00 0.00 0.00 0.00 0.00 0.00 0.00 0.00 0.01 0.00 0.00 0.00 0.00 0.01 0.01 0.01 0.01 0.03 0.02 0.00 0.00 0.00 0.00 0.00 0.00 0.00 0.00 0.00 0.00 0.00 0.00 0.00
0.01 0.01 0.01 0.01 0.01 0.01 0.00 0.00 0.01 0.02 0.02 0.01 0.01 0.00 0.00 0.00 0.00 0.00 0.00 0.00 0.00 0.00 0.00 0.00 0.00 0.01 0.00 0.01 0.01 0.00 0.00 0.01 0.01 0.01 0.01 0.01 0.00 0.00 0.00 0.00 0.00 0.00 0.00 0.00 0.00 0.00 0.00 0.00 0.00
0.00 0.00 0.01 0.02 0.01 0.01 0.01 0.00 0.02 0.03 0.04 0.04 0.04 0.02 0.01 0.00 0.00 0.00 0.00 0.00 0.00 0.00 0.00 0.00 0.00 0.00 0.00 0.01 0.01 0.02 0.01 0.02 0.01 0.02 0.01 0.01 0.02 0.02 0.02 0.02 0.02 0.01 0.00 0.00 0.00 0.00 0.00 0.00 0.00
0.01 0.02 0.03 0.03 0.02 0.03 0.04 0.03 0.05 0.06 0.06 0.07 0.08 0.05 0.03 0.02 0.01 0.00 0.00 0.00 0.00 0.00 0.00 0.00 0.00 0.01 0.01 0.02 0.03 0.05 0.09 0.11 0.09 0.08 0.06 0.07 0.08 0.08 0.07 0.06 0.08 0.06 0.02 0.01 0.01 0.01 0.00 0.00 0.00
0.09 0.05 0.05 0.05 0.04 0.04 0.04 0.04 0.06 0.07 0.05 0.05 0.06 0.05 0.03 0.02 0.02 0.02 0.01 0.01 0.01 0.00 0.00 0.00 0.01 0.02 0.04 0.06 0.09 0.19 0.27 0.27 0.30 0.28 0.17 0.20 0.23 0.22 0.17 0.12 0.18 0.18 0.10 0.07 0.06 0.07 0.04 0.02 0.01
0.06 0.04 0.04 0.06 0.07 0.06 0.05 0.04 0.05 0.06 0.05 0.04 0.04 0.04 0.04 0.03 0.03 0.03 0.03 0.02 0.02 0.01 0.00 0.00 0.01 0.03 0.07 0.09 0.13 0.27 0.48 0.44 0.47 0.46 0.31 0.33 0.40 0.42 0.40 0.33 0.31 0.29 0.24 0.19 0.22 0.32 0.31 0.19 0.04
0.05 0.06 0.05 0.05 0.04 0.05 0.05 0.04 0.04 0.05 0.06 0.05 0.05 0.04 0.03 0.03 0.03 0.02 0.03 0.02 0.01 0.01 0.01 0.01 0.02 0.04 0.07 0.09 0.13 0.21 0.26 0.17 0.23 0.31 0.36 0.33 0.31 0.37 0.43 0.48 0.42 0.35 0.34 0.39 0.46 0.58 0.61 0.40 0.18
0.06 0.08 0.10 0.10 0.06 0.04 0.04 0.03 0.01 0.02 0.03 0.04 0.04 0.04 0.03 0.03 0.02 0.02 0.02 0.02 0.02 0.02 0.02 0.02 0.04 0.09 0.11 0.12 0.13 0.13 0.15 0.17 0.28 0.31 0.38 0.38 0.33 0.31 0.34 0.43 0.44 0.40 0.40 0.47 0.54 0.74 0.92 0.70 0.45
0.06 0.05 0.06 0.09 0.13 0.12 0.13 0.13 0.04 0.03 0.04 0.03 0.04 0.04 0.03 0.03 0.02 0.02 0.02 0.02 0.02 0.03 0.03 0.05 0.11 0.17 0.20 0.19 0.16 0.16 0.17 0.22 0.24 0.29 0.31 0.23 0.21 0.22 0.22 0.29 0.36 0.41 0.41 0.50 0.59 0.74 0.99 1.03 0.82
0.02 0.02 0.03 0.07 0.11 0.10 0.09 0.12 0.05 0.04 0.06 0.06 0.04 0.03 0.02 0.02 0.03 0.04 0.05 0.06 0.07 0.08 0.10 0.15 0.27 0.38 0.39 0.33 0.24 0.21 0.19 0.20 0.21 0.20 0.18 0.20 0.18 0.14 0.12 0.20 0.21 0.25 0.31 0.44 0.66 0.81 0.99 1.10 0.96
0.01 0.02 0.05 0.08 0.11 0.06 0.05 0.08 0.06 0.04 0.03 0.03 0.02 0.02 0.02 0.03 0.09 0.15 0.22 0.28 0.32 0.36 0.48 0.61 0.73 0.72 0.58 0.40 0.26 0.19 0.18 0.19 0.18 0.14 0.13 0.14 0.16 0.18 0.19 0.22 0.18 0.14 0.19 0.29 0.45 0.65 0.86 1.06 1.07
0.01 0.04 0.10 0.11 0.12 0.09 0.08 0.15 0.12 0.06 0.03 0.01 0.01 0.01 0.04 0.10 0.20 0.33 0.49 0.61 0.69 0.78 0.85 0.89 0.94 0.89 0.63 0.37 0.22 0.15 0.12 0.13 0.13 0.11 0.08 0.07 0.07 0.09 0.14 0.23 0.31 0.28 0.26 0.30 0.36 0.47 0.55 0.76 1.00
0.02 0.06 0.16 0.19 0.16 0.13 0.11 0.17 0.15 0.12 0.08 0.05 0.03 0.04 0.10 0.21 0.34 0.44 0.52 0.65 0.77 0.84 0.80 0.76 0.73 0.62 0.44 0.28 0.17 0.12 0.09 0.07 0.06 0.04 0.04 0.04 0.04 0.03 0.02 0.06 0.17 0.27 0.34 0.34 0.33 0.29 0.33 0.50 0.69
0.04 0.05 0.11 0.20 0.16 0.12 0.10 0.17 0.17 0.12 0.13 0.11 0.10 0.10 0.18 0.34 0.51 0.62 0.72 0.85 0.88 0.85 0.78 0.61 0.51 0.39 0.27 0.19 0.13 0.09 0.06 0.03 0.02 0.02 0.03 0.02 0.02 0.01 0.01 0.03 0.05 0.08 0.11 0.14 0.17 0.19 0.24 0.28 0.45
0.08 0.14 0.20 0.31 0.32 0.23 0.23 0.26 0.24 0.22 0.22 0.23 0.27 0.31 0.34 0.45 0.63 0.83 1.04 1.17 1.02 0.73 0.55 0.43 0.32 0.25 0.18 0.15 0.11 0.08 0.06 0.03 0.02 0.02 0.02 0.01 0.01 0.01 0.00 0.01 0.01 0.01 0.02 0.04 0.09 0.15 0.23 0.26 0.32
0.13 0.21 0.28 0.35 0.41 0.44 0.47 0.54 0.43 0.41 0.44 0.51 0.55 0.49 0.44 0.49 0.55 0.71 0.89 1.00 0.84 0.55 0.33 0.25 0.24 0.22 0.18 0.15 0.12 0.09 0.06 0.05 0.03 0.02 0.02 0.02 0.01 0.01 0.01 0.01 0.01 0.02 0.02 0.03 0.06 0.08 0.10 0.13 0.18
0.23 0.30 0.42 0.52 0.45 0.48 0.54 0.58 0.43 0.34 0.34 0.39 0.48 0.40 0.29 0.28 0.28 0.32 0.42 0.50 0.46 0.34 0.23 0.18 0.21 0.23 0.22 0.20 0.15 0.11 0.09 0.08 0.06 0.04 0.03 0.02 0.01 0.01 0.01 0.02 0.02 0.02 0.03 0.04 0.07 0.09 0.09 0.12 0.15

GEFSSGP_prec_meanprecacc_024.txt.gz
Total_Precipitation_Accumulation
0.00 0.02 0.04 0.08 0.20 0.08 0.00 0.00 0.00 0.00 0.00 0.00 0.00 0.00 0.00 0.00 0.01 0.07 0.01 0.00 0.00 0.00 0.01 0.03 0.08 0.09 0.08 0.07 0.06 0.13 0.13 0.06 0.05 0.07 0.06 0.04 0.04 0.05 0.05 0.04 0.02 0.01 0.01 0.03 0.11 0.16 0.14 0.15 0.20
0.00 0.01 0.04 0.17 0.19 0.02 0.00 0.00 0.00 0.00 0.00 0.00 0.00 0.00 0.00 0.00 0.00 0.00 0.00 0.00 0.00 0.00 0.00 0.02 0.06 0.11 0.10 0.08 0.11 0.23 0.22 0.14 0.09 0.08 0.07 0.04 0.03 0.08 0.15 0.14 0.04 0.02 0.01 0.02 0.08 0.14 0.12 0.13 0.22
0.00 0.01 0.06 0.19 0.10 0.01 0.00 0.00 0.00 0.00 0.00 0.00 0.00 0.00 0.00 0.00 0.00 0.00 0.00 0.00 0.00 0.00 0.02 0.11 0.14 0.11 0.10 0.12 0.22 0.35 0.31 0.25 0.16 0.08 0.05 0.04 0.04 0.07 0.14 0.10 0.05 0.01 0.01 0.02 0.06 0.10 0.10 0.10 0.13
0.00 0.02 0.13 0.20 0.06 0.00 0.00 0.00 0.00 0.00 0.00 0.00 0.00 0.00 0.00 0.00 0.00 0.00 0.00 0.00 0.00 0.00 0.02 0.09 0.14 0.12 0.12 0.20 0.31 0.34 0.37 0.40 0.25 0.11 0.05 0.07 0.08 0.09 0.12 0.11 0.05 0.01 0.01 0.01 0.02 0.05 0.08 0.09 0.10
0.03 0.08 0.25 0.27 0.04 0.00 0.00 0.00 0.00 0.00 0.00 0.00 0.00 0.00 0.00 0.00 0.00 0.00 0.00 0.00 0.00 0.00 0.02 0.04 0.14 0.14 0.16 0.25 0.32 0.30 0.35 0.41 0.28 0.11 0.10 0.11 0.07 0.07 0.10 0.12 0.05 0.02 0.00 0.00 0.01 0.03 0.05 0.07 0.09
0.05 0.14 0.35 0.36 0.06 0.00 0.00 0.00 0.00 0.00 0.00 0.00 0.00 0.00 0.00 0.00 0.00 0.00 0.00 0.00 0.00 0.00 0.01 0.03 0.09 0.11 0.14 0.24 0.32 0.27 0.28 0.31 0.22 0.12 0.12 0.09 0.08 0.08 0.10 0.07 0.03 0.00 0.00 0.00 0.01 0.03 0.04 0.05 0.06
0.05 0.13 0.30 0.22 0.02 0.00 0.00 0.00 0.00 0.00 0.00 0.00 0.00 0.00 0.00 0.00 0.00 0.00 0.01 0.02 0.02 0.02 0.01 0.01 0.02 0.03 0.07 0.16 0.26 0.29 0.29 0.26 0.14 0.11 0.08 0.09 0.09 0.07 0.05 0.03 0.01 0.00 0.00 0.00 0.01 0.02 0.02 0.02 0.03
0.02 0.05 0.16 0.12 0.03 0.00 0.00 0.00 0.00 0.00 0.00 0.00 0.00 0.00 0.00 0.00 0.00 0.01 0.02 0.06 0.06 0.03 0.01 0.01 0.01 0.01 0.03 0.06 0.15 0.27 0.30 0.25 0.15 0.11 0.11 0.10 0.07 0.04 0.03 0.01 0.00 0.00 0.00 0.00 0.00 0.01 0.01 0.01 0.01
0.03 0.04 0.09 0.13 0.06 0.02 0.01 0.00 0.00 0.00 0.00 0.00 0.00 0.00 0.00 0.00 0.00 0.00 0.01 0.04 0.06 0.04 0.01 0.01 0.01 0.00 0.03 0.07 0.11 0.23 0.31 0.26 0.15 0.11 0.10 0.09 0.06 0.06 0.07 0.01 0.00 0.00 0.00 0.00 0.01 0.01 0.01 0.00 0.00
0.06 0.06 0.07 0.18 0.11 0.03 0.01 0.00 0.00 0.00 0.00 0.00 0.00 0.00 0.00 0.00 0.00 0.00 0.00 0.01 0.03 0.04 0.05 0.03 0.00 0.00 0.02 0.10 0.26 0.41 0.30 0.21 0.12 0.07 0.05 0.11 0.07 0.10 0.08 0.01 0.00 0.01 0.00 0.00 0.01 0.01 0.00 0.00 0.00
0.05 0.07 0.06 0.09 0.09 0.03 0.01 0.01 0.00 0.00 0.00 0.00 0.00 0.00 0.00 0.00 0.00 0.00 0.00 0.00 0.00 0.01 0.03 0.05 0.02 0.00 0.01 0.08 0.24 0.40 0.43 0.34 0.26 0.06 0.03 0.07 0.03 0.02 0.03 0.01 0.02 0.03 0.00 0.00 0.00 0.00 0.00 0.00 0.00
0.07 0.05 0.03 0.02 0.04 0.03 0.01 0.01 0.01 0.00 0.00 0.00 0.00 0.00 0.00 0.00 0.00 0.00 0.00 0.00 0.00 0.00 0.00 0.02 0.03 0.00 0.00 0.01 0.03 0.10 0.16 0.16 0.16 0.07 0.02 0.02 0.01 0.00 0.00 0.00 0.01 0.01 0.00 0.00 0.00 0.00 0.00 0.00 0.00
0.08 0.04 0.02 0.03 0.03 0.03 0.02 0.01 0.01 0.00 0.00 0.00 0.00 0.00 0.00 0.00 0.00 0.00 0.00 0.00 0.00 0.00 0.00 0.00 0.01 0.01 0.00 0.00 0.01 0.02 0.04 0.06 0.05 0.06 0.06 0.02 0.01 0.00 0.00 0.00 0.00 0.00 0.00 0.00 0.00 0.00 0.00 0.00 0.00
0.03 0.02 0.04 0.04 0.04 0.02 0.01 0.01 0.01 0.01 0.01 0.00 0.00 0.00 0.00 0.00 0.00 0.00 0.00 0.00 0.00 0.00 0.00 0.00 0.00 0.01 0.00 0.00 0.00 0.00 0.02 0.03 0.02 0.01 0.03 0.02 0.00 0.00 0.00 0.00 0.00 0.00 0.00 0.00 0.00 0.00 0.00 0.00 0.00
0.01 0.02 0.02 0.01 0.01 0.01 0.01 0.00 0.01 0.02 0.02 0.01 0.01 0.00 0.00 0.00 0.00 0.00 0.00 0.00 0.00 0.00 0.00 0.00 0.00 0.01 0.00 0.01 0.01 0.00 0.01 0.02 0.02 0.01 0.01 0.01 0.00 0.00 0.00 0.00 0.00 0.00 0.00 0.00 0.00 0.00 0.00 0.00 0.00
0.00 0.00 0.01 0.02 0.01 0.01 0.01 0.01 0.02 0.03 0.04 0.04 0.04 0.02 0.01 0.01 0.01 0.00 0.00 0.00 0.00 0.00 0.00 0.00 0.00 0.00 0.00 0.01 0.01 0.02 0.02 0.03 0.03 0.03 0.01 0.01 0.02 0.02 0.02 0.03 0.03 0.01 0.00 0.00 0.00 0.00 0.00 0.00 0.00
0.01 0.02 0.03 0.03 0.02 0.03 0.04 0.03 0.05 0.06 0.07 0.07 0.08 0.05 0.03 0.03 0.03 0.03 0.01 0.01 0.00 0.00 0.00 0.00 0.00 0.01 0.01 0.02 0.04 0.06 0.10 0.13 0.11 0.09 0.06 0.08 0.10 0.11 0.13 0.14 0.14 0.07 0.02 0.01 0.01 0.01 0.00 0.00 0.01
0.09 0.06 0.05 0.05 0.04 0.04 0.04 0.04 0.06 0.07 0.05 0.05 0.06 0.05 0.04 0.04 0.07 0.09 0.09 0.07 0.04 0.02 0.01 0.00 0.01 0.02 0.04 0.08 0.10 0.22 0.30 0.29 0.32 0.29 0.18 0.22 0.30 0.35 0.38 0.36 0.36 0.26 0.15 0.12 0.08 0.08 0.05 0.03 0.02
0.06 0.05 0.05 0.06 0.07 0.06 0.05 0.04 0.05 0.06 0.05 0.04 0.05 0.04 0.04 0.04 0.06 0.08 0.11 0.11 0.09 0.04 0.01 0.00 0.01 0.03 0.08 0.12 0.17 0.33 0.54 0.49 0.51 0.48 0.33 0.36 0.51 0.67 0.73 0.68 0.64 0.52 0.43 0.36 0.33 0.38 0.35 0.21 0.05
0.05 0.07 0.05 0.05 0.04 0.05 0.05 0.04 0.04 0.05 0.06 0.05 0.05 0.04 0.03 0.03 0.03 0.04 0.06 0.09 0.09 0.06 0.03 0.02 0.03 0.06 0.10 0.14 0.22 0.32 0.37 0.27 0.31 0.37 0.40 0.37 0.40 0.56 0.69 0.80 0.74 0.62 0.59 0.63 0.66 0.75 0.75 0.49 0.21
0.06 0.08 0.10 0.10 0.06 0.04 0.04 0.03 0.01 0.02 0.03 0.04 0.04 0.04 0.03 0.03 0.02 0.03 0.04 0.05 0.06 0.06 0.05 0.04 0.06 0.11 0.18 0.25 0.34 0.35 0.33 0.34 0.42 0.43 0.48 0.48 0.42 0.42 0.46 0.61 0.64 0.58 0.56 0.66 0.74 0.92 1.10 0.86 0.55
0.06 0.05 0.06 0.09 0.13 0.13 0.13 0.13 0.04 0.03 0.04 0.03 0.04 0.04 0.03 0.03 0.02 0.02 0.02 0.03 0.04 0.05 0.05 0.07 0.13 0.24 0.38 0.49 0.54 0.55 0.55 0.53 0.49 0.48 0.48 0.37 0.33 0.32 0.31 0.38 0.45 0.51 0.50 0.61 0.68 0.80 1.08 1.16 0.92
0.02 0.02 0.03 0.07 0.11 0.10 0.09 0.12 0.05 0.04 0.07 0.06 0.04 0.03 0.02 0.02 0.03 0.05 0.05 0.07 0.08 0.09 0.12 0.19 0.36 0.56 0.74 0.83 0.83 0.80 0.68 0.58 0.48 0.39 0.34 0.32 0.28 0.22 0.19 0.27 0.28 0.30 0.36 0.48 0.69 0.83 1.01 1.14 1.02
0.01 0.02 0.05 0.08 0.11 0.07 0.05 0.09 0.07 0.04 0.03 0.03 0.02 0.02 0.02 0.04 0.09 0.16 0.23 0.29 0.34 0.38 0.51 0.70 0.92 1.04 1.07 1.07 0.98 0.86 0.72 0.60 0.48 0.34 0.26 0.23 0.24 0.24 0.25 0.27 0.21 0.16 0.21 0.31 0.46 0.66 0.87 1.07 1.09
0.01 0.04 0.10 0.12 0.12 0.09 0.09 0.17 0.14 0.06 0.03 0.02 0.01 0.02 0.05 0.11 0.22 0.34 0.51 0.64 0.75 0.86 0.96 1.09 1.24 1.32 1.22 1.08 0.93 0.79 0.66 0.54 0.43 0.32 0.23 0.16 0.14 0.15 0.19 0.27 0.34 0.29 0.26 0.30 0.36 0.47 0.56 0.77 1.01
0.02 0.07 0.17 0.20 0.18 0.16 0.15 0.22 0.17 0.13 0.08 0.05 0.04 0.05 0.12 0.23 0.36 0.46 0.56 0.69 0.84 0.96 0.98 0.98 1.05 1.11 1.05 0.95 0.82 0.67 0.56 0.46 0.35 0.24 0.18 0.13 0.10 0.08 0.06 0.09 0.18 0.28 0.35 0.34 0.34 0.29 0.34 0.50 0.70
0.04 0.06 0.13 0.24 0.19 0.15 0.16 0.26 0.22 0.15 0.14 0.12 0.11 0.12 0.20 0.36 0.54 0.64 0.76 0.91 0.95 0.97 0.97 0.87 0.85 0.86 0.82 0.74 0.64 0.56 0.48 0.40 0.29 0.21 0.16 0.10 0.06 0.03 0.02 0.04 0.06 0.08 0.11 0.14 0.17 0.19 0.25 0.29 0.46
0.09 0.15 0.23 0.38 0.38 0.29 0.31 0.35 0.31 0.26 0.25 0.26 0.29 0.34 0.39 0.49 0.67 0.89 1.13 1.25 1.11 0.86 0.75 0.72 0.66 0.63 0.63 0.64 0.59 0.53 0.46 0.38 0.29 0.20 0.16 0.09 0.04 0.02 0.01 0.01 0.01 0.01 0.02 0.04 0.09 0.15 0.23 0.26 0.33
0.15 0.25 0.32 0.41 0.48 0.54 0.62 0.71 0.58 0.56 0.57 0.62 0.65 0.61 0.58 0.67 0.68 0.83 1.01 1.11 0.96 0.69 0.51 0.50 0.55 0.55 0.53 0.54 0.51 0.46 0.40 0.33 0.25 0.19 0.14 0.09 0.04 0.02 0.01 0.01 0.01 0.02 0.02 0.03 0.06 0.08 0.10 0.13 0.18
0.27 0.36 0.49 0.64 0.56 0.59 0.73 0.82 0.65 0.55 0.53 0.59 0.71 0.70 0.67 0.57 0.50 0.51 0.56 0.62 0.58 0.49 0.41 0.38 0.43 0.47 0.49 0.52 0.49 0.44 0.36 0.28 0.25 0.19 0.12 0.07 0.04 0.02 0.01 0.02 0.02 0.02 0.03 0.04 0.07 0.09 0.09 0.12 0.15

GEFSSGP_prec_meanprecacc_030.txt.gz
Total_Precipitation_Accumulation
0.00 0.02 0.04 0.09 0.28 0.12 0.00 0.00 0.00 0.00 0.00 0.00 0.00 0.00 0.00 0.00 0.03 0.20 0.04 0.00 0.00 0.00 0.01 0.03 0.08 0.09 0.08 0.07 0.06 0.13 0.13 0.06 0.05 0.07 0.07 0.04 0.04 0.06 0.05 0.05 0.03 0.02 0.02 0.03 0.12 0.18 0.16 0.18 0.25
0.00 0.01 0.05 0.21 0.26 0.03 0.00 0.00 0.00 0.00 0.00 0.00 0.00 0.00 0.00 0.00 0.00 0.01 0.00 0.00 0.00 0.00 0.00 0.03 0.06 0.11 0.11 0.08 0.11 0.24 0.23 0.14 0.10 0.08 0.07 0.04 0.03 0.08 0.15 0.14 0.04 0.02 0.02 0.03 0.09 0.15 0.13 0.15 0.24
0.00 0.01 0.07 0.24 0.11 0.01 0.00 0.00 0.00 0.00 0.00 0.00 0.00 0.00 0.00 0.00 0.00 0.00 0.00 0.00 0.00 0.00 0.02 0.11 0.14 0.12 0.10 0.12 0.22 0.36 0.31 0.25 0.16 0.08 0.05 0.04 0.04 0.07 0.14 0.10 0.05 0.01 0.01 0.03 0.07 0.11 0.11 0.11 0.14
0.00 0.02 0.13 0.21 0.06 0.00 0.00 0.00 0.00 0.00 0.00 0.00 0.00 0.00 0.00 0.00 0.00 0.00 0.00 0.00 0.00 0.00 0.02 0.09 0.14 0.12 0.13 0.21 0.32 0.35 0.37 0.41 0.26 0.11 0.05 0.07 0.08 0.09 0.12 0.11 0.05 0.02 0.01 0.01 0.03 0.06 0.10 0.10 0.11
0.03 0.08 0.26 0.28 0.04 0.00 0.00 0.00 0.00 0.00 0.00 0.00 0.00 0.00 0.00 0.00 0.00 0.00 0.00 0.00 0.00 0.00 0.02 0.04 0.14 0.14 0.16 0.25 0.33 0.31 0.36 0.41 0.29 0.11 0.10 0.12 0.07 0.07 0.10 0.13 0.05 0.02 0.01 0.01 0.01 0.04 0.06 0.08 0.11
0.05 0.15 0.37 0.38 0.06 0.00 0.00 0.00 0.00 0.00 0.00 0.00 0.00 0.00 0.00 0.00 0.00 0.00 0.00 0.00 0.00 0.00 0.01 0.03 0.09 0.11 0.15 0.25 0.34 0.28 0.30 0.32 0.22 0.13 0.13 0.09 0.08 0.08 0.11 0.08 0.04 0.01 0.00 0.00 0.01 0.04 0.05 0.06 0.09
0.05 0.14 0.33 0.23 0.02 0.00 0.00 0.00 0.00 0.00 0.00 0.00 0.00 0.00 0.00 0.00 0.00 0.00 0.01 0.02 0.02 0.02 0.01 0.02 0.02 0.03 0.07 0.17 0.28 0.32 0.31 0.28 0.15 0.12 0.10 0.10 0.09 0.07 0.05 0.04 0.02 0.00 0.00 0.00 0.01 0.02 0.02 0.02 0.04
0.02 0.05 0.16 0.12 0.03 0.01 0.00 0.00 0.00 0.00 0.00 0.00 0.00 0.00 0.00 0.00 0.00 0.01 0.02 0.06 0.06 0.03 0.01 0.01 0.01 0.02 0.05 0.07 0.16 0.29 0.35 0.29 0.18 0.13 0.12 0.10 0.07 0.04 0.03 0.01 0.00 0.00 0.00 0.00 0.00 0.01 0.01 0.01 0.01
0.03 0.04 0.10 0.14 0.06 0.02 0.01 0.00 0.00 0.00 0.00 0.00 0.00 0.00 0.00 0.00 0.00 0.00 0.01 0.04 0.06 0.04 0.01 0.01 0.01 0.01 0.07 0.14 0.13 0.26 0.35 0.30 0.17 0.12 0.10 0.10 0.09 0.09 0.08 0.01 0.00 0.00 0.00 0.00 0.01 0.01 0.01 0.00 0.00
0.06 0.07 0.09 0.19 0.11 0.04 0.01 0.00 0.00 0.00 0.00 0.00 0.00 0.00 0.00 0.00 0.00 0.00 0.00 0.01 0.03 0.04 0.05 0.03 0.01 0.01 0.04 0.13 0.35 0.48 0.37 0.25 0.17 0.15 0.08 0.16 0.20 0.17 0.10 0.01 0.00 0.01 0.00 0.00 0.01 0.01 0.00 0.00 0.00
0.05 0.07 0.07 0.09 0.09 0.04 0.01 0.01 0.01 0.00 0.01 0.01 0.00 0.00 0.00 0.00 0.00 0.00 0.00 0.00 0.00 0.01 0.03 0.05 0.02 0.00 0.01 0.13 0.36 0.52 0.57 0.48 0.43 0.24 0.11 0.16 0.10 0.04 0.03 0.01 0.02 0.03 0.00 0.00 0.00 0.00 0.00 0.00 0.00
0.07 0.05 0.03 0.03 0.04 0.03 0.01 0.01 0.01 0.01 0.01 0.01 0.00 0.00 0.00 0.00 0.00 0.00 0.00 0.00 0.00 0.00 0.00 0.02 0.03 0.01 0.00 0.03 0.09 0.19 0.24 0.25 0.27 0.16 0.05 0.04 0.03 0.01 0.01 0.00 0.01 0.01 0.00 0.00 0.00 0.00 0.00 0.00 0.00
0.08 0.04 0.03 0.03 0.03 0.04 0.02 0.01 0.01 0.01 0.01 0.00 0.00 0.00 0.00 0.00 0.01 0.01 0.00 0.00 0.00 0.00 0.00 0.00 0.01 0.01 0.01 0.01 0.03 0.04 0.09 0.11 0.09 0.10 0.08 0.02 0.01 0.01 0.00 0.00 0.00 0.00 0.00 0.00 0.00 0.00 0.00 0.00 0.00
0.03 0.03 0.04 0.04 0.04 0.02 0.01 0.01 0.01 0.01 0.01 0.00 0.00 0.00 0.01 0.02 0.02 0.02 0.01 0.01 0.01 0.00 0.00 0.00 0.00 0.01 0.00 0.00 0.00 0.01 0.05 0.05 0.04 0.02 0.04 0.02 0.00 0.00 0.00 0.00 0.00 0.00 0.00 0.00 0.00 0.00 0.00 0.00 0.00
0.01 0.02 0.02 0.01 0.01 0.01 0.01 0.01 0.01 0.02 0.02 0.01 0.01 0.00 0.01 0.02 0.03 0.03 0.03 0.01 0.01 0.00 0.00 0.00 0.00 0.01 0.00 0.01 0.01 0.00 0.02 0.03 0.03 0.02 0.01 0.01 0.01 0.00 0.00 0.00 0.00 0.00 0.00 0.00 0.00 0.00 0.00 0.00 0.00
0.00 0.00 0.01 0.02 0.01 0.01 0.01 0.03 0.04 0.05 0.04 0.04 0.04 0.02 0.02 0.02 0.04 0.07 0.07 0.03 0.01 0.01 0.00 0.00 0.00 0.00 0.00 0.01 0.01 0.02 0.02 0.03 0.04 0.03 0.02 0.02 0.02 0.02 0.03 0.03 0.03 0.01 0.00 0.00 0.00 0.00 0.00 0.00 0.00
0.01 0.02 0.03 0.04 0.04 0.04 0.04 0.05 0.06 0.08 0.07 0.08 0.08 0.05 0.03 0.04 0.06 0.09 0.10 0.08 0.04 0.02 0.01 0.01 0.01 0.01 0.01 0.02 0.04 0.06 0.10 0.15 0.12 0.11 0.07 0.08 0.10 0.12 0.14 0.15 0.14 0.07 0.03 0.01 0.01 0.01 0.00 0.00 0.01
0.10 0.06 0.06 0.06 0.06 0.05 0.05 0.06 0.07 0.07 0.06 0.05 0.06 0.05 0.04 0.05 0.08 0.13 0.14 0.12 0.08 0.05 0.03 0.02 0.02 0.03 0.05 0.09 0.12 0.24 0.32 0.32 0.34 0.30 0.18 0.22 0.31 0.36 0.41 0.39 0.37 0.27 0.17 0.13 0.09 0.08 0.06 0.04 0.02
0.06 0.05 0.05 0.07 0.08 0.07 0.06 0.05 0.06 0.07 0.06 0.05 0.05 0.04 0.04 0.04 0.06 0.09 0.11 0.13 0.12 0.07 0.03 0.02 0.02 0.04 0.10 0.14 0.20 0.38 0.59 0.55 0.58 0.52 0.34 0.37 0.53 0.70 0.79 0.75 0.67 0.56 0.48 0.39 0.35 0.42 0.41 0.25 0.07
0.05 0.07 0.06 0.05 0.05 0.05 0.05 0.04 0.04 0.05 0.06 0.06 0.05 0.04 0.04 0.03 0.03 0.04 0.06 0.09 0.09 0.08 0.04 0.04 0.05 0.08 0.12 0.18 0.27 0.37 0.44 0.33 0.39 0.45 0.45 0.41 0.45 0.62 0.74 0.87 0.82 0.69 0.66 0.71 0.74 0.88 0.91 0.60 0.26
0.06 0.09 0.10 0.10 0.06 0.04 0.04 0.04 0.02 0.03 0.04 0.04 0.05 0.05 0.04 0.03 0.02 0.03 0.04 0.05 0.06 0.06 0.06 0.06 0.08 0.14 0.22 0.32 0.46 0.54 0.57 0.56 0.60 0.57 0.61 0.58 0.52 0.52 0.56 0.73 0.76 0.67 0.66 0.77 0.88 1.10 1.31 1.04 0.66
0.06 0.05 0.06 0.09 0.13 0.13 0.14 0.15 0.06 0.05 0.08 0.06 0.05 0.04 0.04 0.03 0.02 0.02 0.02 0.04 0.05 0.05 0.05 0.08 0.14 0.27 0.43 0.58 0.74 0.88 0.93 0.85 0.70 0.65 0.60 0.46 0.43 0.44 0.44 0.50 0.57 0.62 0.61 0.75 0.82 0.89 1.21 1.31 1.03
0.02 0.02 0.03 0.07 0.12 0.10 0.09 0.13 0.09 0.12 0.17 0.16 0.12 0.07 0.03 0.03 0.03 0.05 0.06 0.08 0.09 0.10 0.12 0.19 0.38 0.61 0.83 0.99 1.15 1.32 1.21 1.00 0.78 0.61 0.51 0.47 0.41 0.36 0.36 0.43 0.40 0.41 0.48 0.61 0.80 0.94 1.15 1.27 1.14
0.01 0.02 0.05 0.08 0.11 0.07 0.05 0.10 0.16 0.18 0.14 0.12 0.10 0.07 0.05 0.06 0.10 0.16 0.23 0.30 0.35 0.39 0.51 0.72 0.95 1.11 1.18 1.27 1.33 1.37 1.27 1.12 0.93 0.68 0.52 0.46 0.43 0.42 0.46 0.47 0.37 0.31 0.36 0.45 0.61 0.78 0.98 1.19 1.21
0.01 0.04 0.10 0.12 0.14 0.11 0.11 0.23 0.29 0.20 0.12 0.08 0.06 0.05 0.07 0.13 0.23 0.35 0.52 0.66 0.77 0.88 0.98 1.12 1.28 1.39 1.32 1.27 1.26 1.25 1.17 1.06 0.91 0.73 0.56 0.43 0.37 0.35 0.39 0.45 0.50 0.44 0.39 0.42 0.46 0.55 0.63 0.84 1.09
0.02 0.07 0.18 0.22 0.20 0.22 0.24 0.40 0.40 0.28 0.17 0.11 0.07 0.07 0.14 0.25 0.39 0.49 0.59 0.73 0.88 0.98 1.01 1.02 1.11 1.18 1.16 1.12 1.07 1.02 0.98 0.89 0.76 0.59 0.49 0.42 0.36 0.31 0.24 0.24 0.31 0.40 0.45 0.40 0.37 0.32 0.37 0.53 0.73
0.04 0.06 0.14 0.26 0.22 0.20 0.29 0.50 0.44 0.27 0.22 0.16 0.13 0.15 0.23 0.40 0.59 0.71 0.83 0.97 1.00 1.01 1.01 0.93 0.92 0.95 0.96 0.90 0.84 0.80 0.75 0.69 0.60 0.52 0.48 0.41 0.34 0.26 0.21 0.21 0.19 0.19 0.19 0.18 0.19 0.21 0.26 0.30 0.48
0.09 0.16 0.24 0.42 0.44 0.38 0.44 0.52 0.46 0.38 0.34 0.33 0.37 0.43 0.46 0.57 0.77 1.00 1.24 1.34 1.18 0.94 0.82 0.79 0.74 0.74 0.78 0.80 0.77 0.72 0.66 0.59 0.52 0.46 0.44 0.36 0.28 0.21 0.18 0.15 0.11 0.08 0.06 0.07 0.10 0.16 0.24 0.27 0.34
0.15 0.26 0.34 0.45 0.54 0.65 0.80 0.88 0.74 0.75 0.75 0.78 0.84 0.86 0.84 0.92 0.89 1.00 1.17 1.27 1.09 0.81 0.62 0.61 0.66 0.67 0.67 0.69 0.68 0.65 0.58 0.50 0.44 0.40 0.37 0.32 0.24 0.19 0.13 0.09 0.07 0.07 0.05 0.05 0.08 0.09 0.11 0.14 0.19
0.27 0.38 0.51 0.69 0.63 0.68 0.86 0.99 0.88 0.84 0.83 0.89 1.02 1.07 1.03 0.92 0.82 0.82 0.85 0.88 0.84 0.68 0.56 0.53 0.59 0.62 0.63 0.68 0.68 0.64 0.54 0.46 0.43 0.38 0.33 0.27 0.20 0.14 0.10 0.10 0.07 0.05 0.05 0.05 0.08 0.09 0.10 0.12 0.15

GEFSSGP_prec_meanprecacc_036.txt.gz
Total_Precipitation_Accumulation
0.01 0.04 0.09 0.15 0.32 0.13 0.01 0.00 0.00 0.00 0.00 0.00 0.00 0.00 0.00 0.00 0.04 0.23 0.05 0.00 0.00 0.00 0.01 0.03 0.08 0.09 0.08 0.07 0.06 0.13 0.14 0.07 0.06 0.08 0.07 0.04 0.04 0.06 0.06 0.05 0.03 0.02 0.02 0.04 0.12 0.18 0.17 0.18 0.25
0.01 0.05 0.10 0.30 0.30 0.03 0.00 0.00 0.00 0.00 0.00 0.00 0.00 0.00 0.00 0.00 0.00 0.01 0.00 0.00 0.00 0.00 0.00 0.03 0.06 0.12 0.11 0.08 0.11 0.24 0.23 0.14 0.10 0.09 0.07 0.04 0.03 0.08 0.15 0.14 0.04 0.02 0.02 0.03 0.09 0.16 0.14 0.16 0.25
0.00 0.03 0.12 0.33 0.13 0.01 0.00 0.00 0.00 0.00 0.00 0.00 0.00 0.00 0.00 0.00 0.00 0.00 0.00 0.00 0.00 0.00 0.02 0.11 0.14 0.12 0.10 0.13 0.22 0.36 0.32 0.26 0.17 0.08 0.05 0.04 0.04 0.07 0.14 0.10 0.05 0.02 0.02 0.03 0.08 0.13 0.12 0.13 0.16
0.01 0.04 0.20 0.25 0.06 0.01 0.00 0.00 0.00 0.00 0.00 0.00 0.00 0.00 0.00 0.00 0.00 0.00 0.00 0.00 0.00 0.00 0.02 0.09 0.14 0.12 0.13 0.21 0.32 0.35 0.38 0.41 0.26 0.11 0.05 0.08 0.08 0.09 0.12 0.11 0.05 0.02 0.02 0.02 0.04 0.07 0.11 0.12 0.13
0.03 0.12 0.32 0.31 0.05 0.00 0.00 0.00 0.00 0.00 0.00 0.00 0.00 0.00 0.00 0.00 0.00 0.00 0.00 0.00 0.00 0.00 0.02 0.04 0.14 0.14 0.16 0.25 0.33 0.32 0.37 0.42 0.29 0.11 0.10 0.12 0.07 0.07 0.10 0.13 0.05 0.02 0.01 0.01 0.02 0.05 0.08 0.10 0.13
0.06 0.23 0.47 0.42 0.07 0.00 0.00 0.00 0.00 0.00 0.00 0.00 0.00 0.00 0.00 0.00 0.00 0.00 0.00 0.00 0.00 0.00 0.01 0.03 0.09 0.11 0.15 0.25 0.35 0.29 0.30 0.33 0.23 0.13 0.13 0.10 0.08 0.08 0.11 0.09 0.04 0.01 0.00 0.00 0.01 0.05 0.06 0.08 0.10
0.06 0.24 0.47 0.29 0.03 0.01 0.00 0.00 0.00 0.00 0.00 0.00 0.00 0.00 0.00 0.00 0.00 0.00 0.01 0.02 0.03 0.02 0.01 0.02 0.02 0.03 0.07 0.17 0.29 0.32 0.32 0.29 0.16 0.13 0.10 0.10 0.09 0.07 0.06 0.04 0.02 0.00 0.00 0.00 0.01 0.03 0.03 0.03 0.05
0.02 0.10 0.25 0.17 0.06 0.03 0.00 0.00 0.00 0.00 0.00 0.00 0.00 0.00 0.00 0.00 0.00 0.01 0.03 0.06 0.06 0.03 0.01 0.01 0.01 0.02 0.05 0.07 0.16 0.30 0.35 0.30 0.19 0.14 0.12 0.10 0.07 0.04 0.03 0.01 0.00 0.00 0.00 0.00 0.00 0.01 0.01 0.01 0.02
0.04 0.08 0.17 0.21 0.12 0.06 0.02 0.01 0.00 0.00 0.00 0.00 0.00 0.00 0.00 0.00 0.00 0.00 0.01 0.05 0.07 0.04 0.01 0.01 0.01 0.01 0.07 0.14 0.13 0.26 0.35 0.31 0.18 0.13 0.11 0.10 0.09 0.09 0.08 0.01 0.00 0.00 0.00 0.00 0.01 0.01 0.01 0.00 0.00
0.07 0.10 0.16 0.32 0.24 0.12 0.04 0.02 0.01 0.01 0.01 0.00 0.01 0.01 0.01 0.00 0.00 0.00 0.00 0.01 0.03 0.04 0.05 0.03 0.01 0.01 0.04 0.14 0.36 0.48 0.37 0.26 0.17 0.15 0.08 0.17 0.20 0.17 0.10 0.01 0.00 0.01 0.00 0.00 0.01 0.01 0.00 0.00 0.00
0.06 0.08 0.12 0.21 0.21 0.09 0.04 0.02 0.02 0.02 0.02 0.02 0.01 0.01 0.01 0.00 0.00 0.00 0.00 0.00 0.00 0.01 0.03 0.05 0.02 0.01 0.02 0.14 0.36 0.52 0.57 0.48 0.43 0.25 0.11 0.16 0.11 0.04 0.03 0.01 0.02 0.03 0.00 0.00 0.00 0.00 0.00 0.00 0.00
0.08 0.05 0.05 0.08 0.08 0.05 0.03 0.02 0.02 0.02 0.02 0.02 0.01 0.01 0.01 0.02 0.01 0.00 0.00 0.00 0.00 0.00 0.00 0.03 0.03 0.01 0.01 0.03 0.09 0.19 0.24 0.25 0.27 0.16 0.05 0.04 0.04 0.02 0.01 0.00 0.01 0.01 0.00 0.00 0.00 0.00 0.00 0.00 0.00
0.08 0.04 0.03 0.04 0.04 0.04 0.02 0.01 0.02 0.03 0.02 0.01 0.01 0.02 0.04 0.05 0.04 0.03 0.02 0.01 0.01 0.00 0.01 0.01 0.02 0.02 0.01 0.03 0.04 0.04 0.09 0.11 0.09 0.10 0.08 0.03 0.02 0.01 0.01 0.00 0.00 0.00 0.00 0.00 0.00 0.00 0.00 0.00 0.00
0.03 0.03 0.04 0.05 0.04 0.02 0.02 0.02 0.03 0.04 0.04 0.03 0.03 0.05 0.09 0.12 0.13 0.11 0.08 0.06 0.04 0.03 0.02 0.03 0.02 0.01 0.00 0.01 0.01 0.01 0.05 0.06 0.05 0.03 0.04 0.04 0.02 0.01 0.01 0.00 0.00 0.00 0.00 0.00 0.00 0.00 0.00 0.00 0.00
0.01 0.02 0.02 0.02 0.01 0.02 0.03 0.04 0.05 0.07 0.07 0.06 0.06 0.07 0.11 0.15 0.17 0.18 0.15 0.12 0.10 0.09 0.06 0.04 0.03 0.02 0.01 0.01 0.01 0.01 0.02 0.03 0.03 0.02 0.02 0.03 0.02 0.02 0.01 0.01 0.00 0.00 0.00 0.00 0.00 0.00 0.00 0.00 0.00
0.00 0.00 0.01 0.02 0.03 0.06 0.06 0.08 0.10 0.11 0.10 0.11 0.11 0.11 0.12 0.15 0.18 0.21 0.21 0.17 0.15 0.14 0.12 0.11 0.08 0.06 0.05 0.04 0.03 0.03 0.03 0.05 0.04 0.04 0.02 0.03 0.04 0.04 0.04 0.04 0.03 0.01 0.00 0.00 0.00 0.00 0.00 0.00 0.00
0.01 0.02 0.03 0.05 0.07 0.09 0.10 0.12 0.14 0.15 0.14 0.15 0.16 0.13 0.11 0.12 0.16 0.20 0.21 0.21 0.21 0.20 0.18 0.17 0.17 0.15 0.12 0.10 0.09 0.10 0.13 0.17 0.14 0.12 0.08 0.10 0.12 0.14 0.15 0.16 0.14 0.07 0.03 0.02 0.01 0.01 0.00 0.00 0.01
0.10 0.06 0.06 0.07 0.07 0.07 0.09 0.11 0.13 0.14 0.12 0.12 0.12 0.12 0.10 0.09 0.13 0.18 0.20 0.20 0.20 0.20 0.21 0.22 0.22 0.21 0.20 0.23 0.26 0.35 0.40 0.37 0.39 0.34 0.22 0.25 0.35 0.40 0.44 0.40 0.37 0.27 0.17 0.13 0.09 0.08 0.06 0.04 0.02
0.06 0.05 0.05 0.07 0.09 0.08 0.09 0.10 0.12 0.12 0.11 0.10 0.10 0.10 0.09 0.07 0.09 0.11 0.15 0.17 0.17 0.16 0.18 0.22 0.22 0.25 0.29 0.32 0.39 0.55 0.74 0.68 0.69 0.61 0.43 0.44 0.58 0.75 0.84 0.78 0.70 0.58 0.49 0.40 0.35 0.43 0.41 0.26 0.08
0.05 0.07 0.06 0.05 0.05 0.06 0.07 0.07 0.08 0.10 0.11 0.11 0.10 0.09 0.07 0.06 0.05 0.05 0.08 0.10 0.12 0.13 0.14 0.18 0.25 0.32 0.37 0.43 0.55 0.64 0.72 0.61 0.63 0.65 0.63 0.57 0.56 0.70 0.81 0.93 0.88 0.73 0.69 0.73 0.76 0.90 0.93 0.63 0.29
0.06 0.09 0.11 0.11 0.07 0.04 0.05 0.07 0.06 0.08 0.10 0.09 0.10 0.09 0.07 0.05 0.03 0.04 0.04 0.06 0.07 0.08 0.09 0.12 0.18 0.28 0.39 0.53 0.74 0.91 1.01 1.03 1.04 0.91 0.88 0.80 0.69 0.67 0.69 0.85 0.86 0.75 0.72 0.82 0.92 1.14 1.35 1.10 0.71
0.06 0.05 0.06 0.09 0.14 0.14 0.14 0.17 0.11 0.13 0.16 0.15 0.15 0.13 0.10 0.08 0.06 0.04 0.04 0.05 0.05 0.06 0.06 0.10 0.18 0.32 0.51 0.71 0.95 1.18 1.35 1.34 1.18 1.09 1.00 0.80 0.71 0.67 0.65 0.69 0.75 0.78 0.74 0.86 0.90 0.96 1.29 1.39 1.11
0.02 0.02 0.03 0.07 0.12 0.11 0.10 0.15 0.14 0.20 0.28 0.29 0.26 0.22 0.17 0.13 0.11 0.09 0.08 0.10 0.10 0.10 0.13 0.20 0.38 0.62 0.85 1.06 1.29 1.56 1.56 1.43 1.28 1.17 1.06 0.97 0.87 0.77 0.70 0.73 0.68 0.65 0.67 0.76 0.95 1.08 1.28 1.39 1.26
0.01 0.02 0.05 0.08 0.11 0.07 0.06 0.12 0.22 0.27 0.30 0.34 0.34 0.27 0.20 0.15 0.18 0.23 0.27 0.32 0.35 0.39 0.52 0.72 0.95 1.11 1.18 1.30 1.41 1.54 1.54 1.55 1.46 1.25 1.10 1.02 0.96 0.91 0.87 0.81 0.65 0.55 0.57 0.65 0.80 0.97 1.15 1.34 1.37
0.01 0.04 0.10 0.12 0.14 0.12 0.12 0.27 0.37 0.32 0.27 0.26 0.26 0.22 0.17 0.20 0.28 0.40 0.54 0.67 0.78 0.89 0.99 1.12 1.29 1.39 1.32 1.29 1.31 1.35 1.36 1.35 1.34 1.26 1.11 0.99 0.93 0.90 0.85 0.81 0.79 0.70 0.62 0.64 0.70 0.81 0.84 0.99 1.22
0.02 0.07 0.18 0.22 0.21 0.23 0.27 0.47 0.51 0.40 0.29 0.20 0.14 0.13 0.21 0.31 0.44 0.54 0.63 0.75 0.89 0.99 1.02 1.03 1.12 1.19 1.17 1.13 1.11 1.08 1.08 1.07 1.00 0.91 0.88 0.88 0.88 0.84 0.74 0.65 0.65 0.68 0.67 0.58 0.54 0.49 0.51 0.64 0.83
0.04 0.06 0.14 0.27 0.23 0.23 0.35 0.60 0.56 0.36 0.30 0.23 0.18 0.21 0.33 0.50 0.69 0.80 0.88 1.00 1.02 1.03 1.03 0.94 0.93 0.97 0.98 0.93 0.87 0.84 0.83 0.82 0.77 0.72 0.72 0.68 0.65 0.58 0.52 0.50 0.46 0.42 0.38 0.32 0.32 0.33 0.37 0.40 0.56
0.09 0.16 0.24 0.42 0.46 0.45 0.52 0.62 0.56 0.44 0.41 0.42 0.47 0.55 0.60 0.71 0.93 1.17 1.35 1.43 1.25 0.99 0.86 0.82 0.77 0.77 0.81 0.83 0.80 0.76 0.72 0.67 0.63 0.61 0.62 0.57 0.48 0.40 0.34 0.29 0.24 0.20 0.17 0.16 0.20 0.26 0.32 0.34 0.40
0.15 0.26 0.34 0.46 0.56 0.69 0.86 0.96 0.82 0.83 0.84 0.90 1.01 1.03 1.02 1.12 1.09 1.21 1.36 1.44 1.24 0.90 0.69 0.68 0.72 0.72 0.70 0.72 0.72 0.69 0.64 0.56 0.51 0.51 0.53 0.51 0.45 0.38 0.30 0.24 0.22 0.22 0.18 0.15 0.17 0.17 0.16 0.18 0.22
0.27 0.38 0.52 0.69 0.63 0.69 0.89 1.05 0.94 0.93 0.94 1.02 1.19 1.24 1.21 1.12 1.01 0.99 1.02 1.04 1.01 0.82 0.65 0.61 0.66 0.68 0.68 0.72 0.72 0.68 0.59 0.52 0.50 0.45 0.42 0.37 0.31 0.28 0.25 0.24 0.20 0.18 0.20 0.18 0.19 0.18 0.15 0.15 0.17

GEFSSGP_prec_meanprecacc_042.txt.gz
Total_Precipitation_Accumulation
0.01 0.05 0.10 0.17 0.33 0.13 0.01 0.00 0.00 0.00 0.00 0.00 0.00 0.00 0.00 0.00 0.04 0.23 0.05 0.00 0.00 0.00 0.01 0.04 0.09 0.10 0.09 0.08 0.06 0.13 0.14 0.07 0.06 0.08 0.07 0.05 0.04 0.06 0.06 0.05 0.03 0.02 0.02 0.04 0.12 0.19 0.18 0.20 0.27
0.01 0.06 0.11 0.31 0.30 0.03 0.00 0.00 0.00 0.00 0.00 0.00 0.00 0.00 0.00 0.00 0.00 0.01 0.00 0.00 0.00 0.00 0.00 0.03 0.07 0.12 0.11 0.09 0.11 0.24 0.23 0.15 0.10 0.09 0.07 0.04 0.03 0.08 0.15 0.14 0.04 0.02 0.02 0.03 0.10 0.17 0.15 0.18 0.27
0.01 0.03 0.14 0.33 0.13 0.01 0.00 0.00 0.00 0.00 0.00 0.00 0.00 0.00 0.00 0.00 0.00 0.00 0.00 0.00 0.00 0.00 0.02 0.11 0.15 0.12 0.11 0.13 0.23 0.36 0.32 0.26 0.17 0.09 0.05 0.04 0.04 0.07 0.14 0.10 0.05 0.02 0.02 0.04 0.09 0.14 0.13 0.14 0.17
0.02 0.05 0.21 0.26 0.06 0.01 0.00 0.00 0.00 0.00 0.00 0.00 0.00 0.00 0.00 0.00 0.00 0.00 0.00 0.00 0.00 0.00 0.02 0.09 0.15 0.12 0.13 0.21 0.33 0.36 0.38 0.42 0.26 0.11 0.05 0.08 0.08 0.09 0.12 0.11 0.05 0.02 0.02 0.02 0.04 0.08 0.12 0.13 0.14
0.04 0.13 0.33 0.32 0.05 0.00 0.00 0.00 0.00 0.00 0.00 0.00 0.00 0.00 0.00 0.00 0.00 0.00 0.00 0.00 0.00 0.00 0.02 0.04 0.14 0.14 0.16 0.25 0.33 0.32 0.37 0.42 0.29 0.11 0.10 0.12 0.07 0.07 0.10 0.13 0.05 0.02 0.01 0.01 0.02 0.05 0.08 0.11 0.14
0.06 0.23 0.48 0.42 0.08 0.00 0.00 0.00 0.00 0.00 0.00 0.00 0.00 0.00 0.00 0.00 0.00 0.00 0.00 0.00 0.00 0.00 0.01 0.03 0.10 0.11 0.15 0.25 0.35 0.29 0.31 0.33 0.23 0.13 0.13 0.10 0.08 0.08 0.11 0.09 0.04 0.01 0.00 0.00 0.01 0.05 0.07 0.08 0.11
0.07 0.25 0.47 0.29 0.04 0.01 0.00 0.00 0.00 0.00 0.00 0.00 0.00 0.00 0.00 0.00 0.00 0.00 0.01 0.02 0.03 0.02 0.01 0.02 0.03 0.04 0.08 0.18 0.29 0.33 0.33 0.29 0.16 0.13 0.10 0.10 0.10 0.07 0.06 0.04 0.02 0.00 0.00 0.00 0.01 0.03 0.04 0.04 0.06
0.02 0.11 0.25 0.18 0.07 0.03 0.01 0.00 0.00 0.00 0.00 0.00 0.00 0.00 0.00 0.00 0.00 0.01 0.03 0.06 0.06 0.03 0.01 0.01 0.01 0.02 0.05 0.07 0.16 0.31 0.36 0.31 0.19 0.14 0.12 0.10 0.07 0.05 0.03 0.01 0.00 0.00 0.00 0.00 0.00 0.01 0.01 0.02 0.03
0.04 0.09 0.18 0.22 0.13 0.07 0.02 0.01 0.01 0.01 0.00 0.01 0.00 0.00 0.00 0.00 0.00 0.01 0.02 0.05 0.07 0.04 0.01 0.01 0.01 0.01 0.08 0.14 0.13 0.27 0.36 0.32 0.18 0.13 0.11 0.11 0.09 0.09 0.08 0.01 0.00 0.00 0.00 0.00 0.01 0.01 0.01 0.01 0.01
0.07 0.11 0.18 0.33 0.26 0.13 0.06 0.03 0.02 0.02 0.01 0.01 0.01 0.01 0.01 0.00 0.01 0.01 0.01 0.02 0.03 0.04 0.05 0.03 0.01 0.01 0.04 0.14 0.36 0.48 0.37 0.26 0.17 0.15 0.08 0.17 0.20 0.17 0.10 0.01 0.00 0.01 0.00 0.00 0.01 0.01 0.00 0.00 0.00
0.06 0.09 0.13 0.21 0.22 0.10 0.05 0.04 0.04 0.04 0.03 0.03 0.02 0.02 0.02 0.02 0.04 0.06 0.06 0.05 0.04 0.04 0.04 0.06 0.02 0.01 0.02 0.14 0.36 0.53 0.57 0.48 0.43 0.25 0.11 0.16 0.11 0.04 0.03 0.01 0.02 0.03 0.00 0.00 0.00 0.00 0.00 0.00 0.00
0.08 0.06 0.05 0.09 0.09 0.06 0.05 0.05 0.05 0.04 0.04 0.04 0.03 0.03 0.03 0.05 0.07 0.08 0.12 0.13 0.13 0.12 0.09 0.08 0.06 0.02 0.01 0.03 0.10 0.20 0.24 0.25 0.27 0.16 0.05 0.04 0.04 0.02 0.01 0.00 0.01 0.01 0.00 0.00 0.00 0.00 0.00 0.00 0.00
0.09 0.05 0.03 0.05 0.05 0.06 0.05 0.04 0.04 0.05 0.05 0.05 0.06 0.09 0.12 0.14 0.13 0.12 0.12 0.13 0.16 0.20 0.23 0.21 0.13 0.07 0.04 0.05 0.06 0.05 0.10 0.12 0.10 0.11 0.08 0.03 0.02 0.02 0.01 0.00 0.00 0.00 0.00 0.00 0.00 0.00 0.00 0.00 0.00
0.04 0.04 0.05 0.07 0.06 0.04 0.05 0.05 0.06 0.07 0.09 0.09 0.12 0.18 0.25 0.31 0.30 0.29 0.25 0.24 0.23 0.23 0.27 0.31 0.24 0.18 0.12 0.09 0.07 0.08 0.10 0.09 0.07 0.05 0.05 0.04 0.02 0.01 0.01 0.01 0.00 0.00 0.00 0.00 0.00 0.00 0.00 0.00 0.00
0.02 0.02 0.03 0.03 0.03 0.04 0.06 0.08 0.09 0.10 0.12 0.15 0.19 0.23 0.29 0.37 0.41 0.43 0.40 0.36 0.33 0.32 0.32 0.34 0.33 0.31 0.26 0.23 0.19 0.16 0.17 0.14 0.11 0.07 0.04 0.04 0.03 0.02 0.02 0.03 0.01 0.01 0.00 0.00 0.00 0.00 0.00 0.00 0.00
0.01 0.01 0.02 0.03 0.04 0.08 0.09 0.11 0.12 0.15 0.16 0.18 0.22 0.24 0.29 0.32 0.36 0.41 0.43 0.39 0.37 0.35 0.34 0.38 0.37 0.37 0.39 0.38 0.38 0.35 0.30 0.25 0.18 0.13 0.09 0.07 0.07 0.07 0.08 0.08 0.05 0.03 0.02 0.01 0.00 0.00 0.00 0.00 0.00
0.01 0.02 0.04 0.05 0.07 0.10 0.12 0.15 0.16 0.18 0.18 0.19 0.22 0.21 0.21 0.24 0.28 0.33 0.35 0.37 0.38 0.36 0.35 0.37 0.39 0.39 0.46 0.49 0.51 0.53 0.52 0.47 0.35 0.28 0.20 0.18 0.20 0.21 0.22 0.23 0.20 0.12 0.05 0.03 0.02 0.01 0.00 0.00 0.01
0.10 0.06 0.06 0.07 0.07 0.07 0.10 0.13 0.14 0.15 0.14 0.15 0.16 0.17 0.17 0.18 0.22 0.26 0.27 0.28 0.29 0.30 0.32 0.35 0.39 0.40 0.45 0.58 0.65 0.74 0.77 0.70 0.68 0.58 0.42 0.42 0.48 0.52 0.55 0.51 0.48 0.35 0.21 0.15 0.10 0.09 0.07 0.04 0.02
0.06 0.05 0.05 0.07 0.09 0.09 0.09 0.11 0.13 0.13 0.12 0.11 0.11 0.11 0.12 0.12 0.13 0.15 0.19 0.21 0.22 0.22 0.24 0.30 0.33 0.40 0.47 0.53 0.66 0.83 1.01 1.00 1.07 1.02 0.79 0.70 0.78 0.93 1.01 0.93 0.84 0.68 0.55 0.44 0.38 0.45 0.43 0.27 0.08
0.05 0.07 0.06 0.05 0.05 0.06 0.07 0.08 0.08 0.10 0.11 0.11 0.11 0.10 0.09 0.08 0.07 0.07 0.09 0.12 0.14 0.15 0.16 0.21 0.29 0.38 0.46 0.54 0.70 0.85 0.96 0.89 0.98 1.10 1.02 0.87 0.81 0.92 1.01 1.12 1.06 0.89 0.80 0.81 0.81 0.94 0.95 0.64 0.30
0.06 0.09 0.11 0.11 0.07 0.05 0.06 0.07 0.07 0.09 0.11 0.11 0.12 0.11 0.09 0.08 0.06 0.06 0.06 0.07 0.09 0.10 0.11 0.14 0.20 0.30 0.43 0.58 0.81 1.01 1.18 1.23 1.25 1.14 1.17 1.12 0.98 0.94 0.91 1.05 1.08 0.98 0.92 0.97 1.03 1.21 1.40 1.14 0.76
0.06 0.05 0.06 0.09 0.14 0.14 0.15 0.18 0.12 0.14 0.18 0.18 0.17 0.15 0.13 0.11 0.08 0.06 0.05 0.06 0.06 0.06 0.07 0.10 0.18 0.32 0.53 0.73 0.98 1.23 1.42 1.43 1.29 1.30 1.28 1.10 0.97 0.92 0.89 0.93 1.01 1.05 0.99 1.06 1.06 1.08 1.39 1.49 1.20
0.02 0.02 0.03 0.07 0.12 0.11 0.10 0.16 0.14 0.21 0.30 0.32 0.29 0.25 0.19 0.15 0.13 0.11 0.09 0.11 0.11 0.11 0.13 0.20 0.39 0.62 0.86 1.06 1.30 1.58 1.59 1.47 1.37 1.33 1.29 1.20 1.12 1.05 1.00 1.04 1.01 0.97 0.97 1.03 1.19 1.28 1.46 1.56 1.42
0.01 0.02 0.05 0.08 0.11 0.07 0.06 0.13 0.23 0.28 0.33 0.36 0.36 0.29 0.22 0.18 0.21 0.25 0.29 0.33 0.36 0.40 0.52 0.73 0.96 1.12 1.19 1.30 1.42 1.55 1.55 1.57 1.51 1.31 1.21 1.17 1.17 1.18 1.18 1.16 1.02 0.91 0.91 0.96 1.09 1.24 1.39 1.56 1.57
0.01 0.04 0.10 0.12 0.14 0.12 0.12 0.27 0.37 0.33 0.28 0.28 0.29 0.24 0.19 0.22 0.32 0.43 0.58 0.69 0.79 0.90 1.00 1.14 1.31 1.41 1.34 1.30 1.32 1.36 1.37 1.36 1.36 1.30 1.16 1.08 1.07 1.08 1.10 1.14 1.17 1.11 1.04 1.04 1.08 1.15 1.13 1.24 1.42
0.02 0.07 0.18 0.22 0.21 0.23 0.27 0.47 0.51 0.41 0.30 0.22 0.16 0.15 0.23 0.36 0.50 0.60 0.69 0.79 0.92 1.02 1.05 1.06 1.15 1.22 1.19 1.15 1.13 1.09 1.10 1.08 1.02 0.94 0.93 0.96 0.98 0.98 0.94 0.92 0.97 1.05 1.08 1.00 0.93 0.83 0.80 0.88 1.04
0.04 0.06 0.14 0.27 0.23 0.23 0.35 0.61 0.57 0.37 0.31 0.24 0.21 0.24 0.37 0.56 0.77 0.90 0.99 1.09 1.09 1.08 1.08 0.98 0.98 1.01 1.01 0.96 0.89 0.86 0.84 0.84 0.80 0.75 0.76 0.74 0.73 0.69 0.66 0.67 0.67 0.71 0.71 0.65 0.64 0.65 0.66 0.64 0.75
0.09 0.16 0.24 0.42 0.46 0.45 0.54 0.65 0.58 0.45 0.42 0.45 0.51 0.60 0.66 0.76 1.01 1.28 1.50 1.61 1.40 1.10 0.97 0.91 0.83 0.83 0.86 0.86 0.83 0.79 0.74 0.69 0.66 0.65 0.66 0.63 0.55 0.49 0.47 0.45 0.41 0.38 0.36 0.36 0.40 0.44 0.49 0.50 0.54
0.15 0.26 0.34 0.46 0.56 0.70 0.87 0.97 0.83 0.85 0.87 0.94 1.05 1.09 1.08 1.18 1.15 1.29 1.47 1.60 1.46 1.11 0.86 0.82 0.82 0.78 0.75 0.76 0.75 0.72 0.67 0.59 0.55 0.55 0.56 0.55 0.50 0.46 0.41 0.38 0.37 0.39 0.35 0.32 0.34 0.32 0.29 0.29 0.32
0.27 0.38 0.52 0.69 0.63 0.69 0.89 1.06 0.95 0.94 0.96 1.05 1.22 1.28 1.26 1.18 1.08 1.05 1.10 1.14 1.13 0.97 0.79 0.73 0.78 0.78 0.76 0.78 0.76 0.72 0.63 0.56 0.53 0.49 0.45 0.40 0.36 0.33 0.32 0.34 0.32 0.30 0.32 0.31 0.33 0.33 0.29 0.26 0.26

GEFSSGP_prec_meanprecacc_048.txt.gz
Total_Precipitation_Accumulation
0.01 0.05 0.10 0.17 0.33 0.13 0.01 0.00 0.00 0.00 0.00 0.00 0.00 0.00 0.00 0.00 0.04 0.23 0.05 0.00 0.00 0.00 0.01 0.05 0.10 0.11 0.10 0.09 0.08 0.16 0.16 0.09 0.08 0.09 0.08 0.06 0.06 0.08 0.08 0.07 0.05 0.04 0.04 0.06 0.14 0.22 0.20 0.22 0.31
0.01 0.06 0.12 0.31 0.30 0.03 0.00 0.00 0.00 0.00 0.00 0.00 0.00 0.00 0.00 0.00 0.00 0.01 0.00 0.00 0.00 0.00 0.01 0.03 0.08 0.13 0.12 0.10 0.13 0.26 0.25 0.16 0.11 0.10 0.08 0.05 0.04 0.09 0.16 0.16 0.06 0.04 0.04 0.05 0.12 0.19 0.18 0.21 0.31
0.01 0.03 0.14 0.33 0.13 0.01 0.00 0.00 0.00 0.00 0.00 0.00 0.00 0.00 0.00 0.00 0.00 0.00 0.00 0.00 0.00 0.00 0.02 0.11 0.15 0.13 0.11 0.14 0.24 0.37 0.33 0.27 0.18 0.09 0.06 0.04 0.05 0.08 0.15 0.11 0.06 0.02 0.03 0.05 0.10 0.16 0.16 0.17 0.21
0.02 0.05 0.21 0.26 0.07 0.01 0.00 0.00 0.00 0.00 0.00 0.00 0.00 0.00 0.00 0.00 0.00 0.00 0.00 0.00 0.00 0.00 0.02 0.09 0.15 0.13 0.14 0.22 0.33 0.37 0.39 0.43 0.27 0.12 0.06 0.08 0.08 0.09 0.13 0.11 0.06 0.02 0.02 0.03 0.05 0.10 0.15 0.16 0.19
0.04 0.13 0.33 0.33 0.07 0.00 0.00 0.00 0.00 0.00 0.00 0.00 0.00 0.00 0.00 0.00 0.00 0.00 0.00 0.00 0.00 0.00 0.02 0.05 0.15 0.15 0.17 0.26 0.34 0.32 0.38 0.43 0.30 0.12 0.11 0.12 0.08 0.07 0.11 0.13 0.05 0.02 0.01 0.01 0.03 0.06 0.10 0.14 0.18
0.07 0.23 0.48 0.44 0.08 0.00 0.00 0.00 0.00 0.00 0.00 0.00 0.00 0.00 0.00 0.00 0.00 0.00 0.00 0.00 0.00 0.00 0.01 0.03 0.10 0.12 0.16 0.26 0.36 0.30 0.32 0.34 0.24 0.14 0.13 0.10 0.09 0.08 0.11 0.09 0.04 0.01 0.00 0.00 0.01 0.06 0.09 0.11 0.14
0.07 0.25 0.47 0.30 0.04 0.01 0.00 0.00 0.00 0.00 0.00 0.00 0.00 0.00 0.00 0.00 0.00 0.00 0.01 0.02 0.03 0.02 0.01 0.02 0.03 0.05 0.09 0.18 0.30 0.34 0.34 0.31 0.17 0.13 0.10 0.10 0.10 0.08 0.06 0.04 0.02 0.00 0.00 0.00 0.01 0.04 0.05 0.06 0.09
0.02 0.11 0.25 0.19 0.07 0.04 0.01 0.00 0.00 0.00 0.00 0.00 0.01 0.00 0.00 0.01 0.01 0.01 0.03 0.07 0.06 0.03 0.01 0.01 0.02 0.03 0.07 0.09 0.18 0.33 0.40 0.34 0.21 0.15 0.13 0.11 0.08 0.05 0.04 0.01 0.00 0.00 0.00 0.00 0.01 0.01 0.02 0.04 0.05
0.04 0.09 0.19 0.23 0.13 0.07 0.03 0.01 0.02 0.03 0.02 0.02 0.02 0.01 0.01 0.01 0.02 0.02 0.04 0.06 0.07 0.04 0.01 0.01 0.01 0.02 0.09 0.17 0.16 0.31 0.43 0.38 0.21 0.15 0.11 0.11 0.11 0.10 0.09 0.02 0.00 0.00 0.00 0.00 0.01 0.01 0.01 0.01 0.02
0.07 0.11 0.18 0.33 0.26 0.13 0.06 0.03 0.04 0.05 0.05 0.03 0.03 0.03 0.03 0.03 0.05 0.06 0.06 0.07 0.07 0.08 0.07 0.04 0.01 0.02 0.05 0.15 0.38 0.54 0.45 0.33 0.22 0.20 0.10 0.19 0.22 0.19 0.11 0.02 0.01 0.01 0.00 0.00 0.01 0.01 0.01 0.00 0.00
0.06 0.09 0.13 0.22 0.22 0.10 0.05 0.05 0.06 0.05 0.05 0.05 0.04 0.05 0.07 0.09 0.11 0.13 0.14 0.15 0.16 0.15 0.13 0.10 0.05 0.03 0.04 0.16 0.38 0.58 0.65 0.57 0.51 0.30 0.15 0.20 0.14 0.05 0.03 0.01 0.03 0.03 0.01 0.00 0.00 0.00 0.00 0.00 0.00
0.08 0.06 0.06 0.10 0.10 0.07 0.06 0.06 0.06 0.05 0.07 0.07 0.09 0.10 0.12 0.13 0.15 0.16 0.20 0.23 0.26 0.27 0.25 0.19 0.15 0.09 0.06 0.08 0.14 0.25 0.30 0.32 0.34 0.22 0.10 0.10 0.09 0.04 0.01 0.01 0.01 0.02 0.01 0.00 0.00 0.00 0.00 0.00 0.00
0.09 0.05 0.04 0.06 0.07 0.07 0.06 0.05 0.05 0.06 0.09 0.09 0.12 0.18 0.23 0.25 0.23 0.24 0.25 0.27 0.30 0.36 0.42 0.39 0.28 0.23 0.18 0.16 0.16 0.12 0.18 0.20 0.19 0.20 0.15 0.09 0.07 0.04 0.03 0.01 0.00 0.00 0.00 0.00 0.00 0.00 0.00 0.00 0.00
0.04 0.05 0.07 0.08 0.07 0.06 0.06 0.06 0.07 0.08 0.11 0.14 0.18 0.27 0.34 0.40 0.40 0.41 0.41 0.42 0.41 0.44 0.50 0.55 0.46 0.39 0.32 0.26 0.22 0.21 0.25 0.26 0.23 0.16 0.14 0.12 0.08 0.05 0.04 0.02 0.01 0.01 0.00 0.00 0.00 0.00 0.00 0.00 0.00
0.02 0.03 0.03 0.03 0.04 0.05 0.06 0.09 0.10 0.11 0.14 0.19 0.24 0.29 0.36 0.43 0.49 0.52 0.51 0.49 0.48 0.49 0.51 0.54 0.55 0.54 0.50 0.47 0.42 0.35 0.38 0.40 0.35 0.29 0.21 0.15 0.12 0.08 0.07 0.06 0.04 0.02 0.01 0.00 0.00 0.00 0.00 0.00 0.00
0.01 0.01 0.02 0.03 0.04 0.08 0.10 0.12 0.13 0.15 0.17 0.20 0.24 0.27 0.32 0.36 0.41 0.47 0.49 0.46 0.46 0.45 0.45 0.49 0.51 0.55 0.60 0.62 0.62 0.61 0.56 0.56 0.46 0.41 0.32 0.23 0.19 0.17 0.16 0.14 0.11 0.07 0.04 0.02 0.02 0.01 0.00 0.00 0.00
0.01 0.03 0.04 0.05 0.07 0.10 0.13 0.15 0.17 0.19 0.18 0.20 0.22 0.21 0.22 0.26 0.30 0.35 0.38 0.41 0.42 0.41 0.40 0.42 0.46 0.48 0.59 0.67 0.70 0.76 0.76 0.73 0.62 0.54 0.43 0.37 0.37 0.37 0.36 0.34 0.30 0.21 0.11 0.07 0.04 0.02 0.01 0.00 0.01
0.10 0.06 0.06 0.07 0.07 0.07 0.10 0.13 0.15 0.16 0.15 0.15 0.16 0.17 0.17 0.18 0.22 0.27 0.28 0.29 0.30 0.32 0.34 0.38 0.42 0.44 0.52 0.66 0.78 0.93 1.01 0.96 0.93 0.81 0.64 0.63 0.68 0.74 0.76 0.69 0.65 0.51 0.32 0.22 0.13 0.11 0.08 0.05 0.03
0.06 0.05 0.05 0.07 0.09 0.09 0.09 0.11 0.13 0.13 0.12 0.12 0.11 0.12 0.12 0.12 0.13 0.15 0.19 0.21 0.22 0.22 0.25 0.30 0.34 0.41 0.50 0.57 0.71 0.93 1.18 1.26 1.33 1.25 1.02 0.93 1.00 1.14 1.22 1.13 1.04 0.85 0.67 0.55 0.46 0.49 0.46 0.29 0.10
0.05 0.07 0.06 0.05 0.05 0.06 0.07 0.08 0.09 0.10 0.12 0.11 0.11 0.10 0.09 0.09 0.07 0.07 0.10 0.13 0.14 0.15 0.16 0.22 0.29 0.39 0.47 0.56 0.73 0.89 1.03 1.01 1.15 1.27 1.20 1.07 1.05 1.16 1.23 1.33 1.24 1.04 0.95 0.97 0.93 1.02 1.03 0.68 0.32
0.06 0.09 0.11 0.11 0.07 0.05 0.06 0.08 0.07 0.09 0.11 0.11 0.12 0.11 0.10 0.08 0.06 0.06 0.06 0.08 0.09 0.10 0.11 0.15 0.20 0.31 0.44 0.59 0.82 1.03 1.22 1.28 1.32 1.23 1.28 1.25 1.15 1.16 1.20 1.30 1.32 1.18 1.11 1.14 1.18 1.33 1.52 1.23 0.81
0.06 0.05 0.06 0.09 0.14 0.14 0.15 0.18 0.13 0.14 0.18 0.18 0.18 0.15 0.13 0.12 0.08 0.06 0.06 0.07 0.07 0.07 0.08 0.11 0.19 0.33 0.53 0.74 0.99 1.24 1.44 1.46 1.34 1.37 1.38 1.24 1.13 1.08 1.10 1.18 1.25 1.27 1.19 1.24 1.23 1.20 1.48 1.59 1.28
0.02 0.02 0.03 0.07 0.12 0.11 0.10 0.16 0.15 0.21 0.30 0.32 0.30 0.25 0.19 0.16 0.13 0.11 0.10 0.12 0.12 0.13 0.15 0.21 0.40 0.64 0.87 1.08 1.32 1.60 1.61 1.50 1.40 1.39 1.35 1.27 1.22 1.18 1.16 1.24 1.25 1.19 1.18 1.22 1.39 1.44 1.57 1.65 1.52
0.01 0.02 0.05 0.08 0.11 0.07 0.06 0.13 0.23 0.28 0.33 0.36 0.36 0.30 0.22 0.18 0.21 0.26 0.30 0.36 0.40 0.42 0.55 0.75 1.00 1.17 1.24 1.35 1.46 1.58 1.58 1.59 1.53 1.34 1.25 1.22 1.23 1.26 1.30 1.32 1.24 1.13 1.11 1.17 1.31 1.46 1.56 1.70 1.69
0.01 0.04 0.10 0.12 0.14 0.12 0.12 0.27 0.38 0.34 0.29 0.29 0.29 0.25 0.20 0.23 0.32 0.44 0.59 0.72 0.83 0.93 1.04 1.18 1.35 1.47 1.40 1.35 1.36 1.41 1.42 1.40 1.39 1.33 1.20 1.11 1.11 1.13 1.16 1.24 1.32 1.30 1.24 1.27 1.31 1.40 1.36 1.46 1.63
0.02 0.07 0.18 0.22 0.21 0.23 0.27 0.47 0.52 0.41 0.31 0.22 0.16 0.16 0.24 0.37 0.51 0.62 0.71 0.82 0.98 1.09 1.14 1.14 1.23 1.31 1.26 1.22 1.19 1.16 1.16 1.14 1.07 0.98 0.96 0.99 1.02 1.02 0.99 0.99 1.07 1.20 1.24 1.15 1.10 1.03 1.01 1.10 1.25
0.04 0.06 0.14 0.27 0.23 0.23 0.35 0.61 0.57 0.37 0.31 0.25 0.22 0.25 0.38 0.58 0.79 0.93 1.03 1.16 1.19 1.20 1.24 1.16 1.12 1.15 1.14 1.06 0.97 0.96 0.94 0.90 0.86 0.82 0.81 0.78 0.77 0.72 0.70 0.71 0.72 0.77 0.80 0.75 0.75 0.78 0.80 0.81 0.94
0.09 0.16 0.24 0.42 0.46 0.45 0.54 0.65 0.58 0.46 0.43 0.45 0.52 0.61 0.67 0.78 1.03 1.32 1.56 1.73 1.55 1.26 1.14 1.08 0.98 0.96 1.03 1.01 0.91 0.87 0.85 0.80 0.77 0.75 0.73 0.68 0.60 0.54 0.52 0.50 0.46 0.44 0.42 0.43 0.49 0.55 0.61 0.62 0.70
0.15 0.26 0.34 0.46 0.56 0.70 0.87 0.97 0.83 0.86 0.88 0.95 1.06 1.10 1.10 1.20 1.18 1.34 1.53 1.70 1.58 1.26 1.02 1.02 1.01 0.94 0.90 0.89 0.85 0.81 0.75 0.66 0.64 0.63 0.63 0.61 0.55 0.52 0.47 0.43 0.42 0.46 0.44 0.40 0.42 0.41 0.40 0.41 0.45
0.27 0.38 0.52 0.69 0.63 0.69 0.89 1.06 0.95 0.94 0.96 1.05 1.23 1.30 1.29 1.20 1.10 1.08 1.13 1.19 1.20 1.05 0.86 0.81 0.92 0.93 0.88 0.86 0.84 0.79 0.69 0.61 0.59 0.56 0.50 0.44 0.39 0.36 0.36 0.38 0.36 0.36 0.39 0.39 0.42 0.43 0.41 0.39 0.38

GEFSSGP_prec_meanprecacc_054.txt.gz
Total_Precipitation_Accumulation
0.01 0.05 0.11 0.19 0.42 0.17 0.01 0.00 0.00 0.00 0.00 0.00 0.00 0.00 0.00 0.01 0.09 0.31 0.06 0.00 0.00 0.00 0.01 0.05 0.10 0.12 0.11 0.11 0.10 0.17 0.18 0.11 0.10 0.11 0.10 0.08 0.08 0.09 0.09 0.09 0.06 0.05 0.05 0.07 0.15 0.23 0.23 0.24 0.34
0.01 0.06 0.13 0.38 0.37 0.04 0.00 0.00 0.00 0.00 0.00 0.00 0.00 0.00 0.00 0.00 0.00 0.01 0.00 0.00 0.00 0.00 0.01 0.03 0.08 0.14 0.13 0.10 0.14 0.28 0.27 0.17 0.12 0.11 0.09 0.05 0.05 0.10 0.17 0.17 0.06 0.04 0.05 0.05 0.13 0.21 0.20 0.24 0.33
0.01 0.04 0.17 0.40 0.14 0.02 0.01 0.00 0.00 0.00 0.00 0.00 0.00 0.00 0.00 0.00 0.00 0.00 0.00 0.00 0.00 0.00 0.02 0.12 0.15 0.13 0.12 0.15 0.25 0.38 0.34 0.28 0.19 0.10 0.06 0.05 0.05 0.08 0.15 0.11 0.06 0.03 0.03 0.05 0.11 0.18 0.18 0.19 0.24
0.02 0.06 0.24 0.28 0.07 0.01 0.00 0.00 0.00 0.00 0.00 0.00 0.00 0.00 0.00 0.00 0.00 0.00 0.00 0.00 0.00 0.00 0.03 0.10 0.15 0.13 0.14 0.22 0.34 0.37 0.39 0.43 0.27 0.12 0.07 0.08 0.08 0.10 0.13 0.11 0.06 0.03 0.02 0.04 0.06 0.11 0.17 0.19 0.22
0.04 0.16 0.37 0.35 0.08 0.01 0.00 0.00 0.00 0.00 0.00 0.00 0.00 0.00 0.00 0.00 0.00 0.00 0.00 0.00 0.00 0.00 0.02 0.05 0.15 0.15 0.18 0.27 0.36 0.33 0.38 0.43 0.31 0.12 0.11 0.13 0.08 0.08 0.11 0.13 0.05 0.02 0.01 0.01 0.03 0.07 0.11 0.16 0.21
0.07 0.26 0.52 0.49 0.12 0.01 0.01 0.01 0.00 0.01 0.00 0.00 0.00 0.00 0.01 0.01 0.00 0.00 0.00 0.00 0.00 0.00 0.01 0.04 0.11 0.13 0.18 0.28 0.38 0.32 0.33 0.35 0.24 0.14 0.14 0.10 0.09 0.09 0.11 0.09 0.04 0.01 0.00 0.00 0.02 0.07 0.09 0.12 0.16
0.08 0.27 0.50 0.33 0.08 0.02 0.01 0.01 0.01 0.01 0.00 0.01 0.01 0.01 0.03 0.02 0.01 0.00 0.01 0.02 0.03 0.03 0.02 0.03 0.05 0.06 0.11 0.22 0.34 0.38 0.37 0.33 0.19 0.14 0.11 0.11 0.11 0.08 0.06 0.04 0.02 0.01 0.00 0.00 0.01 0.04 0.06 0.07 0.10
0.02 0.11 0.28 0.23 0.11 0.08 0.02 0.01 0.01 0.01 0.01 0.01 0.03 0.04 0.07 0.05 0.03 0.02 0.04 0.07 0.06 0.04 0.02 0.03 0.06 0.10 0.18 0.19 0.26 0.39 0.46 0.39 0.24 0.17 0.14 0.12 0.08 0.05 0.04 0.01 0.01 0.00 0.00 0.00 0.01 0.01 0.03 0.05 0.06
0.04 0.11 0.28 0.36 0.20 0.11 0.04 0.02 0.02 0.03 0.03 0.04 0.05 0.06 0.07 0.06 0.06 0.04 0.06 0.08 0.09 0.06 0.03 0.04 0.07 0.11 0.20 0.30 0.31 0.46 0.56 0.46 0.27 0.19 0.14 0.13 0.13 0.16 0.14 0.03 0.01 0.00 0.00 0.00 0.01 0.01 0.01 0.01 0.03
0.07 0.15 0.25 0.37 0.27 0.14 0.07 0.06 0.06 0.07 0.07 0.06 0.08 0.10 0.09 0.07 0.09 0.10 0.11 0.12 0.12 0.13 0.11 0.07 0.06 0.08 0.14 0.24 0.55 0.78 0.68 0.57 0.35 0.38 0.25 0.26 0.31 0.35 0.22 0.09 0.03 0.01 0.00 0.00 0.01 0.01 0.01 0.00 0.00
0.06 0.10 0.13 0.22 0.22 0.10 0.06 0.07 0.08 0.08 0.08 0.08 0.09 0.10 0.12 0.13 0.15 0.17 0.19 0.20 0.21 0.20 0.18 0.14 0.10 0.08 0.11 0.26 0.52 0.78 0.92 0.87 0.79 0.58 0.39 0.38 0.26 0.17 0.10 0.07 0.08 0.05 0.01 0.00 0.01 0.00 0.00 0.00 0.01
0.09 0.07 0.06 0.10 0.11 0.08 0.07 0.06 0.07 0.07 0.09 0.09 0.12 0.13 0.15 0.17 0.20 0.20 0.24 0.27 0.31 0.32 0.31 0.25 0.20 0.15 0.14 0.17 0.26 0.40 0.48 0.53 0.56 0.40 0.26 0.33 0.29 0.17 0.12 0.09 0.09 0.07 0.03 0.01 0.01 0.00 0.00 0.00 0.01
0.09 0.06 0.04 0.06 0.07 0.08 0.07 0.06 0.06 0.08 0.11 0.10 0.14 0.21 0.26 0.29 0.28 0.28 0.30 0.32 0.35 0.41 0.48 0.45 0.34 0.30 0.26 0.25 0.27 0.26 0.34 0.38 0.36 0.39 0.30 0.27 0.25 0.16 0.12 0.06 0.05 0.04 0.03 0.01 0.01 0.00 0.00 0.00 0.01
0.05 0.05 0.07 0.08 0.07 0.06 0.06 0.07 0.08 0.09 0.12 0.15 0.20 0.28 0.36 0.43 0.43 0.45 0.45 0.46 0.45 0.48 0.55 0.60 0.51 0.45 0.41 0.36 0.34 0.31 0.37 0.41 0.40 0.32 0.25 0.25 0.26 0.17 0.13 0.07 0.05 0.04 0.03 0.02 0.00 0.00 0.00 0.00 0.00
0.02 0.03 0.04 0.04 0.04 0.05 0.07 0.10 0.10 0.12 0.15 0.20 0.24 0.30 0.37 0.45 0.50 0.54 0.53 0.51 0.50 0.52 0.54 0.57 0.58 0.57 0.55 0.53 0.50 0.46 0.50 0.54 0.50 0.42 0.31 0.27 0.28 0.24 0.18 0.13 0.09 0.06 0.04 0.03 0.01 0.00 0.00 0.00 0.00
0.01 0.02 0.07 0.05 0.05 0.09 0.13 0.14 0.13 0.16 0.17 0.20 0.24 0.28 0.33 0.37 0.42 0.47 0.50 0.47 0.46 0.46 0.46 0.51 0.53 0.57 0.63 0.65 0.66 0.68 0.66 0.69 0.61 0.55 0.44 0.34 0.31 0.30 0.32 0.25 0.18 0.12 0.09 0.06 0.04 0.02 0.01 0.00 0.00
0.01 0.04 0.10 0.10 0.08 0.11 0.15 0.17 0.17 0.19 0.18 0.20 0.23 0.22 0.23 0.26 0.31 0.36 0.39 0.41 0.42 0.41 0.41 0.43 0.47 0.50 0.61 0.69 0.71 0.79 0.81 0.82 0.77 0.72 0.59 0.53 0.51 0.49 0.51 0.48 0.40 0.29 0.20 0.12 0.07 0.04 0.02 0.01 0.01
0.11 0.07 0.08 0.10 0.07 0.08 0.11 0.13 0.15 0.16 0.15 0.15 0.16 0.17 0.17 0.18 0.22 0.27 0.28 0.29 0.30 0.32 0.34 0.38 0.43 0.45 0.52 0.67 0.79 0.94 1.05 1.01 1.02 0.94 0.79 0.78 0.86 0.93 0.97 0.86 0.78 0.65 0.45 0.32 0.20 0.15 0.10 0.06 0.04
0.06 0.05 0.06 0.07 0.09 0.09 0.10 0.11 0.13 0.13 0.12 0.12 0.11 0.12 0.13 0.12 0.13 0.15 0.19 0.22 0.22 0.22 0.25 0.31 0.34 0.42 0.50 0.58 0.72 0.94 1.21 1.30 1.39 1.32 1.13 1.05 1.13 1.31 1.43 1.32 1.22 1.03 0.81 0.68 0.57 0.57 0.52 0.33 0.12
0.05 0.07 0.06 0.05 0.05 0.06 0.07 0.08 0.09 0.10 0.12 0.11 0.11 0.10 0.10 0.09 0.07 0.07 0.10 0.13 0.15 0.15 0.17 0.22 0.30 0.39 0.48 0.57 0.74 0.90 1.05 1.05 1.21 1.35 1.30 1.18 1.15 1.26 1.37 1.53 1.48 1.25 1.14 1.16 1.10 1.19 1.18 0.77 0.35
0.06 0.09 0.11 0.11 0.07 0.05 0.06 0.08 0.07 0.09 0.11 0.11 0.12 0.11 0.10 0.08 0.06 0.06 0.06 0.08 0.09 0.10 0.12 0.15 0.21 0.32 0.45 0.60 0.84 1.05 1.23 1.31 1.37 1.28 1.35 1.32 1.22 1.24 1.30 1.43 1.52 1.40 1.35 1.35 1.37 1.53 1.74 1.39 0.88
0.06 0.05 0.06 0.09 0.14 0.14 0.15 0.19 0.13 0.14 0.18 0.18 0.18 0.15 0.14 0.12 0.09 0.06 0.06 0.07 0.07 0.08 0.08 0.12 0.20 0.35 0.56 0.77 1.02 1.27 1.47 1.50 1.39 1.43 1.45 1.30 1.21 1.16 1.20 1.29 1.39 1.45 1.40 1.44 1.41 1.37 1.66 1.78 1.43
0.02 0.02 0.03 0.07 0.12 0.11 0.10 0.17 0.16 0.21 0.30 0.32 0.30 0.26 0.20 0.16 0.13 0.12 0.11 0.12 0.13 0.14 0.16 0.23 0.43 0.67 0.93 1.14 1.38 1.66 1.67 1.55 1.45 1.44 1.41 1.35 1.32 1.28 1.25 1.35 1.38 1.35 1.36 1.41 1.59 1.65 1.78 1.86 1.70
0.01 0.02 0.05 0.08 0.11 0.07 0.06 0.13 0.24 0.28 0.33 0.37 0.36 0.30 0.23 0.19 0.22 0.27 0.31 0.37 0.41 0.44 0.58 0.78 1.04 1.24 1.32 1.44 1.58 1.69 1.67 1.68 1.61 1.41 1.32 1.30 1.32 1.36 1.40 1.45 1.40 1.31 1.30 1.36 1.51 1.68 1.79 1.92 1.94
0.01 0.04 0.10 0.12 0.14 0.12 0.12 0.27 0.38 0.34 0.29 0.29 0.30 0.25 0.20 0.24 0.33 0.45 0.61 0.74 0.84 0.96 1.08 1.22 1.40 1.55 1.49 1.46 1.49 1.53 1.53 1.51 1.49 1.43 1.30 1.22 1.22 1.23 1.26 1.35 1.45 1.47 1.44 1.51 1.58 1.65 1.56 1.67 1.89
0.02 0.07 0.18 0.23 0.21 0.23 0.27 0.47 0.52 0.41 0.31 0.22 0.17 0.16 0.24 0.38 0.52 0.63 0.72 0.83 1.00 1.14 1.19 1.19 1.30 1.39 1.34 1.31 1.29 1.25 1.28 1.27 1.23 1.13 1.11 1.13 1.17 1.15 1.09 1.10 1.20 1.34 1.43 1.39 1.38 1.33 1.26 1.32 1.47
0.04 0.06 0.14 0.27 0.23 0.23 0.35 0.61 0.57 0.37 0.31 0.25 0.22 0.25 0.38 0.58 0.79 0.94 1.04 1.17 1.21 1.25 1.30 1.21 1.20 1.25 1.24 1.15 1.05 1.05 1.06 1.06 1.06 1.01 0.99 0.97 0.94 0.87 0.82 0.81 0.82 0.90 0.94 0.93 0.98 1.04 1.09 1.07 1.15
0.09 0.16 0.24 0.42 0.46 0.45 0.54 0.65 0.58 0.46 0.43 0.45 0.52 0.61 0.67 0.78 1.03 1.32 1.57 1.74 1.57 1.30 1.18 1.13 1.05 1.05 1.13 1.10 1.01 0.95 1.00 1.00 0.97 0.96 0.91 0.88 0.81 0.70 0.67 0.64 0.60 0.57 0.53 0.55 0.65 0.75 0.83 0.85 0.93
0.15 0.26 0.34 0.46 0.56 0.70 0.88 0.97 0.83 0.86 0.88 0.95 1.06 1.10 1.10 1.21 1.19 1.34 1.53 1.70 1.60 1.28 1.05 1.05 1.05 1.00 0.97 0.98 0.97 0.95 0.91 0.82 0.81 0.81 0.80 0.78 0.72 0.66 0.60 0.56 0.56 0.60 0.57 0.53 0.56 0.56 0.56 0.59 0.64
0.27 0.38 0.52 0.69 0.63 0.69 0.89 1.06 0.95 0.94 0.96 1.05 1.23 1.30 1.29 1.20 1.10 1.09 1.13 1.20 1.21 1.06 0.87 0.83 0.95 0.99 0.93 0.91 0.93 0.92 0.81 0.75 0.72 0.67 0.64 0.57 0.53 0.49 0.47 0.49 0.48 0.48 0.50 0.50 0.54 0.56 0.55 0.52 0.53

GEFSSGP_prec_meanprecacc_060.txt.gz
Total_Precipitation_Accumulation
0.03 0.11 0.22 0.32 0.54 0.20 0.01 0.00 0.00 0.00 0.00 0.00 0.00 0.00 0.00 0.02 0.13 0.34 0.07 0.02 0.01 0.00 0.01 0.05 0.10 0.12 0.11 0.11 0.10 0.17 0.18 0.11 0.10 0.11 0.10 0.08 0.08 0.09 0.09 0.09 0.07 0.05 0.05 0.07 0.16 0.23 0.23 0.25 0.35
0.07 0.20 0.29 0.56 0.44 0.04 0.01 0.00 0.00 0.00 0.00 0.00 0.00 0.00 0.00 0.00 0.01 0.02 0.02 0.02 0.00 0.00 0.01 0.03 0.08 0.14 0.13 0.10 0.14 0.28 0.27 0.18 0.13 0.11 0.10 0.06 0.05 0.10 0.17 0.17 0.06 0.05 0.05 0.06 0.13 0.21 0.21 0.24 0.34
0.10 0.19 0.36 0.53 0.17 0.02 0.01 0.01 0.00 0.00 0.00 0.00 0.00 0.00 0.00 0.02 0.01 0.01 0.02 0.01 0.00 0.00 0.02 0.12 0.15 0.13 0.12 0.15 0.25 0.38 0.34 0.28 0.19 0.10 0.06 0.05 0.05 0.08 0.15 0.11 0.06 0.03 0.04 0.05 0.11 0.18 0.19 0.20 0.24
0.12 0.22 0.42 0.37 0.10 0.04 0.04 0.03 0.01 0.00 0.00 0.00 0.00 0.00 0.01 0.02 0.01 0.02 0.03 0.01 0.00 0.00 0.03 0.10 0.15 0.13 0.14 0.22 0.34 0.37 0.39 0.43 0.27 0.12 0.07 0.08 0.08 0.10 0.13 0.11 0.06 0.03 0.02 0.04 0.06 0.11 0.17 0.19 0.22
0.17 0.31 0.50 0.44 0.15 0.08 0.09 0.06 0.01 0.01 0.01 0.01 0.00 0.01 0.03 0.03 0.02 0.04 0.07 0.03 0.02 0.02 0.03 0.05 0.16 0.16 0.18 0.28 0.36 0.34 0.38 0.44 0.31 0.12 0.12 0.13 0.08 0.08 0.11 0.13 0.05 0.02 0.01 0.01 0.03 0.07 0.11 0.16 0.21
0.19 0.44 0.65 0.62 0.27 0.14 0.15 0.09 0.03 0.04 0.04 0.04 0.03 0.02 0.06 0.07 0.06 0.07 0.10 0.12 0.11 0.08 0.05 0.07 0.15 0.16 0.20 0.29 0.39 0.32 0.33 0.36 0.25 0.14 0.14 0.11 0.09 0.09 0.11 0.09 0.04 0.01 0.00 0.00 0.02 0.07 0.10 0.12 0.16
0.15 0.40 0.62 0.45 0.24 0.22 0.20 0.09 0.06 0.08 0.10 0.12 0.08 0.07 0.10 0.11 0.10 0.11 0.11 0.15 0.22 0.25 0.20 0.16 0.16 0.15 0.19 0.28 0.38 0.41 0.39 0.35 0.20 0.15 0.12 0.11 0.11 0.08 0.06 0.04 0.02 0.01 0.00 0.00 0.01 0.04 0.06 0.07 0.10
0.05 0.19 0.40 0.44 0.37 0.33 0.25 0.10 0.05 0.05 0.08 0.10 0.13 0.14 0.18 0.17 0.15 0.13 0.17 0.24 0.26 0.27 0.26 0.24 0.25 0.27 0.32 0.31 0.38 0.51 0.55 0.44 0.28 0.19 0.16 0.13 0.09 0.06 0.04 0.01 0.01 0.00 0.00 0.00 0.01 0.01 0.03 0.05 0.06
0.06 0.15 0.41 0.63 0.55 0.36 0.21 0.12 0.08 0.07 0.06 0.09 0.10 0.13 0.15 0.17 0.20 0.18 0.20 0.24 0.27 0.25 0.24 0.26 0.31 0.36 0.43 0.49 0.49 0.66 0.71 0.58 0.36 0.24 0.18 0.15 0.14 0.17 0.14 0.04 0.02 0.01 0.00 0.00 0.01 0.01 0.01 0.02 0.03
0.09 0.21 0.41 0.51 0.40 0.25 0.18 0.14 0.12 0.13 0.11 0.09 0.13 0.16 0.16 0.18 0.24 0.25 0.24 0.27 0.29 0.31 0.30 0.28 0.29 0.35 0.42 0.48 0.79 0.99 0.81 0.69 0.45 0.45 0.31 0.29 0.33 0.36 0.23 0.11 0.07 0.04 0.02 0.01 0.01 0.01 0.01 0.01 0.00
0.09 0.15 0.20 0.28 0.28 0.15 0.11 0.12 0.13 0.11 0.11 0.11 0.13 0.15 0.17 0.20 0.23 0.27 0.28 0.30 0.32 0.33 0.31 0.28 0.25 0.25 0.31 0.47 0.73 0.97 1.05 0.99 0.87 0.64 0.44 0.44 0.30 0.21 0.14 0.10 0.11 0.09 0.04 0.01 0.01 0.01 0.00 0.00 0.01
0.10 0.10 0.10 0.16 0.15 0.13 0.11 0.08 0.09 0.09 0.10 0.10 0.13 0.16 0.19 0.21 0.24 0.25 0.30 0.33 0.37 0.40 0.39 0.35 0.33 0.28 0.28 0.33 0.43 0.56 0.64 0.67 0.65 0.46 0.32 0.42 0.39 0.27 0.22 0.18 0.16 0.11 0.06 0.03 0.02 0.01 0.00 0.00 0.01
0.10 0.08 0.07 0.10 0.11 0.11 0.09 0.07 0.07 0.09 0.12 0.11 0.16 0.23 0.29 0.32 0.31 0.32 0.35 0.38 0.41 0.48 0.54 0.51 0.42 0.39 0.36 0.37 0.42 0.45 0.55 0.55 0.50 0.48 0.39 0.39 0.41 0.35 0.28 0.19 0.15 0.11 0.09 0.05 0.02 0.01 0.01 0.01 0.02
0.06 0.06 0.08 0.10 0.10 0.08 0.08 0.09 0.09 0.10 0.13 0.16 0.21 0.29 0.37 0.45 0.45 0.46 0.47 0.48 0.47 0.52 0.58 0.63 0.55 0.50 0.45 0.42 0.43 0.46 0.54 0.58 0.56 0.48 0.40 0.43 0.48 0.41 0.32 0.23 0.19 0.17 0.14 0.13 0.06 0.02 0.02 0.01 0.02
0.03 0.05 0.08 0.09 0.11 0.12 0.13 0.13 0.11 0.13 0.15 0.20 0.25 0.30 0.37 0.45 0.51 0.54 0.53 0.51 0.51 0.53 0.56 0.59 0.60 0.59 0.57 0.56 0.54 0.52 0.57 0.66 0.64 0.56 0.47 0.43 0.46 0.46 0.42 0.34 0.28 0.24 0.22 0.18 0.14 0.07 0.04 0.03 0.02
0.05 0.10 0.18 0.15 0.17 0.20 0.23 0.20 0.14 0.16 0.18 0.21 0.24 0.28 0.33 0.37 0.42 0.48 0.50 0.47 0.47 0.46 0.47 0.52 0.54 0.59 0.65 0.67 0.68 0.70 0.69 0.74 0.69 0.66 0.57 0.48 0.46 0.45 0.50 0.46 0.39 0.31 0.29 0.27 0.23 0.13 0.08 0.04 0.02
0.07 0.11 0.16 0.15 0.14 0.18 0.22 0.20 0.17 0.19 0.19 0.20 0.23 0.22 0.23 0.26 0.31 0.36 0.39 0.41 0.42 0.41 0.41 0.44 0.48 0.51 0.62 0.70 0.73 0.81 0.83 0.84 0.80 0.77 0.67 0.63 0.65 0.64 0.69 0.70 0.63 0.53 0.44 0.35 0.24 0.16 0.10 0.05 0.04
0.12 0.08 0.09 0.10 0.08 0.09 0.12 0.14 0.15 0.16 0.15 0.15 0.16 0.17 0.17 0.18 0.22 0.27 0.28 0.29 0.30 0.32 0.34 0.38 0.43 0.45 0.53 0.68 0.80 0.95 1.05 1.02 1.03 0.96 0.83 0.84 0.96 1.06 1.12 1.04 1.01 0.93 0.69 0.53 0.37 0.29 0.21 0.13 0.09
0.06 0.05 0.06 0.08 0.09 0.09 0.10 0.12 0.13 0.14 0.13 0.12 0.11 0.12 0.13 0.12 0.13 0.15 0.19 0.22 0.22 0.22 0.25 0.31 0.34 0.42 0.50 0.58 0.72 0.94 1.21 1.31 1.39 1.34 1.16 1.10 1.20 1.41 1.55 1.45 1.40 1.27 1.04 0.89 0.78 0.79 0.71 0.45 0.20
0.05 0.07 0.06 0.05 0.05 0.06 0.08 0.09 0.09 0.10 0.12 0.12 0.11 0.10 0.10 0.09 0.07 0.07 0.10 0.13 0.15 0.15 0.17 0.22 0.30 0.39 0.48 0.57 0.74 0.90 1.05 1.05 1.21 1.35 1.31 1.22 1.20 1.34 1.46 1.65 1.63 1.45 1.33 1.36 1.31 1.42 1.41 0.93 0.47
0.06 0.09 0.11 0.11 0.07 0.05 0.06 0.09 0.07 0.09 0.11 0.11 0.12 0.11 0.10 0.08 0.06 0.06 0.06 0.08 0.09 0.10 0.12 0.15 0.22 0.32 0.45 0.61 0.84 1.05 1.24 1.32 1.37 1.29 1.36 1.36 1.27 1.30 1.38 1.53 1.65 1.58 1.54 1.53 1.55 1.72 1.94 1.58 1.03
0.06 0.05 0.06 0.09 0.14 0.14 0.15 0.19 0.14 0.15 0.18 0.18 0.18 0.15 0.14 0.12 0.09 0.06 0.06 0.07 0.07 0.08 0.08 0.12 0.20 0.35 0.56 0.77 1.03 1.28 1.48 1.51 1.40 1.44 1.46 1.33 1.25 1.21 1.27 1.39 1.51 1.59 1.56 1.59 1.57 1.52 1.83 1.96 1.59
0.02 0.02 0.03 0.07 0.12 0.11 0.10 0.17 0.16 0.21 0.30 0.32 0.30 0.26 0.20 0.16 0.13 0.12 0.11 0.12 0.13 0.14 0.16 0.23 0.43 0.67 0.93 1.14 1.40 1.68 1.69 1.57 1.47 1.47 1.44 1.37 1.36 1.33 1.31 1.43 1.48 1.48 1.51 1.56 1.75 1.82 1.95 2.01 1.85
0.01 0.02 0.05 0.08 0.11 0.07 0.06 0.13 0.24 0.28 0.33 0.37 0.36 0.30 0.23 0.19 0.22 0.27 0.31 0.37 0.41 0.44 0.58 0.79 1.05 1.24 1.33 1.45 1.60 1.72 1.69 1.70 1.64 1.45 1.35 1.33 1.36 1.40 1.46 1.51 1.48 1.43 1.43 1.51 1.66 1.82 1.93 2.07 2.09
0.01 0.04 0.10 0.12 0.14 0.12 0.12 0.27 0.38 0.34 0.29 0.29 0.30 0.25 0.20 0.24 0.33 0.45 0.61 0.74 0.84 0.96 1.08 1.22 1.41 1.56 1.50 1.47 1.52 1.55 1.56 1.55 1.53 1.46 1.35 1.29 1.29 1.29 1.31 1.42 1.52 1.58 1.58 1.65 1.75 1.83 1.71 1.82 2.03
0.02 0.07 0.18 0.23 0.21 0.23 0.27 0.47 0.52 0.41 0.31 0.22 0.17 0.16 0.24 0.38 0.52 0.63 0.72 0.83 1.00 1.14 1.19 1.19 1.30 1.40 1.35 1.33 1.30 1.28 1.32 1.34 1.29 1.20 1.18 1.21 1.28 1.25 1.18 1.21 1.31 1.44 1.56 1.57 1.57 1.54 1.45 1.52 1.64
0.04 0.06 0.14 0.27 0.23 0.23 0.35 0.61 0.57 0.37 0.31 0.25 0.22 0.25 0.38 0.58 0.79 0.94 1.04 1.17 1.21 1.25 1.30 1.22 1.20 1.25 1.25 1.17 1.08 1.09 1.13 1.16 1.17 1.10 1.11 1.09 1.08 1.02 0.95 0.93 0.94 1.01 1.07 1.09 1.19 1.24 1.30 1.30 1.37
0.09 0.16 0.24 0.42 0.46 0.45 0.54 0.65 0.58 0.46 0.43 0.45 0.52 0.61 0.67 0.78 1.03 1.32 1.57 1.74 1.57 1.30 1.18 1.13 1.06 1.06 1.14 1.11 1.03 1.00 1.08 1.07 1.06 1.08 1.05 1.03 1.01 0.90 0.83 0.81 0.74 0.69 0.65 0.68 0.81 0.94 1.02 1.09 1.22
0.15 0.26 0.34 0.46 0.56 0.70 0.88 0.97 0.83 0.86 0.88 0.95 1.06 1.10 1.10 1.21 1.19 1.34 1.53 1.70 1.60 1.28 1.05 1.05 1.05 1.01 0.99 0.99 1.01 1.00 0.98 0.88 0.87 0.92 0.93 0.91 0.89 0.87 0.79 0.73 0.70 0.75 0.72 0.66 0.70 0.72 0.72 0.78 0.88
0.27 0.38 0.52 0.69 0.63 0.69 0.89 1.06 0.95 0.94 0.96 1.05 1.23 1.30 1.29 1.20 1.10 1.09 1.13 1.20 1.21 1.06 0.87 0.83 0.96 1.01 0.95 0.92 0.95 0.94 0.85 0.80 0.76 0.73 0.71 0.64 0.61 0.60 0.62 0.66 0.61 0.61 0.64 0.63 0.68 0.70 0.69 0.66 0.70

GEFSSGP_prec_meanprecacc_066.txt.gz
Total_Precipitation_Accumulation
0.08 0.24 0.46 0.54 0.64 0.22 0.01 0.00 0.00 0.00 0.00 0.00 0.00 0.00 0.01 0.03 0.14 0.35 0.07 0.02 0.01 0.00 0.01 0.06 0.13 0.14 0.13 0.12 0.11 0.18 0.18 0.11 0.10 0.11 0.10 0.08 0.08 0.09 0.09 0.09 0.07 0.05 0.05 0.07 0.16 0.24 0.24 0.25 0.35
0.13 0.33 0.45 0.70 0.48 0.05 0.01 0.00 0.01 0.01 0.01 0.01 0.00 0.01 0.01 0.01 0.02 0.04 0.03 0.02 0.00 0.00 0.01 0.03 0.09 0.16 0.15 0.13 0.15 0.29 0.27 0.18 0.13 0.11 0.10 0.06 0.05 0.10 0.17 0.17 0.07 0.05 0.05 0.06 0.13 0.21 0.21 0.25 0.35
0.19 0.35 0.50 0.60 0.20 0.05 0.05 0.05 0.05 0.03 0.01 0.01 0.00 0.01 0.01 0.03 0.05 0.06 0.06 0.02 0.01 0.00 0.02 0.13 0.18 0.16 0.14 0.17 0.26 0.39 0.35 0.28 0.19 0.10 0.07 0.05 0.05 0.08 0.16 0.11 0.07 0.03 0.04 0.06 0.12 0.19 0.19 0.20 0.25
0.20 0.34 0.51 0.42 0.16 0.12 0.15 0.14 0.10 0.05 0.02 0.01 0.00 0.01 0.02 0.04 0.07 0.11 0.09 0.04 0.02 0.02 0.04 0.13 0.21 0.18 0.17 0.24 0.36 0.38 0.40 0.44 0.28 0.12 0.07 0.08 0.08 0.10 0.13 0.11 0.06 0.03 0.03 0.04 0.07 0.12 0.18 0.19 0.22
0.23 0.38 0.54 0.50 0.25 0.24 0.30 0.23 0.14 0.06 0.03 0.02 0.01 0.02 0.05 0.06 0.12 0.19 0.22 0.15 0.10 0.09 0.10 0.14 0.26 0.24 0.25 0.33 0.39 0.36 0.40 0.44 0.31 0.13 0.12 0.13 0.08 0.08 0.11 0.13 0.06 0.03 0.02 0.02 0.04 0.08 0.12 0.17 0.22
0.24 0.47 0.68 0.69 0.39 0.30 0.37 0.25 0.14 0.09 0.07 0.07 0.06 0.05 0.09 0.12 0.22 0.32 0.39 0.44 0.38 0.28 0.22 0.22 0.31 0.31 0.33 0.39 0.46 0.39 0.38 0.38 0.26 0.15 0.14 0.11 0.09 0.09 0.11 0.09 0.04 0.01 0.01 0.01 0.02 0.08 0.11 0.13 0.18
0.19 0.42 0.64 0.49 0.34 0.37 0.41 0.25 0.18 0.16 0.15 0.17 0.12 0.11 0.14 0.16 0.24 0.35 0.39 0.48 0.63 0.64 0.49 0.37 0.32 0.31 0.35 0.42 0.51 0.53 0.49 0.42 0.25 0.17 0.13 0.12 0.12 0.08 0.06 0.04 0.02 0.01 0.01 0.01 0.02 0.05 0.07 0.09 0.12
0.08 0.21 0.42 0.47 0.42 0.42 0.38 0.22 0.13 0.13 0.13 0.15 0.19 0.19 0.22 0.22 0.25 0.32 0.44 0.60 0.65 0.68 0.65 0.57 0.51 0.49 0.50 0.45 0.54 0.67 0.70 0.58 0.39 0.27 0.21 0.16 0.11 0.07 0.05 0.02 0.01 0.00 0.00 0.00 0.01 0.02 0.04 0.06 0.07
0.09 0.17 0.42 0.66 0.59 0.41 0.27 0.18 0.13 0.11 0.10 0.12 0.13 0.16 0.18 0.21 0.30 0.37 0.44 0.51 0.58 0.59 0.60 0.61 0.64 0.67 0.73 0.74 0.69 0.87 0.93 0.79 0.53 0.37 0.31 0.24 0.17 0.19 0.16 0.05 0.03 0.01 0.00 0.00 0.01 0.02 0.02 0.02 0.04
0.12 0.22 0.42 0.53 0.43 0.29 0.23 0.19 0.15 0.15 0.14 0.11 0.15 0.18 0.17 0.21 0.31 0.36 0.40 0.43 0.45 0.51 0.52 0.52 0.55 0.62 0.72 0.79 1.10 1.29 1.08 0.92 0.63 0.60 0.43 0.39 0.38 0.39 0.26 0.14 0.11 0.06 0.04 0.02 0.02 0.02 0.02 0.01 0.00
0.10 0.16 0.21 0.30 0.31 0.19 0.16 0.16 0.16 0.13 0.13 0.13 0.15 0.17 0.19 0.23 0.29 0.33 0.37 0.39 0.42 0.44 0.44 0.43 0.41 0.42 0.50 0.69 1.01 1.27 1.34 1.26 1.12 0.85 0.60 0.57 0.39 0.24 0.16 0.11 0.13 0.11 0.07 0.04 0.03 0.02 0.01 0.01 0.01
0.11 0.11 0.11 0.18 0.18 0.16 0.14 0.11 0.12 0.10 0.11 0.11 0.15 0.17 0.20 0.24 0.27 0.29 0.36 0.39 0.43 0.45 0.45 0.42 0.41 0.38 0.39 0.46 0.62 0.80 0.91 0.94 0.92 0.72 0.56 0.60 0.50 0.35 0.27 0.21 0.19 0.13 0.08 0.05 0.04 0.02 0.01 0.01 0.01
0.10 0.09 0.09 0.12 0.13 0.13 0.10 0.09 0.09 0.10 0.13 0.13 0.17 0.25 0.31 0.34 0.33 0.34 0.38 0.42 0.45 0.52 0.58 0.55 0.46 0.43 0.42 0.45 0.51 0.57 0.71 0.77 0.76 0.74 0.66 0.62 0.58 0.50 0.41 0.30 0.23 0.17 0.14 0.10 0.07 0.04 0.02 0.01 0.03
0.07 0.08 0.10 0.11 0.11 0.10 0.10 0.10 0.09 0.11 0.14 0.17 0.22 0.30 0.38 0.46 0.46 0.47 0.48 0.49 0.49 0.53 0.60 0.65 0.57 0.52 0.48 0.45 0.48 0.51 0.61 0.68 0.70 0.67 0.64 0.68 0.70 0.63 0.53 0.43 0.36 0.29 0.26 0.27 0.18 0.07 0.04 0.02 0.02
0.05 0.07 0.10 0.11 0.13 0.14 0.14 0.14 0.11 0.13 0.16 0.21 0.25 0.30 0.37 0.46 0.51 0.54 0.53 0.51 0.51 0.53 0.56 0.59 0.60 0.60 0.58 0.57 0.56 0.55 0.61 0.70 0.69 0.65 0.60 0.59 0.63 0.66 0.65 0.58 0.48 0.42 0.42 0.39 0.31 0.18 0.10 0.06 0.04
0.07 0.11 0.19 0.16 0.18 0.21 0.24 0.20 0.14 0.16 0.18 0.21 0.24 0.28 0.33 0.37 0.42 0.48 0.50 0.47 0.47 0.46 0.47 0.52 0.54 0.59 0.65 0.67 0.69 0.71 0.71 0.77 0.73 0.70 0.63 0.59 0.60 0.64 0.73 0.68 0.59 0.51 0.53 0.52 0.46 0.32 0.19 0.10 0.06
0.07 0.12 0.16 0.15 0.15 0.19 0.22 0.20 0.18 0.19 0.19 0.21 0.23 0.22 0.23 0.26 0.31 0.36 0.39 0.41 0.42 0.41 0.41 0.44 0.48 0.51 0.62 0.70 0.73 0.81 0.84 0.85 0.82 0.80 0.70 0.68 0.73 0.77 0.87 0.90 0.83 0.75 0.68 0.60 0.47 0.39 0.28 0.15 0.10
0.12 0.08 0.09 0.11 0.09 0.10 0.12 0.14 0.15 0.16 0.15 0.15 0.16 0.17 0.17 0.18 0.22 0.27 0.28 0.29 0.30 0.32 0.34 0.38 0.43 0.45 0.53 0.68 0.80 0.95 1.06 1.03 1.04 0.98 0.85 0.87 1.00 1.12 1.23 1.18 1.18 1.14 0.93 0.77 0.63 0.52 0.42 0.27 0.19
0.06 0.05 0.06 0.08 0.09 0.09 0.10 0.12 0.14 0.14 0.13 0.12 0.11 0.12 0.13 0.12 0.13 0.15 0.19 0.22 0.22 0.22 0.25 0.31 0.34 0.42 0.50 0.58 0.72 0.94 1.21 1.31 1.39 1.34 1.16 1.11 1.22 1.44 1.62 1.55 1.54 1.46 1.25 1.12 1.05 1.09 0.96 0.66 0.35
0.05 0.07 0.06 0.05 0.05 0.06 0.08 0.09 0.09 0.11 0.12 0.12 0.11 0.10 0.10 0.09 0.07 0.07 0.10 0.13 0.15 0.15 0.17 0.22 0.30 0.39 0.48 0.57 0.74 0.90 1.05 1.05 1.21 1.35 1.31 1.22 1.21 1.35 1.48 1.69 1.71 1.57 1.51 1.56 1.53 1.67 1.65 1.16 0.66
0.06 0.09 0.11 0.11 0.07 0.05 0.06 0.09 0.08 0.09 0.11 0.11 0.12 0.11 0.10 0.08 0.06 0.06 0.06 0.08 0.09 0.10 0.12 0.15 0.22 0.32 0.45 0.61 0.84 1.05 1.24 1.32 1.37 1.29 1.36 1.36 1.28 1.31 1.39 1.54 1.67 1.63 1.63 1.65 1.70 1.92 2.16 1.81 1.25
0.06 0.05 0.06 0.09 0.14 0.14 0.15 0.19 0.14 0.15 0.18 0.18 0.18 0.15 0.14 0.12 0.09 0.06 0.06 0.07 0.07 0.08 0.08 0.12 0.20 0.35 0.56 0.77 1.03 1.28 1.49 1.51 1.40 1.45 1.47 1.34 1.26 1.22 1.27 1.40 1.53 1.62 1.60 1.66 1.68 1.70 2.04 2.18 1.82
0.02 0.02 0.03 0.07 0.12 0.11 0.10 0.17 0.16 0.22 0.30 0.32 0.30 0.26 0.20 0.16 0.13 0.12 0.11 0.12 0.13 0.14 0.16 0.23 0.43 0.68 0.93 1.14 1.40 1.69 1.69 1.57 1.48 1.47 1.44 1.38 1.37 1.34 1.33 1.45 1.50 1.50 1.53 1.60 1.83 1.96 2.13 2.19 2.05
0.01 0.02 0.05 0.08 0.11 0.07 0.06 0.13 0.24 0.28 0.33 0.37 0.36 0.30 0.23 0.19 0.22 0.27 0.31 0.37 0.41 0.44 0.58 0.79 1.05 1.24 1.33 1.45 1.60 1.72 1.70 1.71 1.65 1.46 1.37 1.35 1.37 1.42 1.48 1.54 1.51 1.46 1.47 1.55 1.72 1.91 2.06 2.25 2.29
0.01 0.04 0.10 0.12 0.14 0.12 0.12 0.27 0.38 0.34 0.29 0.29 0.30 0.25 0.20 0.24 0.33 0.45 0.61 0.74 0.84 0.96 1.08 1.22 1.42 1.56 1.50 1.47 1.52 1.55 1.57 1.56 1.55 1.48 1.38 1.32 1.32 1.32 1.35 1.45 1.56 1.62 1.63 1.70 1.82 1.90 1.80 1.95 2.19
0.02 0.07 0.18 0.23 0.21 0.23 0.27 0.47 0.52 0.41 0.31 0.22 0.17 0.16 0.24 0.38 0.52 0.63 0.72 0.83 1.00 1.14 1.19 1.19 1.30 1.40 1.35 1.33 1.31 1.28 1.34 1.36 1.32 1.23 1.22 1.25 1.31 1.28 1.21 1.24 1.35 1.49 1.62 1.63 1.64 1.61 1.54 1.63 1.77
0.04 0.06 0.14 0.27 0.23 0.23 0.35 0.61 0.57 0.37 0.31 0.25 0.22 0.25 0.38 0.58 0.79 0.94 1.04 1.17 1.21 1.25 1.30 1.22 1.21 1.25 1.25 1.17 1.09 1.09 1.14 1.19 1.22 1.16 1.17 1.14 1.12 1.05 0.99 0.97 0.99 1.07 1.13 1.17 1.28 1.33 1.39 1.39 1.48
0.09 0.16 0.24 0.42 0.46 0.45 0.54 0.65 0.58 0.46 0.43 0.45 0.52 0.61 0.67 0.78 1.03 1.32 1.57 1.74 1.57 1.30 1.18 1.13 1.06 1.06 1.14 1.11 1.04 1.01 1.09 1.10 1.09 1.12 1.10 1.08 1.06 0.96 0.88 0.84 0.77 0.73 0.70 0.72 0.88 1.03 1.11 1.19 1.31
0.15 0.26 0.34 0.46 0.56 0.70 0.88 0.97 0.83 0.86 0.88 0.95 1.06 1.10 1.10 1.21 1.19 1.34 1.53 1.70 1.60 1.28 1.05 1.05 1.06 1.01 0.99 0.99 1.01 1.00 0.98 0.90 0.88 0.93 0.95 0.94 0.93 0.93 0.87 0.80 0.74 0.79 0.77 0.72 0.76 0.79 0.81 0.87 0.98
0.27 0.38 0.52 0.69 0.63 0.69 0.89 1.06 0.95 0.94 0.96 1.05 1.23 1.30 1.29 1.20 1.10 1.09 1.13 1.20 1.21 1.06 0.87 0.83 0.96 1.01 0.95 0.92 0.95 0.94 0.85 0.80 0.77 0.75 0.72 0.65 0.63 0.64 0.70 0.76 0.69 0.66 0.69 0.68 0.73 0.78 0.79 0.76 0.79

GEFSSGP_prec_meanprecacc_072.txt.gz
Total_Precipitation_Accumulation
0.12 0.26 0.49 0.58 0.68 0.24 0.02 0.02 0.02 0.03 0.03 0.02 0.02 0.03 0.05 0.09 0.21 0.40 0.09 0.03 0.02 0.01 0.02 0.08 0.16 0.18 0.16 0.15 0.13 0.20 0.20 0.13 0.12 0.14 0.12 0.09 0.09 0.09 0.10 0.10 0.07 0.05 0.05 0.07 0.16 0.24 0.24 0.25 0.35
0.15 0.35 0.47 0.73 0.50 0.06 0.03 0.04 0.06 0.04 0.03 0.02 0.01 0.02 0.03 0.03 0.03 0.07 0.08 0.04 0.02 0.02 0.02 0.06 0.16 0.22 0.21 0.18 0.19 0.32 0.29 0.20 0.15 0.14 0.13 0.08 0.07 0.11 0.17 0.17 0.07 0.05 0.05 0.06 0.13 0.21 0.21 0.25 0.35
0.20 0.37 0.52 0.62 0.23 0.08 0.09 0.11 0.11 0.07 0.03 0.03 0.03 0.03 0.04 0.05 0.08 0.13 0.15 0.07 0.04 0.04 0.08 0.21 0.30 0.27 0.25 0.26 0.34 0.47 0.40 0.33 0.23 0.14 0.10 0.08 0.07 0.10 0.16 0.12 0.07 0.04 0.05 0.07 0.13 0.19 0.19 0.21 0.25
0.20 0.34 0.52 0.45 0.20 0.17 0.20 0.20 0.15 0.09 0.04 0.02 0.03 0.04 0.04 0.06 0.12 0.22 0.21 0.12 0.08 0.09 0.14 0.25 0.36 0.32 0.31 0.37 0.46 0.48 0.48 0.51 0.34 0.18 0.11 0.12 0.11 0.11 0.14 0.13 0.07 0.05 0.05 0.06 0.09 0.14 0.19 0.20 0.23
0.23 0.39 0.55 0.54 0.31 0.28 0.32 0.25 0.18 0.12 0.07 0.04 0.04 0.06 0.07 0.09 0.19 0.31 0.33 0.24 0.17 0.16 0.19 0.24 0.40 0.40 0.41 0.47 0.53 0.48 0.51 0.54 0.39 0.19 0.17 0.17 0.11 0.10 0.13 0.15 0.07 0.04 0.03 0.03 0.06 0.10 0.14 0.18 0.22
0.25 0.48 0.69 0.72 0.44 0.36 0.41 0.27 0.16 0.13 0.09 0.09 0.09 0.09 0.10 0.15 0.30 0.45 0.49 0.54 0.48 0.37 0.31 0.31 0.42 0.44 0.46 0.54 0.62 0.54 0.52 0.52 0.38 0.25 0.22 0.17 0.14 0.13 0.14 0.11 0.07 0.03 0.03 0.02 0.04 0.09 0.13 0.15 0.18
0.20 0.43 0.65 0.51 0.39 0.44 0.45 0.27 0.20 0.18 0.18 0.19 0.14 0.14 0.16 0.18 0.28 0.44 0.53 0.61 0.75 0.79 0.66 0.50 0.43 0.41 0.45 0.55 0.66 0.68 0.64 0.58 0.42 0.33 0.24 0.21 0.19 0.15 0.12 0.08 0.06 0.05 0.04 0.03 0.03 0.06 0.08 0.10 0.13
0.09 0.21 0.43 0.50 0.46 0.48 0.40 0.23 0.15 0.15 0.14 0.16 0.20 0.22 0.24 0.24 0.29 0.39 0.57 0.77 0.82 0.88 0.84 0.73 0.65 0.62 0.62 0.57 0.69 0.84 0.87 0.78 0.60 0.47 0.39 0.31 0.23 0.16 0.13 0.07 0.05 0.05 0.04 0.04 0.04 0.03 0.04 0.07 0.08
0.10 0.18 0.44 0.69 0.62 0.44 0.29 0.19 0.13 0.12 0.11 0.12 0.14 0.16 0.18 0.22 0.32 0.43 0.53 0.62 0.72 0.74 0.76 0.78 0.81 0.84 0.89 0.89 0.86 1.05 1.09 0.98 0.74 0.58 0.53 0.48 0.34 0.31 0.27 0.13 0.11 0.08 0.06 0.05 0.05 0.04 0.03 0.03 0.05
0.12 0.23 0.44 0.54 0.44 0.30 0.24 0.20 0.16 0.17 0.15 0.12 0.15 0.18 0.18 0.22 0.32 0.39 0.45 0.49 0.53 0.60 0.62 0.63 0.68 0.76 0.87 0.94 1.26 1.46 1.24 1.10 0.82 0.78 0.64 0.61 0.60 0.59 0.40 0.25 0.24 0.18 0.13 0.10 0.09 0.09 0.06 0.03 0.01
0.10 0.17 0.22 0.31 0.31 0.20 0.17 0.17 0.17 0.15 0.14 0.13 0.15 0.18 0.20 0.24 0.31 0.36 0.39 0.42 0.46 0.48 0.47 0.47 0.46 0.48 0.57 0.77 1.11 1.39 1.49 1.44 1.33 1.07 0.82 0.79 0.62 0.46 0.36 0.27 0.26 0.25 0.20 0.17 0.16 0.14 0.09 0.06 0.04
0.11 0.11 0.11 0.18 0.19 0.17 0.15 0.12 0.12 0.11 0.12 0.12 0.15 0.17 0.21 0.24 0.28 0.31 0.37 0.40 0.45 0.47 0.47 0.44 0.44 0.41 0.43 0.51 0.68 0.88 1.02 1.10 1.11 0.93 0.80 0.85 0.71 0.55 0.49 0.41 0.36 0.30 0.24 0.21 0.19 0.16 0.11 0.07 0.04
0.11 0.10 0.09 0.12 0.14 0.13 0.11 0.09 0.09 0.10 0.13 0.13 0.17 0.25 0.31 0.34 0.33 0.34 0.38 0.42 0.46 0.52 0.59 0.56 0.47 0.44 0.43 0.47 0.54 0.62 0.77 0.85 0.87 0.89 0.83 0.83 0.79 0.73 0.63 0.50 0.43 0.35 0.31 0.28 0.24 0.17 0.13 0.09 0.06
0.07 0.08 0.10 0.11 0.12 0.10 0.10 0.10 0.09 0.11 0.14 0.17 0.22 0.30 0.38 0.46 0.46 0.47 0.48 0.49 0.49 0.53 0.60 0.65 0.57 0.52 0.48 0.46 0.49 0.53 0.64 0.72 0.76 0.74 0.73 0.82 0.87 0.82 0.74 0.64 0.57 0.47 0.43 0.46 0.38 0.26 0.19 0.14 0.08
0.05 0.08 0.10 0.11 0.13 0.14 0.14 0.14 0.12 0.13 0.16 0.21 0.26 0.30 0.37 0.46 0.51 0.54 0.53 0.51 0.51 0.53 0.56 0.59 0.60 0.60 0.59 0.57 0.56 0.55 0.63 0.73 0.74 0.71 0.66 0.67 0.73 0.76 0.74 0.70 0.64 0.59 0.59 0.59 0.53 0.38 0.26 0.17 0.10
0.07 0.12 0.20 0.16 0.19 0.22 0.24 0.21 0.14 0.16 0.18 0.21 0.24 0.28 0.33 0.37 0.42 0.48 0.50 0.47 0.47 0.46 0.47 0.52 0.54 0.59 0.65 0.67 0.69 0.71 0.71 0.77 0.74 0.73 0.67 0.62 0.66 0.71 0.81 0.77 0.69 0.66 0.69 0.69 0.66 0.50 0.36 0.22 0.14
0.08 0.13 0.17 0.15 0.15 0.20 0.22 0.20 0.18 0.19 0.19 0.21 0.23 0.22 0.23 0.26 0.31 0.36 0.39 0.41 0.42 0.41 0.41 0.44 0.48 0.51 0.62 0.70 0.73 0.81 0.84 0.85 0.82 0.81 0.71 0.69 0.75 0.80 0.93 0.98 0.94 0.88 0.83 0.76 0.67 0.60 0.50 0.35 0.26
0.12 0.08 0.09 0.11 0.09 0.10 0.12 0.14 0.15 0.16 0.15 0.15 0.16 0.17 0.17 0.18 0.22 0.27 0.28 0.29 0.30 0.32 0.34 0.38 0.43 0.45 0.53 0.68 0.80 0.95 1.06 1.03 1.04 0.98 0.86 0.88 1.02 1.14 1.26 1.23 1.25 1.24 1.05 0.94 0.83 0.73 0.63 0.47 0.37
0.07 0.05 0.06 0.08 0.09 0.09 0.10 0.12 0.14 0.14 0.13 0.12 0.11 0.12 0.13 0.12 0.13 0.15 0.19 0.22 0.22 0.22 0.25 0.31 0.34 0.42 0.50 0.58 0.72 0.94 1.21 1.31 1.40 1.35 1.17 1.12 1.24 1.48 1.66 1.59 1.59 1.54 1.35 1.25 1.26 1.34 1.20 0.87 0.54
0.05 0.07 0.06 0.05 0.05 0.06 0.08 0.09 0.09 0.11 0.12 0.12 0.11 0.10 0.10 0.09 0.07 0.07 0.10 0.13 0.15 0.15 0.17 0.22 0.30 0.39 0.48 0.57 0.75 0.91 1.05 1.05 1.22 1.36 1.33 1.23 1.22 1.37 1.51 1.73 1.76 1.63 1.58 1.66 1.65 1.84 1.87 1.39 0.90
0.06 0.09 0.11 0.11 0.07 0.05 0.06 0.09 0.08 0.09 0.11 0.11 0.12 0.11 0.10 0.08 0.06 0.06 0.06 0.08 0.09 0.10 0.12 0.15 0.22 0.32 0.45 0.61 0.85 1.06 1.25 1.33 1.38 1.30 1.37 1.37 1.28 1.31 1.39 1.55 1.69 1.66 1.67 1.71 1.78 2.03 2.33 2.01 1.46
0.06 0.05 0.06 0.09 0.14 0.14 0.15 0.19 0.14 0.15 0.18 0.18 0.18 0.15 0.14 0.12 0.09 0.06 0.06 0.07 0.07 0.08 0.09 0.12 0.20 0.35 0.56 0.77 1.03 1.29 1.49 1.53 1.42 1.45 1.48 1.35 1.26 1.22 1.28 1.41 1.54 1.63 1.62 1.70 1.75 1.80 2.17 2.36 2.03
0.02 0.02 0.03 0.07 0.12 0.11 0.10 0.17 0.16 0.22 0.30 0.32 0.30 0.26 0.20 0.16 0.13 0.12 0.11 0.12 0.13 0.14 0.16 0.23 0.43 0.68 0.93 1.14 1.40 1.70 1.70 1.58 1.49 1.48 1.45 1.39 1.37 1.35 1.33 1.46 1.51 1.51 1.55 1.63 1.88 2.06 2.26 2.35 2.24
0.01 0.02 0.05 0.08 0.11 0.07 0.06 0.13 0.24 0.28 0.33 0.37 0.36 0.30 0.23 0.19 0.22 0.27 0.31 0.37 0.41 0.44 0.58 0.79 1.05 1.24 1.33 1.45 1.60 1.73 1.70 1.72 1.66 1.47 1.38 1.36 1.39 1.43 1.49 1.55 1.52 1.47 1.49 1.57 1.75 1.96 2.15 2.36 2.44
0.01 0.04 0.10 0.12 0.14 0.12 0.12 0.27 0.38 0.34 0.29 0.29 0.30 0.25 0.20 0.24 0.33 0.45 0.61 0.74 0.84 0.96 1.08 1.22 1.42 1.56 1.50 1.47 1.52 1.56 1.57 1.57 1.55 1.49 1.39 1.33 1.33 1.35 1.38 1.48 1.58 1.64 1.65 1.73 1.85 1.95 1.86 2.03 2.30
0.02 0.07 0.18 0.23 0.21 0.23 0.27 0.47 0.52 0.41 0.31 0.22 0.17 0.16 0.24 0.38 0.52 0.63 0.72 0.83 1.00 1.14 1.19 1.19 1.30 1.40 1.36 1.33 1.31 1.28 1.34 1.37 1.33 1.25 1.24 1.27 1.33 1.31 1.24 1.27 1.38 1.51 1.65 1.66 1.68 1.66 1.60 1.70 1.87
0.04 0.06 0.14 0.27 0.23 0.23 0.35 0.61 0.57 0.37 0.31 0.25 0.22 0.25 0.38 0.58 0.79 0.94 1.04 1.17 1.21 1.25 1.30 1.22 1.21 1.25 1.25 1.17 1.09 1.09 1.15 1.20 1.22 1.17 1.19 1.16 1.15 1.07 1.00 1.00 1.02 1.09 1.16 1.20 1.33 1.39 1.46 1.47 1.56
0.09 0.16 0.24 0.42 0.46 0.45 0.54 0.65 0.58 0.46 0.43 0.45 0.52 0.61 0.67 0.78 1.03 1.32 1.57 1.74 1.57 1.30 1.18 1.13 1.06 1.06 1.14 1.11 1.04 1.01 1.10 1.11 1.09 1.13 1.10 1.09 1.08 0.98 0.90 0.86 0.80 0.76 0.73 0.76 0.92 1.09 1.18 1.26 1.39
0.15 0.26 0.34 0.46 0.56 0.70 0.88 0.97 0.83 0.86 0.88 0.95 1.06 1.10 1.10 1.21 1.19 1.34 1.53 1.70 1.60 1.28 1.05 1.05 1.06 1.01 0.99 0.99 1.01 1.00 0.99 0.90 0.89 0.94 0.95 0.94 0.94 0.96 0.93 0.84 0.76 0.82 0.81 0.76 0.80 0.84 0.87 0.94 1.06
0.27 0.38 0.52 0.69 0.63 0.69 0.89 1.06 0.95 0.94 0.96 1.05 1.23 1.30 1.29 1.20 1.10 1.09 1.13 1.20 1.21 1.06 0.87 0.83 0.96 1.01 0.95 0.92 0.95 0.94 0.85 0.81 0.77 0.76 0.73 0.66 0.63 0.66 0.73 0.79 0.72 0.71 0.73 0.72 0.77 0.81 0.82 0.82 0.87

GEFSSGP_prec_meanprecacc_078.txt.gz
Total_Precipitation_Accumulation
0.12 0.28 0.57 0.73 0.87 0.42 0.15 0.09 0.05 0.07 0.06 0.03 0.02 0.03 0.12 0.24 0.39 0.58 0.20 0.07 0.03 0.03 0.06 0.11 0.20 0.22 0.21 0.20 0.18 0.23 0.23 0.15 0.15 0.17 0.15 0.12 0.11 0.11 0.11 0.11 0.08 0.06 0.06 0.08 0.17 0.24 0.24 0.26 0.36
0.18 0.41 0.59 0.91 0.75 0.27 0.20 0.12 0.10 0.09 0.04 0.02 0.01 0.03 0.06 0.06 0.05 0.12 0.16 0.08 0.03 0.04 0.06 0.13 0.24 0.29 0.28 0.24 0.24 0.37 0.34 0.25 0.21 0.20 0.18 0.12 0.10 0.13 0.19 0.18 0.08 0.05 0.06 0.07 0.14 0.22 0.22 0.26 0.36
0.23 0.43 0.63 0.82 0.40 0.25 0.26 0.20 0.15 0.08 0.03 0.03 0.04 0.04 0.06 0.09 0.12 0.22 0.25 0.12 0.07 0.07 0.13 0.30 0.38 0.34 0.32 0.33 0.41 0.54 0.48 0.41 0.32 0.22 0.17 0.16 0.14 0.14 0.20 0.15 0.09 0.05 0.06 0.08 0.14 0.20 0.20 0.21 0.25
0.23 0.42 0.66 0.65 0.34 0.25 0.26 0.24 0.17 0.10 0.05 0.02 0.04 0.06 0.05 0.08 0.17 0.29 0.29 0.18 0.14 0.16 0.21 0.33 0.42 0.38 0.37 0.44 0.54 0.57 0.58 0.61 0.44 0.27 0.21 0.21 0.19 0.18 0.19 0.17 0.11 0.07 0.07 0.08 0.11 0.15 0.20 0.21 0.23
0.29 0.52 0.76 0.74 0.42 0.34 0.34 0.26 0.19 0.14 0.09 0.04 0.05 0.11 0.10 0.12 0.22 0.34 0.37 0.27 0.22 0.23 0.25 0.31 0.44 0.45 0.47 0.55 0.61 0.58 0.62 0.66 0.51 0.30 0.28 0.27 0.19 0.18 0.19 0.20 0.12 0.08 0.06 0.06 0.10 0.13 0.16 0.19 0.23
0.36 0.60 0.87 0.90 0.57 0.42 0.44 0.28 0.17 0.15 0.10 0.10 0.10 0.15 0.15 0.18 0.32 0.48 0.51 0.56 0.50 0.41 0.35 0.36 0.45 0.48 0.51 0.58 0.67 0.60 0.61 0.62 0.49 0.38 0.34 0.28 0.24 0.22 0.23 0.18 0.12 0.08 0.06 0.06 0.08 0.11 0.14 0.16 0.19
0.32 0.54 0.75 0.59 0.52 0.57 0.51 0.27 0.20 0.20 0.21 0.20 0.15 0.20 0.22 0.22 0.30 0.46 0.55 0.65 0.78 0.81 0.70 0.53 0.45 0.45 0.51 0.61 0.71 0.73 0.69 0.65 0.51 0.45 0.38 0.34 0.32 0.26 0.20 0.16 0.13 0.10 0.09 0.08 0.08 0.09 0.10 0.11 0.14
0.12 0.26 0.49 0.54 0.53 0.58 0.42 0.23 0.15 0.15 0.15 0.16 0.20 0.25 0.27 0.26 0.30 0.40 0.59 0.79 0.85 0.91 0.87 0.76 0.67 0.64 0.64 0.61 0.74 0.90 0.94 0.86 0.69 0.57 0.51 0.47 0.37 0.29 0.24 0.15 0.13 0.11 0.10 0.10 0.09 0.08 0.07 0.08 0.10
0.10 0.24 0.55 0.76 0.67 0.48 0.30 0.19 0.14 0.12 0.11 0.12 0.14 0.17 0.19 0.23 0.33 0.44 0.55 0.63 0.73 0.76 0.77 0.79 0.83 0.86 0.92 0.92 0.90 1.10 1.16 1.05 0.82 0.68 0.67 0.65 0.50 0.50 0.46 0.29 0.29 0.21 0.17 0.15 0.13 0.10 0.07 0.06 0.06
0.13 0.28 0.51 0.60 0.45 0.30 0.24 0.20 0.16 0.17 0.16 0.12 0.15 0.18 0.18 0.23 0.33 0.41 0.48 0.51 0.55 0.62 0.63 0.64 0.69 0.77 0.89 0.97 1.30 1.50 1.30 1.18 0.90 0.87 0.74 0.76 0.80 0.82 0.59 0.46 0.48 0.41 0.32 0.24 0.19 0.17 0.11 0.06 0.03
0.11 0.18 0.23 0.32 0.31 0.20 0.17 0.17 0.17 0.16 0.18 0.14 0.15 0.18 0.20 0.25 0.32 0.38 0.41 0.43 0.47 0.49 0.48 0.48 0.47 0.49 0.58 0.78 1.12 1.40 1.52 1.48 1.39 1.15 0.90 0.90 0.77 0.65 0.55 0.47 0.50 0.49 0.43 0.36 0.36 0.27 0.16 0.11 0.09
0.12 0.12 0.12 0.18 0.19 0.17 0.15 0.12 0.12 0.12 0.13 0.12 0.15 0.17 0.21 0.25 0.28 0.31 0.38 0.41 0.45 0.47 0.48 0.45 0.44 0.41 0.43 0.52 0.69 0.89 1.03 1.11 1.13 0.98 0.87 0.94 0.81 0.69 0.67 0.62 0.60 0.57 0.53 0.51 0.50 0.41 0.28 0.18 0.11
0.15 0.12 0.10 0.12 0.14 0.13 0.11 0.09 0.09 0.10 0.13 0.13 0.17 0.25 0.31 0.35 0.33 0.35 0.39 0.42 0.46 0.52 0.59 0.56 0.47 0.44 0.43 0.47 0.54 0.62 0.77 0.86 0.88 0.91 0.86 0.88 0.87 0.83 0.77 0.67 0.65 0.58 0.58 0.57 0.56 0.46 0.36 0.28 0.19
0.11 0.12 0.11 0.11 0.12 0.10 0.10 0.10 0.09 0.11 0.14 0.17 0.22 0.30 0.38 0.46 0.46 0.47 0.48 0.49 0.49 0.53 0.60 0.65 0.57 0.52 0.48 0.46 0.49 0.54 0.64 0.72 0.76 0.75 0.74 0.84 0.91 0.89 0.84 0.77 0.77 0.72 0.69 0.73 0.65 0.51 0.47 0.36 0.24
0.05 0.08 0.11 0.11 0.14 0.14 0.14 0.14 0.12 0.13 0.16 0.21 0.26 0.30 0.37 0.46 0.51 0.54 0.53 0.51 0.51 0.53 0.56 0.59 0.60 0.60 0.59 0.57 0.56 0.56 0.63 0.73 0.74 0.72 0.67 0.68 0.76 0.81 0.83 0.81 0.78 0.81 0.87 0.87 0.81 0.63 0.53 0.39 0.27
0.08 0.13 0.22 0.18 0.20 0.23 0.24 0.21 0.14 0.16 0.18 0.21 0.24 0.28 0.33 0.37 0.42 0.48 0.50 0.47 0.47 0.46 0.47 0.52 0.54 0.59 0.65 0.68 0.69 0.71 0.71 0.78 0.75 0.74 0.67 0.63 0.67 0.74 0.86 0.86 0.81 0.81 0.90 0.94 0.94 0.79 0.66 0.48 0.37
0.10 0.16 0.21 0.20 0.17 0.20 0.22 0.21 0.18 0.19 0.19 0.21 0.23 0.22 0.23 0.26 0.31 0.36 0.39 0.41 0.42 0.41 0.41 0.44 0.48 0.51 0.62 0.70 0.73 0.82 0.84 0.85 0.83 0.82 0.73 0.70 0.76 0.81 0.96 1.04 1.03 1.02 0.99 0.93 0.88 0.86 0.75 0.59 0.48
0.16 0.12 0.13 0.13 0.10 0.10 0.12 0.14 0.15 0.16 0.15 0.15 0.16 0.17 0.17 0.18 0.22 0.27 0.28 0.29 0.30 0.32 0.34 0.38 0.43 0.45 0.53 0.68 0.80 0.96 1.07 1.04 1.06 1.00 0.88 0.90 1.03 1.16 1.27 1.25 1.31 1.35 1.19 1.09 0.99 0.95 0.86 0.70 0.60
0.08 0.06 0.06 0.08 0.09 0.09 0.10 0.12 0.14 0.14 0.13 0.12 0.12 0.12 0.13 0.12 0.13 0.15 0.19 0.22 0.22 0.22 0.25 0.31 0.34 0.42 0.50 0.58 0.73 0.95 1.22 1.33 1.42 1.37 1.20 1.14 1.26 1.49 1.68 1.61 1.62 1.61 1.44 1.36 1.41 1.54 1.42 1.09 0.79
0.07 0.07 0.06 0.05 0.05 0.06 0.08 0.09 0.09 0.11 0.12 0.12 0.11 0.10 0.10 0.09 0.07 0.07 0.10 0.13 0.15 0.15 0.17 0.22 0.30 0.39 0.48 0.57 0.75 0.91 1.06 1.07 1.23 1.39 1.36 1.27 1.25 1.39 1.52 1.75 1.78 1.68 1.66 1.75 1.78 2.02 2.07 1.58 1.12
0.07 0.09 0.11 0.11 0.07 0.05 0.06 0.09 0.08 0.09 0.11 0.11 0.12 0.11 0.10 0.08 0.06 0.06 0.06 0.08 0.09 0.10 0.12 0.15 0.22 0.32 0.45 0.61 0.85 1.07 1.26 1.34 1.40 1.32 1.41 1.41 1.33 1.35 1.43 1.58 1.72 1.70 1.73 1.77 1.87 2.16 2.50 2.20 1.66
0.06 0.05 0.06 0.09 0.14 0.14 0.15 0.19 0.14 0.15 0.18 0.18 0.18 0.15 0.14 0.12 0.09 0.06 0.06 0.07 0.07 0.08 0.09 0.12 0.20 0.35 0.56 0.78 1.04 1.30 1.50 1.53 1.43 1.47 1.50 1.37 1.29 1.25 1.31 1.44 1.57 1.66 1.66 1.75 1.81 1.89 2.30 2.54 2.22
0.02 0.02 0.03 0.07 0.12 0.11 0.10 0.17 0.16 0.22 0.30 0.32 0.30 0.26 0.20 0.16 0.13 0.12 0.11 0.12 0.13 0.14 0.16 0.23 0.43 0.68 0.93 1.14 1.41 1.70 1.70 1.59 1.50 1.49 1.46 1.40 1.39 1.37 1.36 1.49 1.54 1.54 1.59 1.67 1.93 2.14 2.37 2.49 2.40
0.01 0.02 0.05 0.08 0.11 0.07 0.06 0.13 0.24 0.28 0.33 0.37 0.36 0.30 0.23 0.19 0.22 0.27 0.31 0.37 0.41 0.44 0.58 0.79 1.05 1.24 1.33 1.46 1.61 1.73 1.71 1.72 1.66 1.48 1.38 1.37 1.41 1.47 1.52 1.57 1.55 1.50 1.53 1.61 1.79 2.02 2.23 2.47 2.59
0.01 0.04 0.10 0.12 0.14 0.12 0.12 0.27 0.38 0.34 0.29 0.29 0.30 0.25 0.20 0.24 0.33 0.45 0.61 0.74 0.84 0.96 1.08 1.22 1.42 1.56 1.50 1.47 1.52 1.56 1.57 1.57 1.56 1.50 1.40 1.34 1.35 1.36 1.40 1.50 1.61 1.67 1.69 1.76 1.90 2.00 1.92 2.11 2.42
0.02 0.07 0.18 0.23 0.21 0.23 0.27 0.47 0.52 0.41 0.31 0.22 0.17 0.16 0.24 0.38 0.52 0.63 0.72 0.83 1.00 1.14 1.19 1.19 1.30 1.40 1.36 1.33 1.31 1.28 1.34 1.37 1.34 1.26 1.25 1.28 1.34 1.32 1.26 1.30 1.40 1.53 1.68 1.70 1.72 1.71 1.65 1.77 1.96
0.04 0.06 0.14 0.27 0.23 0.23 0.35 0.61 0.57 0.37 0.31 0.25 0.22 0.25 0.38 0.58 0.79 0.94 1.04 1.17 1.21 1.25 1.30 1.22 1.21 1.25 1.25 1.17 1.09 1.09 1.15 1.20 1.23 1.17 1.19 1.17 1.16 1.08 1.01 1.01 1.04 1.11 1.18 1.23 1.37 1.45 1.53 1.54 1.65
0.09 0.16 0.24 0.42 0.46 0.45 0.54 0.65 0.58 0.46 0.43 0.45 0.52 0.61 0.67 0.78 1.03 1.32 1.57 1.74 1.57 1.30 1.18 1.13 1.06 1.06 1.14 1.11 1.04 1.01 1.10 1.11 1.10 1.13 1.10 1.10 1.09 1.00 0.93 0.88 0.83 0.79 0.76 0.79 0.97 1.15 1.26 1.35 1.47
0.15 0.26 0.34 0.46 0.56 0.70 0.88 0.97 0.83 0.86 0.88 0.95 1.06 1.10 1.10 1.21 1.19 1.34 1.53 1.70 1.60 1.28 1.05 1.05 1.06 1.01 0.99 0.99 1.01 1.00 0.99 0.90 0.89 0.94 0.95 0.94 0.95 0.98 0.96 0.87 0.81 0.86 0.85 0.80 0.85 0.90 0.95 1.03 1.15
0.27 0.38 0.52 0.69 0.63 0.69 0.89 1.06 0.95 0.94 0.96 1.05 1.23 1.30 1.29 1.20 1.10 1.09 1.13 1.20 1.21 1.06 0.87 0.83 0.96 1.01 0.95 0.92 0.95 0.94 0.85 0.81 0.77 0.76 0.73 0.66 0.64 0.67 0.75 0.82 0.77 0.75 0.77 0.77 0.81 0.84 0.88 0.89 0.96

GEFSSGP_prec_meanprecacc_084.txt.gz
Total_Precipitation_Accumulation
0.18 0.35 0.74 1.14 1.27 0.63 0.31 0.24 0.12 0.10 0.09 0.06 0.04 0.04 0.13 0.32 0.49 0.66 0.35 0.26 0.17 0.18 0.16 0.22 0.29 0.29 0.26 0.23 0.20 0.25 0.23 0.16 0.16 0.18 0.16 0.12 0.12 0.12 0.12 0.11 0.08 0.06 0.06 0.09 0.17 0.25 0.24 0.26 0.36
0.22 0.53 0.89 1.45 1.09 0.44 0.33 0.23 0.17 0.12 0.06 0.05 0.04 0.04 0.08 0.08 0.08 0.18 0.32 0.33 0.19 0.16 0.16 0.22 0.31 0.33 0.31 0.26 0.27 0.39 0.35 0.25 0.21 0.21 0.19 0.14 0.11 0.14 0.20 0.19 0.08 0.06 0.06 0.07 0.15 0.23 0.22 0.26 0.36
0.33 0.72 1.13 1.32 0.67 0.40 0.35 0.28 0.20 0.10 0.05 0.05 0.06 0.05 0.08 0.11 0.17 0.32 0.44 0.35 0.25 0.17 0.19 0.38 0.46 0.37 0.34 0.35 0.42 0.55 0.49 0.42 0.32 0.23 0.19 0.17 0.16 0.16 0.22 0.16 0.09 0.05 0.06 0.08 0.14 0.21 0.20 0.21 0.25
0.46 0.88 1.23 1.05 0.60 0.39 0.35 0.30 0.21 0.12 0.06 0.03 0.05 0.08 0.06 0.11 0.23 0.38 0.42 0.33 0.27 0.26 0.28 0.39 0.48 0.43 0.42 0.47 0.56 0.58 0.59 0.62 0.44 0.28 0.22 0.23 0.22 0.21 0.22 0.19 0.11 0.08 0.08 0.09 0.12 0.16 0.21 0.22 0.24
0.59 0.95 1.11 1.01 0.70 0.51 0.45 0.33 0.22 0.16 0.10 0.05 0.06 0.14 0.12 0.15 0.25 0.39 0.44 0.35 0.29 0.28 0.30 0.35 0.48 0.49 0.52 0.59 0.64 0.60 0.64 0.68 0.53 0.32 0.29 0.29 0.22 0.22 0.23 0.23 0.13 0.09 0.07 0.08 0.12 0.14 0.18 0.21 0.24
0.67 0.96 1.12 1.07 0.81 0.60 0.58 0.35 0.21 0.19 0.13 0.11 0.11 0.18 0.17 0.22 0.35 0.51 0.54 0.60 0.54 0.43 0.39 0.40 0.50 0.53 0.56 0.62 0.70 0.63 0.64 0.65 0.53 0.42 0.38 0.33 0.29 0.28 0.28 0.22 0.16 0.10 0.08 0.08 0.09 0.13 0.15 0.18 0.21
0.61 0.80 0.93 0.72 0.65 0.73 0.62 0.33 0.25 0.24 0.23 0.21 0.16 0.22 0.23 0.26 0.32 0.47 0.56 0.66 0.81 0.84 0.72 0.55 0.47 0.48 0.55 0.64 0.74 0.77 0.75 0.71 0.58 0.51 0.44 0.41 0.39 0.34 0.29 0.24 0.20 0.16 0.13 0.11 0.10 0.11 0.11 0.13 0.15
0.38 0.49 0.63 0.68 0.68 0.70 0.51 0.27 0.16 0.16 0.16 0.17 0.21 0.27 0.28 0.27 0.32 0.41 0.60 0.81 0.88 0.92 0.88 0.76 0.68 0.65 0.65 0.62 0.77 0.94 0.99 0.94 0.77 0.65 0.59 0.56 0.47 0.39 0.35 0.25 0.22 0.19 0.17 0.16 0.14 0.11 0.10 0.10 0.11
0.33 0.43 0.67 0.90 0.86 0.61 0.35 0.22 0.15 0.13 0.11 0.13 0.14 0.17 0.19 0.23 0.34 0.45 0.55 0.64 0.74 0.76 0.78 0.80 0.83 0.87 0.92 0.92 0.91 1.12 1.19 1.10 0.88 0.76 0.75 0.73 0.56 0.56 0.53 0.38 0.40 0.31 0.27 0.25 0.21 0.15 0.12 0.09 0.07
0.37 0.51 0.68 0.68 0.52 0.35 0.26 0.22 0.18 0.19 0.18 0.14 0.16 0.18 0.18 0.23 0.34 0.41 0.48 0.52 0.56 0.63 0.64 0.65 0.69 0.77 0.89 0.97 1.30 1.50 1.30 1.18 0.91 0.89 0.78 0.82 0.86 0.88 0.65 0.55 0.61 0.55 0.48 0.37 0.30 0.25 0.17 0.09 0.04
0.39 0.52 0.42 0.39 0.35 0.22 0.19 0.18 0.17 0.18 0.20 0.15 0.16 0.18 0.20 0.25 0.32 0.38 0.41 0.43 0.47 0.49 0.48 0.48 0.47 0.49 0.58 0.78 1.12 1.41 1.52 1.48 1.39 1.15 0.92 0.93 0.80 0.68 0.59 0.54 0.60 0.60 0.58 0.49 0.45 0.35 0.23 0.16 0.12
0.42 0.31 0.25 0.29 0.22 0.19 0.17 0.13 0.13 0.13 0.14 0.13 0.15 0.17 0.21 0.25 0.28 0.31 0.38 0.41 0.45 0.47 0.48 0.45 0.44 0.41 0.43 0.52 0.69 0.89 1.03 1.12 1.13 0.98 0.87 0.94 0.83 0.72 0.72 0.69 0.66 0.63 0.62 0.63 0.60 0.49 0.36 0.26 0.18
0.40 0.33 0.20 0.15 0.16 0.15 0.13 0.11 0.10 0.11 0.14 0.13 0.17 0.25 0.31 0.35 0.33 0.35 0.39 0.42 0.46 0.52 0.59 0.56 0.47 0.44 0.43 0.47 0.54 0.62 0.77 0.86 0.88 0.91 0.86 0.89 0.88 0.84 0.81 0.72 0.70 0.63 0.65 0.67 0.65 0.54 0.44 0.39 0.31
0.29 0.26 0.21 0.16 0.14 0.12 0.12 0.12 0.11 0.12 0.15 0.17 0.22 0.31 0.38 0.46 0.46 0.47 0.48 0.49 0.49 0.53 0.60 0.65 0.57 0.52 0.48 0.46 0.49 0.54 0.64 0.72 0.76 0.75 0.75 0.85 0.92 0.90 0.86 0.80 0.81 0.77 0.75 0.82 0.74 0.59 0.54 0.47 0.37
0.20 0.19 0.20 0.18 0.22 0.23 0.19 0.17 0.14 0.14 0.17 0.21 0.26 0.30 0.37 0.46 0.51 0.54 0.53 0.51 0.51 0.53 0.56 0.59 0.60 0.60 0.59 0.57 0.56 0.56 0.63 0.73 0.74 0.72 0.67 0.68 0.77 0.82 0.84 0.83 0.82 0.85 0.92 0.94 0.90 0.70 0.61 0.49 0.38
0.23 0.28 0.34 0.30 0.33 0.32 0.29 0.23 0.16 0.17 0.19 0.22 0.24 0.28 0.33 0.37 0.42 0.48 0.50 0.47 0.47 0.46 0.47 0.52 0.54 0.59 0.65 0.68 0.69 0.71 0.71 0.78 0.75 0.74 0.68 0.63 0.67 0.75 0.87 0.87 0.83 0.85 0.95 1.01 1.01 0.87 0.74 0.58 0.47
0.22 0.28 0.31 0.29 0.24 0.25 0.26 0.22 0.18 0.20 0.20 0.21 0.23 0.22 0.23 0.26 0.31 0.36 0.39 0.41 0.42 0.41 0.41 0.44 0.48 0.51 0.62 0.70 0.73 0.82 0.84 0.85 0.83 0.82 0.73 0.71 0.76 0.82 0.96 1.05 1.05 1.06 1.03 0.99 0.94 0.94 0.84 0.69 0.60
0.25 0.20 0.18 0.17 0.12 0.12 0.14 0.15 0.16 0.17 0.15 0.15 0.16 0.17 0.18 0.18 0.22 0.27 0.28 0.29 0.30 0.32 0.34 0.38 0.43 0.45 0.53 0.68 0.80 0.96 1.07 1.04 1.06 1.00 0.88 0.90 1.04 1.16 1.28 1.27 1.32 1.38 1.22 1.13 1.04 1.02 0.95 0.80 0.73
0.15 0.10 0.08 0.09 0.10 0.11 0.11 0.12 0.14 0.14 0.13 0.12 0.12 0.12 0.13 0.12 0.13 0.15 0.19 0.22 0.22 0.22 0.25 0.31 0.34 0.42 0.50 0.58 0.73 0.95 1.22 1.33 1.42 1.38 1.20 1.15 1.27 1.50 1.68 1.62 1.63 1.62 1.46 1.39 1.46 1.60 1.51 1.20 0.92
0.13 0.10 0.07 0.06 0.06 0.07 0.08 0.09 0.09 0.11 0.13 0.12 0.11 0.11 0.10 0.09 0.07 0.07 0.10 0.13 0.15 0.15 0.17 0.22 0.30 0.39 0.48 0.57 0.75 0.91 1.06 1.07 1.24 1.40 1.37 1.28 1.27 1.41 1.53 1.76 1.80 1.70 1.67 1.77 1.81 2.07 2.14 1.69 1.26
0.11 0.11 0.11 0.11 0.07 0.05 0.06 0.09 0.08 0.09 0.11 0.11 0.12 0.11 0.10 0.08 0.06 0.06 0.06 0.08 0.09 0.10 0.12 0.15 0.22 0.32 0.45 0.61 0.85 1.07 1.26 1.34 1.40 1.33 1.42 1.42 1.34 1.36 1.43 1.58 1.72 1.71 1.74 1.79 1.89 2.19 2.56 2.28 1.78
0.09 0.06 0.07 0.10 0.14 0.14 0.15 0.19 0.14 0.15 0.18 0.18 0.18 0.15 0.14 0.12 0.09 0.06 0.06 0.07 0.07 0.08 0.09 0.12 0.20 0.35 0.56 0.78 1.04 1.30 1.50 1.53 1.43 1.47 1.50 1.38 1.30 1.25 1.32 1.45 1.57 1.67 1.67 1.76 1.82 1.92 2.34 2.59 2.28
0.04 0.02 0.03 0.07 0.12 0.11 0.10 0.17 0.16 0.22 0.30 0.32 0.30 0.26 0.20 0.16 0.13 0.12 0.11 0.12 0.13 0.14 0.16 0.23 0.43 0.68 0.93 1.14 1.41 1.70 1.70 1.59 1.50 1.50 1.46 1.40 1.40 1.37 1.37 1.49 1.55 1.54 1.59 1.68 1.94 2.15 2.40 2.53 2.44
0.01 0.02 0.05 0.08 0.11 0.07 0.06 0.13 0.24 0.28 0.33 0.37 0.36 0.30 0.23 0.19 0.22 0.27 0.31 0.37 0.41 0.44 0.58 0.79 1.05 1.24 1.33 1.46 1.61 1.73 1.71 1.72 1.66 1.48 1.38 1.37 1.41 1.47 1.52 1.57 1.55 1.51 1.53 1.61 1.80 2.03 2.24 2.50 2.62
0.01 0.04 0.10 0.12 0.14 0.12 0.12 0.27 0.38 0.34 0.29 0.29 0.30 0.25 0.20 0.24 0.33 0.45 0.61 0.74 0.84 0.96 1.08 1.22 1.42 1.56 1.50 1.47 1.52 1.56 1.57 1.57 1.56 1.50 1.40 1.34 1.35 1.36 1.40 1.51 1.61 1.67 1.69 1.77 1.90 2.00 1.92 2.13 2.44
0.02 0.07 0.18 0.23 0.21 0.23 0.27 0.47 0.52 0.41 0.31 0.22 0.17 0.16 0.24 0.38 0.52 0.63 0.72 0.83 1.00 1.14 1.19 1.19 1.30 1.40 1.36 1.33 1.31 1.28 1.34 1.37 1.34 1.26 1.25 1.28 1.34 1.32 1.26 1.30 1.40 1.53 1.68 1.70 1.73 1.72 1.66 1.78 1.98
0.04 0.06 0.14 0.27 0.23 0.23 0.35 0.61 0.57 0.37 0.31 0.25 0.22 0.25 0.38 0.58 0.79 0.94 1.04 1.17 1.21 1.25 1.30 1.22 1.21 1.25 1.25 1.17 1.09 1.09 1.15 1.20 1.23 1.18 1.19 1.17 1.16 1.08 1.01 1.01 1.04 1.11 1.18 1.24 1.38 1.46 1.53 1.56 1.67
0.09 0.16 0.24 0.42 0.46 0.45 0.54 0.65 0.58 0.46 0.43 0.45 0.52 0.61 0.67 0.78 1.03 1.32 1.57 1.74 1.57 1.30 1.18 1.13 1.06 1.06 1.14 1.11 1.04 1.01 1.10 1.11 1.10 1.13 1.10 1.10 1.09 1.00 0.93 0.88 0.83 0.79 0.76 0.80 0.98 1.16 1.27 1.36 1.49
0.15 0.26 0.34 0.46 0.56 0.70 0.88 0.97 0.83 0.86 0.88 0.95 1.06 1.10 1.10 1.21 1.19 1.34 1.53 1.70 1.60 1.28 1.05 1.05 1.06 1.01 0.99 0.99 1.01 1.00 0.99 0.90 0.89 0.94 0.95 0.94 0.95 0.98 0.96 0.88 0.81 0.87 0.85 0.80 0.86 0.92 0.97 1.05 1.17
0.27 0.38 0.52 0.69 0.63 0.69 0.89 1.06 0.95 0.94 0.96 1.05 1.23 1.30 1.29 1.20 1.10 1.09 1.13 1.20 1.21 1.06 0.87 0.83 0.96 1.01 0.95 0.92 0.95 0.94 0.85 0.81 0.77 0.76 0.73 0.66 0.64 0.67 0.75 0.83 0.78 0.76 0.78 0.77 0.82 0.85 0.89 0.91 0.98

GEFSSGP_prec_meanprecacc_090.txt.gz
Total_Precipitation_Accumulation
0.33 0.51 1.00 1.50 1.58 0.76 0.37 0.29 0.18 0.17 0.17 0.11 0.06 0.05 0.14 0.34 0.52 0.69 0.41 0.33 0.25 0.24 0.24 0.33 0.44 0.44 0.41 0.36 0.31 0.32 0.29 0.20 0.19 0.21 0.19 0.14 0.13 0.13 0.13 0.12 0.09 0.06 0.06 0.09 0.17 0.25 0.24 0.26 0.36
0.32 0.74 1.27 1.81 1.32 0.53 0.37 0.27 0.24 0.18 0.12 0.08 0.05 0.04 0.08 0.09 0.09 0.22 0.41 0.45 0.32 0.27 0.28 0.35 0.50 0.52 0.47 0.41 0.40 0.50 0.44 0.34 0.29 0.27 0.23 0.17 0.14 0.16 0.21 0.20 0.09 0.06 0.06 0.07 0.15 0.23 0.22 0.26 0.36
0.52 1.17 1.65 1.60 0.82 0.47 0.40 0.35 0.29 0.19 0.11 0.08 0.07 0.06 0.08 0.12 0.19 0.37 0.54 0.48 0.40 0.32 0.33 0.54 0.66 0.56 0.52 0.52 0.59 0.71 0.63 0.55 0.45 0.33 0.27 0.24 0.21 0.21 0.25 0.18 0.10 0.06 0.07 0.09 0.15 0.21 0.20 0.21 0.25
0.72 1.40 1.69 1.27 0.70 0.45 0.41 0.38 0.30 0.20 0.09 0.04 0.05 0.09 0.07 0.11 0.24 0.41 0.49 0.43 0.38 0.38 0.39 0.52 0.65 0.62 0.62 0.66 0.75 0.77 0.77 0.79 0.61 0.43 0.36 0.34 0.31 0.28 0.28 0.24 0.14 0.09 0.09 0.09 0.13 0.17 0.21 0.22 0.24
0.93 1.34 1.36 1.14 0.79 0.57 0.51 0.40 0.31 0.23 0.13 0.05 0.06 0.15 0.12 0.16 0.27 0.42 0.49 0.42 0.37 0.37 0.38 0.43 0.59 0.61 0.65 0.72 0.79 0.78 0.83 0.87 0.71 0.50 0.49 0.48 0.38 0.34 0.34 0.33 0.21 0.15 0.11 0.10 0.13 0.15 0.18 0.21 0.25
0.97 1.19 1.25 1.15 0.88 0.66 0.64 0.42 0.29 0.24 0.15 0.11 0.12 0.18 0.18 0.23 0.36 0.54 0.59 0.65 0.59 0.50 0.45 0.46 0.56 0.60 0.64 0.72 0.83 0.77 0.81 0.86 0.72 0.60 0.57 0.52 0.49 0.48 0.45 0.37 0.28 0.21 0.18 0.15 0.15 0.16 0.17 0.19 0.22
0.87 0.95 1.03 0.77 0.69 0.77 0.67 0.38 0.29 0.27 0.26 0.22 0.16 0.22 0.23 0.26 0.33 0.49 0.59 0.70 0.85 0.88 0.76 0.59 0.51 0.52 0.59 0.70 0.82 0.86 0.85 0.85 0.74 0.67 0.61 0.60 0.58 0.54 0.48 0.42 0.36 0.30 0.27 0.23 0.21 0.18 0.15 0.16 0.18
0.61 0.61 0.70 0.73 0.72 0.74 0.54 0.29 0.18 0.18 0.18 0.18 0.22 0.27 0.28 0.28 0.32 0.43 0.62 0.84 0.90 0.95 0.90 0.78 0.69 0.66 0.67 0.64 0.80 1.01 1.08 1.02 0.87 0.76 0.72 0.72 0.64 0.56 0.54 0.45 0.40 0.37 0.35 0.33 0.30 0.23 0.19 0.17 0.16
0.51 0.53 0.73 0.95 0.89 0.65 0.37 0.24 0.17 0.14 0.12 0.13 0.15 0.18 0.20 0.24 0.34 0.45 0.56 0.65 0.75 0.77 0.79 0.81 0.84 0.87 0.93 0.93 0.92 1.14 1.22 1.14 0.94 0.82 0.82 0.81 0.64 0.65 0.65 0.54 0.60 0.52 0.49 0.47 0.42 0.34 0.26 0.20 0.16
0.51 0.61 0.74 0.71 0.55 0.38 0.29 0.24 0.19 0.21 0.18 0.14 0.17 0.18 0.18 0.23 0.34 0.42 0.48 0.52 0.56 0.63 0.64 0.65 0.69 0.77 0.89 0.97 1.30 1.50 1.30 1.18 0.92 0.90 0.80 0.85 0.90 0.94 0.73 0.66 0.80 0.77 0.72 0.63 0.56 0.51 0.39 0.26 0.15
0.50 0.60 0.48 0.42 0.38 0.25 0.22 0.21 0.19 0.19 0.20 0.16 0.16 0.18 0.20 0.25 0.32 0.38 0.41 0.43 0.47 0.49 0.48 0.48 0.47 0.49 0.58 0.78 1.12 1.41 1.52 1.48 1.39 1.15 0.92 0.93 0.81 0.70 0.63 0.61 0.70 0.74 0.76 0.66 0.63 0.55 0.39 0.30 0.23
0.51 0.38 0.28 0.32 0.25 0.22 0.20 0.16 0.15 0.14 0.15 0.13 0.15 0.18 0.21 0.25 0.29 0.32 0.38 0.41 0.45 0.47 0.48 0.45 0.44 0.41 0.43 0.52 0.69 0.89 1.03 1.12 1.13 0.98 0.87 0.94 0.83 0.73 0.73 0.71 0.70 0.67 0.70 0.73 0.72 0.61 0.46 0.35 0.27
0.49 0.40 0.23 0.18 0.18 0.18 0.16 0.15 0.14 0.12 0.14 0.14 0.18 0.25 0.32 0.35 0.34 0.35 0.39 0.42 0.46 0.52 0.59 0.56 0.47 0.44 0.43 0.47 0.54 0.62 0.77 0.86 0.88 0.91 0.86 0.89 0.88 0.85 0.82 0.73 0.72 0.65 0.68 0.73 0.74 0.64 0.53 0.47 0.38
0.37 0.34 0.26 0.19 0.17 0.15 0.15 0.15 0.13 0.13 0.15 0.17 0.22 0.31 0.38 0.46 0.46 0.47 0.48 0.49 0.49 0.53 0.60 0.65 0.57 0.52 0.48 0.46 0.49 0.54 0.64 0.72 0.76 0.75 0.75 0.85 0.92 0.91 0.86 0.81 0.82 0.78 0.78 0.86 0.80 0.65 0.59 0.53 0.44
0.29 0.27 0.25 0.23 0.24 0.25 0.21 0.19 0.15 0.14 0.17 0.22 0.26 0.30 0.38 0.46 0.51 0.54 0.53 0.51 0.51 0.53 0.56 0.59 0.60 0.60 0.59 0.57 0.56 0.56 0.63 0.73 0.74 0.72 0.67 0.68 0.77 0.82 0.84 0.83 0.83 0.87 0.95 0.98 0.96 0.76 0.67 0.54 0.43
0.32 0.34 0.39 0.33 0.35 0.34 0.31 0.24 0.16 0.17 0.19 0.22 0.25 0.28 0.33 0.37 0.42 0.48 0.50 0.47 0.47 0.46 0.47 0.52 0.54 0.59 0.65 0.68 0.69 0.71 0.71 0.78 0.75 0.74 0.68 0.63 0.68 0.75 0.87 0.87 0.84 0.87 0.97 1.04 1.05 0.92 0.79 0.63 0.53
0.32 0.33 0.35 0.31 0.26 0.27 0.26 0.22 0.18 0.20 0.20 0.21 0.23 0.22 0.23 0.26 0.31 0.36 0.39 0.41 0.42 0.41 0.41 0.44 0.48 0.51 0.62 0.70 0.73 0.82 0.84 0.85 0.83 0.82 0.73 0.71 0.76 0.82 0.96 1.05 1.05 1.06 1.04 1.01 0.97 0.97 0.88 0.74 0.65
0.31 0.23 0.20 0.19 0.13 0.12 0.14 0.15 0.16 0.17 0.16 0.16 0.16 0.17 0.18 0.18 0.22 0.27 0.28 0.29 0.30 0.32 0.34 0.38 0.43 0.45 0.53 0.68 0.80 0.96 1.07 1.04 1.06 1.00 0.88 0.90 1.04 1.17 1.29 1.27 1.32 1.38 1.23 1.15 1.07 1.05 0.99 0.84 0.78
0.19 0.13 0.10 0.10 0.11 0.11 0.11 0.12 0.14 0.14 0.13 0.12 0.12 0.12 0.13 0.12 0.13 0.15 0.19 0.22 0.22 0.22 0.25 0.31 0.34 0.42 0.50 0.58 0.73 0.95 1.22 1.33 1.42 1.38 1.20 1.15 1.27 1.51 1.69 1.63 1.64 1.63 1.47 1.40 1.48 1.63 1.55 1.25 0.97
0.19 0.13 0.09 0.07 0.07 0.07 0.08 0.09 0.09 0.11 0.13 0.12 0.11 0.11 0.10 0.09 0.07 0.07 0.10 0.13 0.15 0.15 0.17 0.22 0.30 0.39 0.48 0.57 0.75 0.91 1.06 1.07 1.24 1.40 1.37 1.28 1.28 1.41 1.54 1.77 1.81 1.71 1.68 1.78 1.82 2.09 2.17 1.74 1.32
0.14 0.12 0.12 0.12 0.08 0.06 0.07 0.09 0.08 0.09 0.11 0.11 0.12 0.11 0.10 0.08 0.06 0.06 0.06 0.08 0.09 0.10 0.12 0.15 0.22 0.32 0.45 0.61 0.85 1.07 1.26 1.34 1.40 1.33 1.42 1.42 1.35 1.37 1.44 1.59 1.73 1.71 1.75 1.80 1.91 2.21 2.59 2.32 1.84
0.11 0.07 0.07 0.10 0.14 0.14 0.15 0.19 0.14 0.15 0.19 0.18 0.18 0.15 0.14 0.12 0.09 0.06 0.06 0.07 0.07 0.08 0.09 0.12 0.20 0.35 0.56 0.78 1.04 1.30 1.50 1.54 1.43 1.47 1.50 1.38 1.30 1.26 1.32 1.45 1.58 1.67 1.67 1.77 1.84 1.94 2.36 2.62 2.32
0.05 0.03 0.04 0.07 0.12 0.11 0.10 0.17 0.16 0.22 0.30 0.32 0.30 0.26 0.20 0.16 0.13 0.12 0.11 0.12 0.13 0.14 0.16 0.23 0.43 0.68 0.93 1.14 1.41 1.70 1.70 1.59 1.50 1.50 1.46 1.40 1.40 1.38 1.37 1.50 1.55 1.55 1.59 1.68 1.95 2.16 2.40 2.54 2.46
0.04 0.04 0.06 0.08 0.12 0.07 0.06 0.13 0.24 0.28 0.33 0.37 0.36 0.30 0.23 0.19 0.22 0.27 0.31 0.37 0.41 0.44 0.58 0.79 1.05 1.24 1.33 1.46 1.61 1.73 1.71 1.72 1.66 1.48 1.38 1.37 1.41 1.47 1.52 1.57 1.55 1.51 1.53 1.62 1.80 2.03 2.24 2.51 2.64
0.03 0.05 0.11 0.12 0.14 0.12 0.12 0.27 0.38 0.34 0.29 0.29 0.30 0.25 0.20 0.24 0.33 0.45 0.61 0.74 0.84 0.96 1.08 1.22 1.42 1.56 1.50 1.47 1.52 1.56 1.57 1.57 1.56 1.50 1.40 1.34 1.35 1.37 1.40 1.51 1.61 1.67 1.69 1.77 1.90 2.00 1.93 2.13 2.46
0.03 0.07 0.18 0.23 0.21 0.23 0.27 0.47 0.52 0.41 0.31 0.22 0.17 0.16 0.24 0.38 0.52 0.63 0.72 0.83 1.00 1.14 1.19 1.19 1.30 1.40 1.36 1.33 1.31 1.28 1.34 1.37 1.34 1.26 1.25 1.28 1.34 1.32 1.26 1.30 1.40 1.54 1.68 1.70 1.73 1.72 1.66 1.78 1.99
0.04 0.06 0.14 0.27 0.23 0.23 0.35 0.61 0.57 0.37 0.31 0.25 0.22 0.25 0.38 0.58 0.79 0.94 1.04 1.17 1.21 1.25 1.30 1.22 1.21 1.25 1.25 1.17 1.09 1.09 1.15 1.20 1.23 1.18 1.19 1.17 1.16 1.08 1.01 1.01 1.04 1.11 1.18 1.24 1.38 1.46 1.54 1.56 1.67
0.09 0.16 0.24 0.42 0.46 0.45 0.54 0.65 0.58 0.46 0.43 0.45 0.52 0.61 0.67 0.78 1.03 1.32 1.57 1.74 1.57 1.30 1.18 1.13 1.06 1.06 1.14 1.11 1.04 1.01 1.10 1.11 1.10 1.13 1.10 1.10 1.09 1.00 0.93 0.89 0.84 0.79 0.76 0.80 0.98 1.16 1.27 1.36 1.49
0.15 0.26 0.34 0.46 0.56 0.70 0.88 0.97 0.83 0.86 0.88 0.95 1.06 1.10 1.10 1.21 1.19 1.34 1.53 1.70 1.60 1.28 1.05 1.05 1.06 1.01 0.99 0.99 1.01 1.00 0.99 0.90 0.89 0.94 0.95 0.94 0.95 0.98 0.96 0.88 0.81 0.88 0.86 0.81 0.86 0.92 0.97 1.05 1.17
0.27 0.38 0.52 0.69 0.63 0.69 0.89 1.06 0.95 0.94 0.96 1.05 1.23 1.30 1.29 1.20 1.10 1.09 1.13 1.20 1.21 1.06 0.87 0.83 0.96 1.01 0.95 0.92 0.95 0.94 0.85 0.81 0.77 0.76 0.73 0.66 0.64 0.67 0.75 0.83 0.78 0.77 0.79 0.79 0.83 0.85 0.89 0.91 0.98

GEFSSGP_prec_meanprecacc_096.txt.gz
Total_Precipitation_Accumulation
0.54 0.62 1.09 1.65 1.70 0.86 0.45 0.36 0.23 0.22 0.24 0.14 0.07 0.06 0.16 0.37 0.57 0.76 0.51 0.43 0.31 0.29 0.28 0.43 0.57 0.58 0.55 0.52 0.48 0.48 0.43 0.35 0.33 0.34 0.31 0.26 0.24 0.23 0.20 0.18 0.13 0.10 0.09 0.11 0.19 0.26 0.25 0.26 0.36
0.41 0.81 1.41 1.98 1.42 0.59 0.44 0.34 0.31 0.24 0.16 0.10 0.06 0.04 0.10 0.11 0.10 0.27 0.51 0.54 0.38 0.32 0.34 0.44 0.65 0.69 0.66 0.60 0.59 0.69 0.61 0.48 0.42 0.40 0.37 0.29 0.25 0.27 0.32 0.31 0.18 0.12 0.10 0.10 0.18 0.26 0.24 0.27 0.36
0.60 1.24 1.77 1.73 0.89 0.51 0.46 0.42 0.36 0.24 0.14 0.10 0.08 0.06 0.09 0.14 0.20 0.42 0.61 0.53 0.44 0.36 0.38 0.61 0.76 0.70 0.67 0.69 0.81 0.95 0.84 0.72 0.60 0.48 0.41 0.37 0.36 0.36 0.40 0.33 0.26 0.19 0.16 0.14 0.20 0.26 0.25 0.25 0.27
0.80 1.49 1.79 1.37 0.77 0.50 0.45 0.43 0.35 0.25 0.13 0.05 0.06 0.09 0.07 0.12 0.26 0.45 0.54 0.45 0.41 0.41 0.42 0.56 0.70 0.70 0.72 0.79 0.89 0.96 0.97 0.97 0.77 0.60 0.54 0.53 0.50 0.49 0.48 0.44 0.33 0.28 0.25 0.22 0.23 0.25 0.30 0.29 0.28
1.03 1.47 1.48 1.23 0.86 0.61 0.54 0.44 0.35 0.28 0.16 0.07 0.07 0.15 0.13 0.16 0.28 0.45 0.54 0.45 0.39 0.38 0.39 0.45 0.63 0.65 0.69 0.78 0.87 0.89 0.98 1.05 0.90 0.66 0.66 0.68 0.60 0.59 0.59 0.56 0.43 0.36 0.32 0.29 0.31 0.29 0.30 0.31 0.31
1.11 1.32 1.36 1.24 0.94 0.70 0.67 0.45 0.32 0.26 0.17 0.13 0.12 0.19 0.18 0.24 0.38 0.55 0.61 0.68 0.61 0.50 0.46 0.48 0.59 0.63 0.67 0.75 0.87 0.82 0.89 1.00 0.93 0.79 0.72 0.66 0.65 0.67 0.68 0.61 0.51 0.44 0.40 0.38 0.39 0.38 0.34 0.32 0.32
1.00 1.07 1.13 0.84 0.75 0.82 0.70 0.39 0.31 0.29 0.27 0.24 0.16 0.23 0.24 0.26 0.34 0.50 0.60 0.71 0.86 0.89 0.77 0.60 0.52 0.53 0.60 0.72 0.85 0.89 0.90 0.93 0.90 0.91 0.81 0.75 0.72 0.69 0.65 0.61 0.56 0.52 0.50 0.47 0.44 0.40 0.35 0.32 0.31
0.69 0.69 0.77 0.79 0.78 0.81 0.56 0.29 0.19 0.19 0.20 0.18 0.22 0.28 0.29 0.28 0.32 0.43 0.63 0.85 0.91 0.96 0.91 0.79 0.70 0.67 0.67 0.65 0.81 1.02 1.10 1.07 0.98 0.94 0.90 0.88 0.80 0.72 0.68 0.60 0.57 0.57 0.56 0.56 0.53 0.48 0.41 0.35 0.31
0.58 0.63 0.81 1.00 0.94 0.70 0.39 0.26 0.17 0.15 0.13 0.14 0.16 0.18 0.20 0.24 0.34 0.45 0.56 0.65 0.75 0.77 0.79 0.81 0.84 0.87 0.93 0.93 0.92 1.14 1.22 1.15 0.96 0.86 0.90 0.90 0.76 0.77 0.75 0.63 0.73 0.68 0.69 0.69 0.65 0.58 0.51 0.41 0.32
0.63 0.71 0.80 0.74 0.57 0.40 0.31 0.26 0.21 0.22 0.19 0.15 0.17 0.19 0.18 0.23 0.34 0.42 0.48 0.52 0.56 0.63 0.64 0.65 0.69 0.77 0.89 0.97 1.30 1.50 1.30 1.19 0.92 0.91 0.81 0.86 0.93 1.01 0.82 0.74 0.88 0.88 0.89 0.83 0.77 0.74 0.61 0.45 0.31
0.57 0.65 0.50 0.44 0.40 0.26 0.23 0.22 0.20 0.21 0.22 0.16 0.17 0.18 0.20 0.25 0.33 0.39 0.42 0.43 0.47 0.49 0.48 0.48 0.47 0.49 0.58 0.78 1.12 1.41 1.52 1.48 1.39 1.15 0.93 0.94 0.82 0.71 0.65 0.65 0.74 0.81 0.86 0.78 0.76 0.70 0.55 0.45 0.37
0.55 0.40 0.30 0.32 0.26 0.23 0.21 0.17 0.16 0.15 0.15 0.13 0.16 0.18 0.21 0.25 0.29 0.32 0.38 0.41 0.45 0.47 0.48 0.45 0.44 0.41 0.43 0.52 0.69 0.89 1.03 1.12 1.14 0.99 0.87 0.95 0.84 0.73 0.74 0.72 0.71 0.70 0.75 0.82 0.82 0.71 0.59 0.49 0.39
0.53 0.43 0.24 0.19 0.19 0.19 0.17 0.16 0.14 0.12 0.14 0.14 0.18 0.25 0.32 0.35 0.34 0.35 0.39 0.42 0.46 0.52 0.59 0.56 0.47 0.44 0.43 0.47 0.54 0.62 0.77 0.86 0.89 0.91 0.86 0.89 0.89 0.86 0.83 0.75 0.74 0.67 0.72 0.79 0.82 0.73 0.63 0.58 0.50
0.39 0.36 0.29 0.21 0.19 0.16 0.16 0.16 0.14 0.13 0.15 0.17 0.22 0.31 0.39 0.46 0.46 0.47 0.48 0.49 0.49 0.53 0.60 0.65 0.57 0.52 0.48 0.46 0.49 0.54 0.64 0.72 0.76 0.75 0.75 0.85 0.93 0.92 0.88 0.82 0.83 0.80 0.80 0.90 0.86 0.73 0.68 0.62 0.53
0.31 0.31 0.28 0.24 0.25 0.26 0.22 0.19 0.15 0.15 0.18 0.22 0.26 0.31 0.38 0.46 0.51 0.54 0.53 0.51 0.51 0.53 0.56 0.59 0.60 0.60 0.59 0.57 0.56 0.56 0.63 0.73 0.74 0.72 0.67 0.69 0.78 0.83 0.85 0.84 0.84 0.88 0.96 1.00 1.01 0.81 0.74 0.60 0.51
0.36 0.38 0.42 0.34 0.36 0.36 0.32 0.25 0.16 0.17 0.19 0.22 0.25 0.28 0.33 0.37 0.42 0.48 0.50 0.47 0.47 0.46 0.47 0.52 0.54 0.59 0.65 0.68 0.69 0.71 0.71 0.78 0.75 0.74 0.68 0.63 0.68 0.75 0.88 0.88 0.85 0.88 0.99 1.06 1.09 0.96 0.84 0.69 0.58
0.37 0.37 0.37 0.33 0.27 0.28 0.27 0.22 0.18 0.20 0.20 0.21 0.23 0.22 0.23 0.26 0.31 0.36 0.39 0.41 0.42 0.41 0.41 0.44 0.48 0.51 0.62 0.70 0.73 0.82 0.84 0.86 0.83 0.82 0.73 0.71 0.76 0.82 0.97 1.06 1.06 1.07 1.07 1.04 0.99 1.00 0.93 0.79 0.70
0.35 0.25 0.21 0.20 0.14 0.13 0.15 0.15 0.16 0.17 0.16 0.16 0.16 0.17 0.18 0.18 0.22 0.27 0.28 0.29 0.30 0.32 0.34 0.38 0.43 0.45 0.53 0.68 0.80 0.96 1.07 1.04 1.06 1.00 0.88 0.91 1.04 1.17 1.29 1.28 1.35 1.40 1.25 1.18 1.10 1.09 1.03 0.89 0.84
0.22 0.14 0.11 0.11 0.12 0.12 0.12 0.12 0.14 0.14 0.13 0.12 0.12 0.12 0.13 0.12 0.13 0.15 0.19 0.22 0.22 0.22 0.25 0.31 0.34 0.42 0.50 0.58 0.73 0.95 1.22 1.33 1.42 1.38 1.21 1.16 1.28 1.51 1.70 1.65 1.67 1.66 1.50 1.44 1.51 1.65 1.58 1.29 1.03
0.21 0.15 0.11 0.08 0.08 0.08 0.08 0.09 0.09 0.11 0.13 0.12 0.11 0.11 0.10 0.09 0.07 0.07 0.10 0.13 0.15 0.15 0.17 0.22 0.30 0.39 0.48 0.57 0.75 0.91 1.06 1.07 1.24 1.40 1.38 1.29 1.28 1.42 1.55 1.78 1.83 1.73 1.71 1.81 1.85 2.11 2.20 1.79 1.39
0.17 0.15 0.14 0.13 0.09 0.06 0.07 0.09 0.08 0.09 0.11 0.11 0.12 0.11 0.10 0.08 0.06 0.06 0.06 0.08 0.09 0.10 0.12 0.15 0.22 0.32 0.45 0.61 0.85 1.07 1.26 1.34 1.41 1.34 1.42 1.43 1.35 1.38 1.46 1.61 1.75 1.74 1.78 1.83 1.93 2.23 2.62 2.35 1.89
0.14 0.09 0.09 0.12 0.15 0.15 0.16 0.20 0.14 0.15 0.19 0.18 0.18 0.15 0.14 0.12 0.09 0.06 0.06 0.07 0.07 0.08 0.09 0.12 0.20 0.35 0.56 0.78 1.04 1.30 1.50 1.54 1.43 1.47 1.50 1.38 1.30 1.27 1.33 1.46 1.59 1.68 1.69 1.79 1.85 1.95 2.38 2.65 2.36
0.10 0.06 0.06 0.09 0.13 0.11 0.10 0.17 0.16 0.22 0.30 0.32 0.30 0.26 0.20 0.16 0.13 0.12 0.11 0.12 0.13 0.14 0.16 0.23 0.43 0.68 0.93 1.14 1.41 1.70 1.70 1.59 1.50 1.50 1.46 1.40 1.40 1.38 1.37 1.50 1.56 1.55 1.60 1.69 1.96 2.18 2.42 2.56 2.49
0.09 0.07 0.07 0.09 0.12 0.08 0.06 0.13 0.24 0.28 0.33 0.37 0.36 0.30 0.23 0.19 0.22 0.27 0.31 0.37 0.41 0.44 0.58 0.79 1.05 1.24 1.33 1.46 1.61 1.73 1.71 1.72 1.66 1.48 1.39 1.38 1.42 1.48 1.53 1.58 1.55 1.51 1.54 1.63 1.81 2.04 2.26 2.52 2.65
0.06 0.07 0.11 0.13 0.14 0.12 0.12 0.27 0.38 0.34 0.29 0.29 0.30 0.25 0.20 0.24 0.33 0.45 0.61 0.74 0.84 0.96 1.08 1.22 1.42 1.56 1.50 1.47 1.52 1.56 1.57 1.57 1.56 1.50 1.40 1.34 1.35 1.37 1.40 1.51 1.62 1.68 1.69 1.77 1.91 2.01 1.93 2.14 2.48
0.04 0.08 0.19 0.23 0.21 0.23 0.27 0.47 0.52 0.41 0.31 0.22 0.17 0.16 0.24 0.38 0.52 0.63 0.72 0.83 1.00 1.14 1.19 1.19 1.30 1.40 1.36 1.33 1.31 1.28 1.34 1.37 1.34 1.26 1.25 1.28 1.35 1.32 1.26 1.30 1.41 1.54 1.69 1.71 1.74 1.72 1.66 1.79 2.00
0.05 0.07 0.14 0.27 0.23 0.23 0.35 0.61 0.57 0.37 0.31 0.25 0.22 0.25 0.38 0.58 0.79 0.94 1.04 1.17 1.21 1.25 1.30 1.22 1.21 1.25 1.25 1.17 1.09 1.09 1.15 1.20 1.23 1.18 1.19 1.17 1.16 1.08 1.01 1.01 1.05 1.12 1.19 1.24 1.39 1.47 1.54 1.57 1.68
0.09 0.16 0.25 0.42 0.46 0.45 0.54 0.65 0.58 0.46 0.43 0.45 0.52 0.61 0.67 0.78 1.03 1.32 1.57 1.74 1.57 1.30 1.18 1.13 1.06 1.06 1.14 1.11 1.04 1.01 1.10 1.11 1.10 1.13 1.10 1.10 1.09 1.00 0.93 0.89 0.84 0.80 0.77 0.80 0.98 1.17 1.27 1.37 1.50
0.15 0.26 0.34 0.46 0.56 0.70 0.88 0.97 0.83 0.86 0.88 0.95 1.06 1.10 1.10 1.21 1.19 1.34 1.53 1.70 1.60 1.28 1.05 1.05 1.06 1.01 0.99 0.99 1.01 1.00 0.99 0.90 0.89 0.94 0.95 0.94 0.95 0.98 0.96 0.88 0.82 0.88 0.86 0.81 0.86 0.92 0.98 1.06 1.18
0.27 0.38 0.52 0.69 0.63 0.69 0.89 1.06 0.95 0.94 0.96 1.05 1.23 1.30 1.29 1.20 1.10 1.09 1.13 1.20 1.21 1.06 0.87 0.83 0.96 1.01 0.95 0.92 0.95 0.94 0.85 0.81 0.77 0.76 0.73 0.66 0.64 0.67 0.75 0.83 0.78 0.77 0.79 0.79 0.84 0.86 0.90 0.92 0.99

GEFSSGP_prec_meanprecacc_102.txt.gz
Total_Precipitation_Accumulation
0.60 0.70 1.23 1.83 1.89 1.07 0.64 0.46 0.27 0.26 0.27 0.15 0.07 0.06 0.17 0.42 0.65 0.90 0.67 0.55 0.38 0.35 0.32 0.46 0.60 0.62 0.59 0.56 0.53 0.55 0.50 0.41 0.40 0.41 0.39 0.34 0.30 0.29 0.26 0.26 0.22 0.19 0.18 0.19 0.25 0.31 0.29 0.29 0.39
0.50 0.95 1.59 2.18 1.62 0.81 0.63 0.42 0.36 0.28 0.18 0.10 0.06 0.05 0.10 0.12 0.12 0.31 0.60 0.65 0.42 0.35 0.38 0.49 0.68 0.72 0.69 0.65 0.63 0.75 0.69 0.57 0.51 0.48 0.45 0.37 0.32 0.34 0.39 0.39 0.30 0.24 0.24 0.22 0.25 0.32 0.29 0.31 0.39
0.69 1.37 1.94 1.92 1.08 0.71 0.64 0.50 0.40 0.26 0.14 0.10 0.08 0.06 0.10 0.16 0.23 0.46 0.66 0.58 0.46 0.38 0.41 0.65 0.80 0.73 0.71 0.72 0.85 1.01 0.92 0.82 0.70 0.59 0.51 0.46 0.43 0.44 0.50 0.43 0.39 0.35 0.31 0.29 0.33 0.36 0.32 0.32 0.33
0.92 1.65 1.93 1.54 0.93 0.62 0.55 0.48 0.37 0.27 0.13 0.05 0.07 0.11 0.08 0.12 0.27 0.47 0.55 0.47 0.42 0.41 0.43 0.59 0.73 0.73 0.76 0.81 0.92 1.00 1.03 1.05 0.85 0.69 0.63 0.61 0.59 0.57 0.59 0.57 0.49 0.46 0.41 0.39 0.40 0.37 0.37 0.37 0.36
1.22 1.68 1.68 1.43 1.02 0.69 0.58 0.46 0.36 0.29 0.17 0.07 0.07 0.17 0.14 0.17 0.28 0.45 0.54 0.45 0.39 0.39 0.40 0.46 0.63 0.65 0.70 0.80 0.89 0.92 1.00 1.09 0.94 0.72 0.72 0.74 0.67 0.67 0.69 0.70 0.59 0.53 0.50 0.48 0.48 0.43 0.39 0.38 0.38
1.37 1.54 1.58 1.46 1.12 0.78 0.70 0.47 0.33 0.27 0.18 0.13 0.13 0.20 0.19 0.24 0.39 0.57 0.61 0.68 0.61 0.52 0.47 0.48 0.59 0.64 0.68 0.77 0.89 0.84 0.90 1.02 0.96 0.86 0.80 0.74 0.72 0.75 0.76 0.72 0.66 0.59 0.57 0.55 0.55 0.52 0.44 0.40 0.39
1.24 1.31 1.34 1.01 0.90 0.93 0.73 0.40 0.33 0.30 0.28 0.24 0.16 0.24 0.25 0.27 0.35 0.51 0.60 0.71 0.86 0.90 0.77 0.60 0.52 0.54 0.61 0.73 0.85 0.89 0.90 0.94 0.92 0.98 0.93 0.89 0.85 0.79 0.74 0.71 0.68 0.64 0.63 0.61 0.59 0.53 0.48 0.44 0.39
0.91 0.92 0.92 0.89 0.90 0.91 0.58 0.30 0.20 0.20 0.20 0.19 0.22 0.30 0.30 0.28 0.33 0.43 0.63 0.85 0.91 0.96 0.91 0.79 0.70 0.67 0.67 0.65 0.81 1.02 1.10 1.07 0.98 0.97 0.96 0.95 0.89 0.79 0.74 0.66 0.65 0.66 0.66 0.69 0.68 0.59 0.53 0.46 0.41
0.75 0.86 0.98 1.11 1.04 0.77 0.41 0.27 0.18 0.15 0.13 0.14 0.16 0.19 0.20 0.24 0.34 0.45 0.56 0.65 0.75 0.77 0.79 0.81 0.84 0.87 0.93 0.93 0.92 1.14 1.22 1.15 0.96 0.87 0.90 0.91 0.77 0.80 0.80 0.68 0.77 0.74 0.76 0.78 0.77 0.70 0.62 0.51 0.41
0.83 0.92 0.92 0.79 0.61 0.44 0.32 0.27 0.21 0.22 0.20 0.16 0.18 0.19 0.18 0.23 0.34 0.42 0.49 0.53 0.56 0.63 0.64 0.65 0.69 0.77 0.89 0.97 1.30 1.50 1.30 1.19 0.92 0.91 0.81 0.87 0.94 1.02 0.84 0.77 0.91 0.92 0.94 0.89 0.86 0.85 0.73 0.56 0.41
0.69 0.78 0.59 0.50 0.43 0.29 0.23 0.23 0.21 0.21 0.22 0.17 0.18 0.19 0.20 0.25 0.33 0.39 0.42 0.43 0.47 0.49 0.48 0.48 0.47 0.49 0.58 0.78 1.12 1.41 1.52 1.48 1.40 1.16 0.93 0.94 0.82 0.72 0.67 0.69 0.78 0.85 0.91 0.85 0.85 0.81 0.66 0.56 0.50
0.62 0.47 0.34 0.35 0.28 0.24 0.22 0.17 0.17 0.15 0.16 0.14 0.16 0.18 0.21 0.25 0.29 0.32 0.38 0.41 0.45 0.47 0.48 0.45 0.44 0.41 0.43 0.52 0.69 0.89 1.03 1.12 1.14 0.99 0.88 0.95 0.84 0.74 0.75 0.75 0.75 0.74 0.81 0.89 0.90 0.82 0.69 0.57 0.49
0.57 0.46 0.27 0.20 0.20 0.19 0.17 0.16 0.14 0.13 0.15 0.14 0.18 0.26 0.32 0.35 0.34 0.35 0.39 0.42 0.46 0.52 0.59 0.56 0.47 0.44 0.43 0.47 0.54 0.62 0.77 0.86 0.89 0.91 0.86 0.90 0.90 0.87 0.84 0.77 0.76 0.70 0.76 0.85 0.89 0.81 0.72 0.66 0.58
0.43 0.39 0.31 0.23 0.20 0.17 0.16 0.16 0.14 0.13 0.16 0.18 0.23 0.31 0.39 0.46 0.46 0.47 0.48 0.49 0.49 0.53 0.60 0.65 0.57 0.52 0.48 0.46 0.49 0.54 0.64 0.72 0.76 0.75 0.75 0.85 0.94 0.93 0.89 0.84 0.85 0.82 0.82 0.93 0.91 0.79 0.78 0.75 0.65
0.34 0.33 0.30 0.25 0.26 0.27 0.23 0.21 0.16 0.15 0.18 0.22 0.26 0.31 0.38 0.46 0.51 0.54 0.53 0.51 0.51 0.53 0.56 0.59 0.60 0.60 0.59 0.57 0.56 0.56 0.63 0.73 0.75 0.72 0.67 0.69 0.78 0.83 0.86 0.86 0.86 0.90 0.98 1.02 1.04 0.85 0.80 0.72 0.62
0.40 0.44 0.50 0.37 0.38 0.37 0.34 0.28 0.17 0.18 0.20 0.22 0.25 0.28 0.33 0.37 0.42 0.48 0.50 0.47 0.47 0.46 0.47 0.52 0.54 0.59 0.65 0.68 0.69 0.71 0.71 0.78 0.75 0.74 0.68 0.63 0.68 0.76 0.89 0.90 0.86 0.89 1.01 1.08 1.11 0.99 0.89 0.77 0.69
0.45 0.44 0.43 0.39 0.32 0.30 0.28 0.23 0.20 0.21 0.20 0.21 0.23 0.22 0.23 0.26 0.31 0.36 0.39 0.41 0.42 0.41 0.41 0.44 0.48 0.51 0.62 0.70 0.73 0.82 0.84 0.86 0.83 0.82 0.74 0.71 0.76 0.83 1.00 1.10 1.10 1.09 1.09 1.07 1.02 1.04 0.98 0.87 0.81
0.42 0.29 0.25 0.24 0.18 0.17 0.16 0.16 0.17 0.17 0.16 0.16 0.16 0.17 0.18 0.18 0.22 0.27 0.28 0.29 0.30 0.32 0.34 0.38 0.43 0.45 0.53 0.68 0.80 0.96 1.07 1.04 1.06 1.00 0.89 0.91 1.05 1.18 1.32 1.31 1.38 1.43 1.29 1.22 1.15 1.15 1.08 0.96 0.92
0.25 0.18 0.15 0.17 0.16 0.14 0.13 0.14 0.15 0.14 0.13 0.13 0.12 0.12 0.13 0.12 0.13 0.15 0.19 0.22 0.22 0.22 0.25 0.31 0.34 0.42 0.50 0.58 0.73 0.95 1.22 1.33 1.43 1.39 1.21 1.16 1.28 1.52 1.72 1.67 1.71 1.71 1.55 1.48 1.55 1.71 1.64 1.34 1.10
0.25 0.20 0.15 0.15 0.10 0.09 0.09 0.10 0.10 0.11 0.13 0.13 0.11 0.11 0.10 0.09 0.08 0.07 0.10 0.13 0.15 0.15 0.17 0.22 0.30 0.39 0.48 0.57 0.75 0.91 1.06 1.07 1.24 1.40 1.38 1.30 1.29 1.43 1.56 1.81 1.88 1.78 1.77 1.88 1.92 2.18 2.26 1.84 1.45
0.21 0.18 0.17 0.18 0.12 0.07 0.08 0.09 0.08 0.10 0.12 0.12 0.12 0.11 0.10 0.08 0.07 0.06 0.06 0.08 0.09 0.10 0.12 0.15 0.22 0.32 0.45 0.61 0.85 1.07 1.26 1.34 1.41 1.34 1.43 1.44 1.37 1.40 1.49 1.65 1.79 1.78 1.84 1.89 1.99 2.30 2.68 2.41 1.95
0.16 0.12 0.11 0.14 0.19 0.18 0.17 0.20 0.14 0.15 0.19 0.19 0.19 0.16 0.14 0.12 0.09 0.07 0.06 0.07 0.07 0.08 0.09 0.12 0.20 0.35 0.56 0.78 1.04 1.30 1.50 1.54 1.43 1.48 1.51 1.39 1.33 1.29 1.36 1.50 1.62 1.72 1.74 1.84 1.91 2.02 2.44 2.71 2.41
0.14 0.10 0.07 0.10 0.14 0.12 0.11 0.17 0.16 0.22 0.30 0.32 0.30 0.26 0.20 0.16 0.14 0.12 0.11 0.12 0.13 0.14 0.16 0.23 0.43 0.68 0.93 1.14 1.41 1.70 1.70 1.59 1.50 1.50 1.47 1.42 1.43 1.39 1.38 1.51 1.57 1.58 1.63 1.72 2.00 2.23 2.47 2.61 2.53
0.11 0.08 0.07 0.09 0.12 0.08 0.06 0.13 0.24 0.29 0.33 0.37 0.36 0.30 0.23 0.19 0.22 0.27 0.31 0.37 0.41 0.44 0.58 0.79 1.05 1.24 1.33 1.46 1.61 1.73 1.71 1.72 1.67 1.49 1.39 1.39 1.43 1.49 1.53 1.58 1.57 1.53 1.56 1.64 1.83 2.08 2.29 2.55 2.69
0.06 0.08 0.13 0.15 0.16 0.13 0.12 0.27 0.38 0.34 0.29 0.29 0.30 0.25 0.20 0.24 0.33 0.45 0.61 0.74 0.84 0.96 1.08 1.22 1.42 1.56 1.50 1.47 1.52 1.56 1.57 1.57 1.56 1.50 1.40 1.35 1.35 1.37 1.41 1.52 1.62 1.69 1.71 1.79 1.94 2.04 1.96 2.16 2.50
0.04 0.08 0.22 0.28 0.24 0.24 0.27 0.47 0.52 0.41 0.31 0.22 0.17 0.16 0.24 0.38 0.52 0.63 0.72 0.83 1.00 1.14 1.19 1.19 1.30 1.40 1.36 1.33 1.31 1.28 1.34 1.37 1.34 1.26 1.25 1.28 1.35 1.33 1.27 1.31 1.42 1.55 1.69 1.72 1.77 1.75 1.68 1.81 2.01
0.05 0.07 0.15 0.28 0.24 0.23 0.36 0.61 0.57 0.37 0.31 0.25 0.22 0.25 0.38 0.58 0.79 0.94 1.04 1.17 1.21 1.25 1.30 1.22 1.21 1.25 1.25 1.17 1.09 1.09 1.15 1.20 1.23 1.18 1.19 1.17 1.16 1.08 1.01 1.02 1.05 1.12 1.19 1.26 1.41 1.50 1.57 1.60 1.71
0.09 0.16 0.25 0.43 0.47 0.46 0.54 0.65 0.58 0.46 0.43 0.45 0.52 0.61 0.67 0.78 1.03 1.32 1.57 1.74 1.57 1.30 1.18 1.13 1.06 1.06 1.14 1.11 1.04 1.01 1.10 1.11 1.10 1.13 1.10 1.10 1.09 1.00 0.93 0.89 0.85 0.81 0.77 0.81 0.99 1.18 1.29 1.39 1.53
0.15 0.26 0.34 0.46 0.56 0.71 0.88 0.98 0.83 0.86 0.88 0.95 1.06 1.10 1.10 1.21 1.19 1.34 1.53 1.70 1.60 1.28 1.05 1.05 1.06 1.01 0.99 0.99 1.01 1.00 0.99 0.90 0.89 0.94 0.95 0.94 0.95 0.98 0.96 0.88 0.82 0.89 0.87 0.82 0.87 0.94 0.99 1.07 1.20
0.27 0.38 0.52 0.69 0.64 0.69 0.89 1.06 0.95 0.94 0.96 1.05 1.23 1.30 1.29 1.20 1.10 1.09 1.13 1.20 1.21 1.06 0.87 0.83 0.96 1.01 0.95 0.92 0.95 0.94 0.85 0.81 0.77 0.76 0.73 0.66 0.64 0.67 0.75 0.83 0.78 0.77 0.79 0.80 0.85 0.88 0.91 0.94 1.01

GEFSSGP_prec_meanprecacc_108.txt.gz
Total_Precipitation_Accumulation
0.74 0.84 1.42 2.04 2.05 1.23 0.82 0.58 0.36 0.35 0.32 0.20 0.12 0.10 0.20 0.46 0.70 0.94 0.76 0.67 0.46 0.40 0.37 0.51 0.64 0.64 0.60 0.57 0.54 0.55 0.50 0.41 0.41 0.42 0.40 0.35 0.31 0.29 0.27 0.27 0.22 0.19 0.19 0.20 0.26 0.32 0.30 0.30 0.40
0.58 1.12 1.84 2.43 1.78 0.97 0.79 0.56 0.47 0.35 0.21 0.14 0.09 0.10 0.13 0.14 0.13 0.33 0.66 0.78 0.51 0.38 0.39 0.50 0.71 0.75 0.70 0.65 0.63 0.75 0.69 0.57 0.51 0.49 0.45 0.38 0.33 0.35 0.40 0.40 0.31 0.25 0.24 0.23 0.28 0.34 0.30 0.32 0.40
0.82 1.59 2.19 2.17 1.26 0.88 0.81 0.63 0.48 0.31 0.17 0.12 0.10 0.09 0.12 0.19 0.24 0.48 0.70 0.63 0.49 0.40 0.42 0.67 0.83 0.76 0.73 0.74 0.86 1.01 0.92 0.82 0.71 0.60 0.52 0.48 0.44 0.45 0.51 0.45 0.41 0.37 0.32 0.30 0.36 0.39 0.34 0.33 0.33
1.08 1.89 2.20 1.76 1.12 0.81 0.70 0.66 0.49 0.31 0.16 0.06 0.07 0.12 0.10 0.13 0.28 0.49 0.57 0.48 0.43 0.44 0.45 0.61 0.76 0.75 0.77 0.82 0.93 1.00 1.03 1.05 0.85 0.70 0.63 0.63 0.60 0.59 0.61 0.59 0.52 0.50 0.46 0.43 0.43 0.40 0.40 0.38 0.37
1.49 1.98 1.94 1.64 1.20 0.87 0.70 0.57 0.49 0.36 0.19 0.07 0.08 0.19 0.17 0.18 0.29 0.46 0.55 0.46 0.40 0.40 0.42 0.48 0.65 0.66 0.71 0.81 0.90 0.92 1.00 1.09 0.95 0.73 0.72 0.75 0.68 0.68 0.71 0.73 0.62 0.58 0.54 0.51 0.51 0.46 0.43 0.41 0.40
1.67 1.80 1.78 1.65 1.33 0.97 0.83 0.53 0.39 0.30 0.19 0.14 0.13 0.22 0.23 0.26 0.40 0.57 0.62 0.69 0.62 0.53 0.48 0.50 0.60 0.65 0.69 0.78 0.90 0.84 0.91 1.02 0.96 0.87 0.81 0.75 0.74 0.77 0.78 0.74 0.69 0.62 0.60 0.57 0.58 0.56 0.49 0.44 0.42
1.57 1.55 1.52 1.17 1.11 1.16 0.88 0.48 0.38 0.33 0.29 0.25 0.17 0.26 0.28 0.28 0.36 0.52 0.60 0.72 0.87 0.90 0.78 0.61 0.53 0.55 0.62 0.73 0.85 0.89 0.90 0.94 0.92 0.98 0.93 0.90 0.87 0.81 0.76 0.73 0.71 0.67 0.66 0.64 0.63 0.58 0.54 0.49 0.44
1.23 1.19 1.09 1.03 1.05 1.09 0.69 0.35 0.24 0.23 0.22 0.19 0.22 0.31 0.32 0.29 0.33 0.43 0.63 0.86 0.92 0.97 0.92 0.79 0.71 0.68 0.68 0.65 0.81 1.02 1.10 1.07 0.98 0.97 0.96 0.96 0.90 0.81 0.75 0.68 0.67 0.70 0.70 0.73 0.73 0.64 0.60 0.54 0.47
1.06 1.10 1.14 1.29 1.22 0.95 0.51 0.32 0.22 0.17 0.15 0.15 0.17 0.19 0.21 0.24 0.34 0.46 0.57 0.66 0.77 0.79 0.80 0.82 0.85 0.88 0.93 0.93 0.92 1.14 1.22 1.15 0.96 0.87 0.90 0.92 0.78 0.80 0.81 0.69 0.80 0.78 0.81 0.83 0.82 0.74 0.68 0.57 0.48
1.10 1.09 1.05 0.92 0.77 0.60 0.42 0.32 0.27 0.26 0.25 0.19 0.19 0.19 0.19 0.23 0.34 0.42 0.49 0.53 0.57 0.64 0.65 0.66 0.69 0.77 0.89 0.97 1.30 1.50 1.30 1.19 0.92 0.91 0.81 0.87 0.94 1.02 0.85 0.78 0.93 0.95 0.98 0.93 0.91 0.90 0.79 0.61 0.44
0.90 0.93 0.69 0.62 0.53 0.36 0.33 0.33 0.27 0.25 0.27 0.20 0.19 0.19 0.21 0.26 0.33 0.39 0.42 0.44 0.47 0.49 0.48 0.48 0.47 0.49 0.58 0.78 1.12 1.41 1.52 1.48 1.40 1.16 0.93 0.94 0.82 0.72 0.67 0.69 0.79 0.86 0.93 0.87 0.88 0.84 0.69 0.59 0.53
0.85 0.64 0.47 0.48 0.37 0.31 0.27 0.22 0.21 0.18 0.19 0.15 0.18 0.19 0.21 0.25 0.29 0.33 0.39 0.41 0.45 0.48 0.48 0.45 0.44 0.41 0.43 0.52 0.69 0.89 1.03 1.12 1.14 0.99 0.88 0.95 0.84 0.74 0.75 0.75 0.75 0.75 0.82 0.90 0.91 0.83 0.70 0.59 0.52
0.82 0.68 0.45 0.35 0.32 0.26 0.20 0.18 0.17 0.15 0.17 0.15 0.20 0.27 0.32 0.36 0.34 0.36 0.39 0.43 0.46 0.52 0.59 0.56 0.47 0.44 0.43 0.47 0.54 0.62 0.77 0.86 0.89 0.91 0.86 0.90 0.90 0.87 0.84 0.77 0.77 0.71 0.77 0.86 0.90 0.82 0.73 0.68 0.61
0.63 0.61 0.57 0.49 0.37 0.26 0.21 0.18 0.17 0.16 0.18 0.19 0.25 0.33 0.39 0.47 0.47 0.48 0.48 0.49 0.49 0.53 0.60 0.65 0.57 0.52 0.48 0.46 0.49 0.54 0.64 0.72 0.76 0.75 0.75 0.85 0.94 0.93 0.89 0.85 0.86 0.83 0.83 0.94 0.92 0.80 0.80 0.78 0.68
0.58 0.61 0.54 0.46 0.42 0.36 0.30 0.26 0.19 0.19 0.22 0.25 0.28 0.32 0.38 0.46 0.51 0.54 0.54 0.51 0.51 0.53 0.56 0.59 0.60 0.60 0.59 0.57 0.56 0.56 0.63 0.73 0.75 0.72 0.67 0.69 0.78 0.83 0.86 0.87 0.87 0.91 0.99 1.04 1.05 0.86 0.82 0.74 0.65
0.64 0.74 0.76 0.49 0.49 0.49 0.45 0.35 0.21 0.21 0.22 0.24 0.26 0.29 0.34 0.37 0.42 0.48 0.50 0.47 0.47 0.46 0.47 0.52 0.54 0.59 0.65 0.68 0.69 0.71 0.71 0.78 0.75 0.74 0.68 0.63 0.68 0.76 0.90 0.90 0.88 0.90 1.02 1.10 1.12 1.00 0.90 0.78 0.72
0.65 0.64 0.61 0.50 0.42 0.43 0.37 0.28 0.23 0.23 0.21 0.22 0.24 0.23 0.24 0.27 0.31 0.36 0.39 0.41 0.42 0.41 0.41 0.44 0.48 0.51 0.62 0.70 0.73 0.82 0.84 0.86 0.83 0.82 0.74 0.71 0.76 0.83 1.00 1.10 1.11 1.11 1.11 1.09 1.03 1.05 0.99 0.88 0.84
0.55 0.41 0.36 0.34 0.29 0.29 0.25 0.22 0.19 0.19 0.17 0.17 0.17 0.18 0.19 0.19 0.23 0.27 0.28 0.29 0.30 0.32 0.34 0.38 0.43 0.45 0.53 0.68 0.80 0.96 1.07 1.04 1.06 1.00 0.89 0.91 1.05 1.18 1.32 1.31 1.38 1.44 1.31 1.24 1.16 1.16 1.10 0.98 0.95
0.36 0.28 0.25 0.23 0.21 0.20 0.17 0.16 0.17 0.16 0.15 0.14 0.13 0.14 0.15 0.14 0.14 0.16 0.19 0.22 0.22 0.22 0.25 0.31 0.34 0.42 0.50 0.58 0.73 0.95 1.22 1.33 1.43 1.39 1.21 1.16 1.28 1.52 1.72 1.68 1.71 1.72 1.57 1.50 1.57 1.72 1.65 1.37 1.13
0.34 0.29 0.23 0.22 0.16 0.12 0.11 0.11 0.11 0.13 0.14 0.14 0.13 0.12 0.12 0.11 0.10 0.09 0.10 0.13 0.15 0.15 0.17 0.22 0.30 0.39 0.48 0.57 0.75 0.91 1.06 1.07 1.24 1.40 1.38 1.30 1.29 1.43 1.57 1.81 1.88 1.79 1.78 1.89 1.93 2.19 2.29 1.87 1.47
0.30 0.26 0.25 0.26 0.17 0.10 0.09 0.10 0.09 0.10 0.12 0.13 0.13 0.12 0.12 0.11 0.09 0.07 0.07 0.08 0.09 0.10 0.12 0.15 0.22 0.32 0.45 0.61 0.85 1.07 1.26 1.34 1.41 1.34 1.43 1.44 1.37 1.41 1.50 1.66 1.80 1.79 1.85 1.90 2.01 2.33 2.71 2.44 1.96
0.23 0.17 0.14 0.18 0.23 0.21 0.18 0.21 0.14 0.15 0.19 0.20 0.20 0.17 0.15 0.13 0.10 0.08 0.06 0.07 0.07 0.08 0.09 0.12 0.20 0.35 0.56 0.78 1.04 1.30 1.50 1.54 1.43 1.48 1.51 1.39 1.33 1.30 1.37 1.50 1.63 1.73 1.75 1.86 1.93 2.04 2.47 2.73 2.42
0.17 0.11 0.07 0.10 0.15 0.12 0.11 0.18 0.16 0.22 0.30 0.32 0.30 0.26 0.20 0.16 0.14 0.12 0.11 0.12 0.13 0.14 0.16 0.23 0.43 0.68 0.93 1.14 1.41 1.70 1.70 1.59 1.50 1.50 1.47 1.42 1.43 1.40 1.39 1.52 1.58 1.59 1.65 1.74 2.03 2.27 2.51 2.65 2.56
0.12 0.08 0.08 0.10 0.13 0.09 0.06 0.14 0.24 0.29 0.33 0.37 0.36 0.30 0.23 0.19 0.22 0.27 0.31 0.37 0.41 0.44 0.58 0.79 1.05 1.24 1.33 1.46 1.61 1.73 1.71 1.72 1.67 1.49 1.39 1.39 1.43 1.49 1.53 1.59 1.58 1.54 1.57 1.66 1.86 2.12 2.33 2.59 2.72
0.06 0.08 0.14 0.16 0.17 0.14 0.12 0.27 0.38 0.34 0.29 0.29 0.30 0.25 0.20 0.24 0.34 0.45 0.61 0.74 0.84 0.96 1.08 1.22 1.42 1.56 1.50 1.47 1.52 1.56 1.57 1.57 1.56 1.50 1.40 1.35 1.35 1.37 1.41 1.52 1.63 1.70 1.71 1.81 1.95 2.09 2.00 2.21 2.53
0.04 0.09 0.24 0.30 0.25 0.24 0.28 0.47 0.52 0.41 0.31 0.22 0.17 0.16 0.24 0.38 0.52 0.63 0.72 0.83 1.00 1.14 1.19 1.19 1.30 1.40 1.36 1.33 1.31 1.28 1.34 1.37 1.34 1.26 1.25 1.28 1.35 1.33 1.27 1.32 1.42 1.56 1.70 1.74 1.78 1.79 1.73 1.85 2.05
0.05 0.07 0.15 0.28 0.24 0.24 0.36 0.61 0.57 0.37 0.31 0.25 0.22 0.25 0.38 0.58 0.79 0.94 1.04 1.17 1.21 1.25 1.30 1.22 1.21 1.25 1.25 1.17 1.09 1.09 1.15 1.20 1.23 1.18 1.19 1.17 1.16 1.09 1.02 1.02 1.06 1.13 1.20 1.26 1.42 1.52 1.60 1.61 1.72
0.09 0.16 0.25 0.43 0.47 0.47 0.55 0.66 0.58 0.46 0.43 0.45 0.52 0.61 0.67 0.78 1.03 1.32 1.57 1.74 1.57 1.30 1.18 1.13 1.06 1.06 1.14 1.11 1.04 1.01 1.10 1.11 1.10 1.13 1.10 1.10 1.09 1.00 0.93 0.89 0.85 0.81 0.78 0.81 1.00 1.19 1.30 1.40 1.54
0.15 0.26 0.34 0.46 0.56 0.71 0.89 0.99 0.84 0.86 0.88 0.95 1.06 1.10 1.10 1.21 1.19 1.34 1.53 1.70 1.60 1.28 1.05 1.05 1.06 1.01 0.99 0.99 1.01 1.00 0.99 0.90 0.89 0.94 0.95 0.94 0.95 0.98 0.96 0.88 0.82 0.89 0.87 0.82 0.88 0.94 1.00 1.08 1.21
0.28 0.38 0.52 0.69 0.64 0.69 0.90 1.06 0.95 0.94 0.96 1.05 1.23 1.30 1.29 1.20 1.10 1.09 1.13 1.20 1.21 1.06 0.87 0.83 0.96 1.01 0.95 0.92 0.95 0.94 0.85 0.81 0.77 0.76 0.73 0.66 0.64 0.67 0.75 0.83 0.78 0.77 0.79 0.80 0.86 0.88 0.92 0.94 1.02

GEFSSGP_prec_meanprecacc_114.txt.gz
Total_Precipitation_Accumulation
0.91 0.92 1.51 2.18 2.18 1.33 0.89 0.62 0.39 0.40 0.38 0.26 0.17 0.15 0.24 0.49 0.72 0.95 0.77 0.68 0.47 0.42 0.41 0.57 0.73 0.73 0.67 0.62 0.57 0.57 0.52 0.43 0.42 0.44 0.42 0.36 0.34 0.32 0.30 0.29 0.25 0.22 0.22 0.23 0.28 0.33 0.30 0.31 0.41
0.68 1.19 1.97 2.59 1.92 1.06 0.86 0.60 0.51 0.39 0.27 0.19 0.15 0.16 0.17 0.16 0.14 0.34 0.67 0.81 0.54 0.40 0.43 0.55 0.79 0.83 0.76 0.70 0.68 0.78 0.71 0.58 0.52 0.49 0.46 0.40 0.35 0.37 0.43 0.43 0.33 0.28 0.27 0.26 0.30 0.37 0.31 0.32 0.40
0.89 1.71 2.37 2.32 1.37 0.97 0.88 0.68 0.51 0.35 0.22 0.17 0.16 0.15 0.16 0.20 0.25 0.49 0.71 0.64 0.51 0.42 0.45 0.71 0.88 0.80 0.76 0.76 0.88 1.02 0.94 0.83 0.71 0.60 0.53 0.49 0.45 0.46 0.52 0.46 0.43 0.40 0.35 0.33 0.38 0.41 0.36 0.34 0.34
1.21 2.03 2.36 1.87 1.20 0.88 0.74 0.69 0.52 0.35 0.19 0.10 0.12 0.16 0.13 0.14 0.29 0.50 0.58 0.50 0.45 0.47 0.49 0.64 0.79 0.78 0.80 0.84 0.94 1.01 1.04 1.05 0.86 0.70 0.65 0.64 0.62 0.60 0.62 0.61 0.55 0.53 0.49 0.47 0.47 0.43 0.42 0.40 0.39
1.61 2.10 2.03 1.72 1.26 0.92 0.74 0.60 0.52 0.40 0.23 0.11 0.10 0.20 0.19 0.18 0.30 0.47 0.57 0.48 0.41 0.42 0.45 0.52 0.67 0.67 0.72 0.82 0.91 0.93 1.02 1.10 0.96 0.74 0.74 0.77 0.70 0.70 0.72 0.74 0.64 0.61 0.58 0.55 0.56 0.50 0.47 0.45 0.44
1.85 1.93 1.84 1.69 1.39 1.02 0.86 0.56 0.42 0.34 0.23 0.17 0.15 0.23 0.24 0.27 0.40 0.58 0.63 0.70 0.62 0.54 0.49 0.52 0.63 0.66 0.70 0.80 0.91 0.85 0.92 1.03 0.97 0.87 0.81 0.76 0.75 0.79 0.80 0.76 0.71 0.65 0.63 0.61 0.63 0.61 0.54 0.49 0.47
1.77 1.67 1.56 1.20 1.15 1.22 0.93 0.51 0.42 0.37 0.32 0.27 0.18 0.27 0.29 0.29 0.37 0.53 0.61 0.72 0.88 0.92 0.79 0.63 0.56 0.57 0.64 0.76 0.88 0.91 0.92 0.96 0.93 0.99 0.94 0.91 0.88 0.82 0.77 0.75 0.74 0.72 0.70 0.69 0.66 0.62 0.58 0.54 0.49
1.49 1.33 1.16 1.07 1.09 1.14 0.74 0.39 0.27 0.27 0.24 0.21 0.23 0.32 0.32 0.30 0.33 0.44 0.65 0.86 0.93 0.98 0.92 0.80 0.71 0.69 0.70 0.67 0.83 1.03 1.11 1.08 0.99 0.97 0.97 0.97 0.91 0.81 0.76 0.69 0.70 0.73 0.74 0.77 0.77 0.68 0.64 0.61 0.54
1.30 1.23 1.23 1.34 1.26 1.00 0.55 0.36 0.25 0.20 0.16 0.16 0.19 0.20 0.21 0.24 0.35 0.47 0.58 0.67 0.78 0.80 0.80 0.82 0.85 0.88 0.94 0.93 0.92 1.14 1.23 1.15 0.97 0.87 0.90 0.92 0.78 0.80 0.81 0.70 0.81 0.80 0.83 0.87 0.86 0.80 0.74 0.64 0.55
1.26 1.20 1.15 0.98 0.81 0.65 0.48 0.37 0.31 0.29 0.28 0.22 0.21 0.21 0.19 0.24 0.35 0.43 0.50 0.54 0.58 0.64 0.65 0.66 0.69 0.77 0.89 0.97 1.30 1.50 1.30 1.19 0.92 0.91 0.81 0.87 0.94 1.02 0.85 0.79 0.94 0.96 0.99 0.95 0.93 0.94 0.84 0.67 0.49
1.02 1.04 0.79 0.68 0.59 0.40 0.37 0.37 0.32 0.30 0.30 0.22 0.21 0.20 0.22 0.27 0.34 0.40 0.43 0.44 0.48 0.50 0.48 0.48 0.47 0.49 0.58 0.78 1.12 1.41 1.52 1.48 1.40 1.16 0.93 0.94 0.82 0.72 0.67 0.69 0.79 0.87 0.94 0.88 0.90 0.87 0.72 0.62 0.56
0.97 0.75 0.57 0.57 0.42 0.35 0.33 0.29 0.28 0.25 0.22 0.17 0.20 0.20 0.23 0.26 0.30 0.33 0.39 0.42 0.46 0.48 0.48 0.45 0.44 0.41 0.43 0.52 0.69 0.89 1.03 1.12 1.14 0.99 0.88 0.95 0.84 0.74 0.75 0.75 0.75 0.75 0.82 0.90 0.92 0.84 0.72 0.61 0.53
0.92 0.78 0.52 0.42 0.39 0.32 0.27 0.25 0.23 0.23 0.22 0.17 0.21 0.28 0.33 0.36 0.35 0.36 0.40 0.43 0.46 0.52 0.59 0.56 0.47 0.44 0.43 0.47 0.54 0.62 0.77 0.86 0.89 0.91 0.86 0.90 0.90 0.87 0.84 0.77 0.77 0.71 0.77 0.86 0.90 0.83 0.74 0.69 0.61
0.71 0.70 0.66 0.57 0.45 0.34 0.28 0.25 0.22 0.22 0.22 0.21 0.27 0.34 0.40 0.47 0.47 0.48 0.48 0.49 0.49 0.53 0.60 0.65 0.57 0.52 0.48 0.46 0.49 0.54 0.64 0.72 0.76 0.75 0.75 0.85 0.94 0.93 0.89 0.85 0.86 0.83 0.84 0.95 0.93 0.81 0.82 0.79 0.69
0.64 0.71 0.64 0.56 0.50 0.44 0.37 0.33 0.23 0.24 0.25 0.27 0.30 0.34 0.39 0.47 0.51 0.54 0.54 0.51 0.51 0.53 0.56 0.59 0.60 0.60 0.59 0.57 0.56 0.56 0.63 0.73 0.75 0.72 0.67 0.69 0.78 0.83 0.86 0.87 0.87 0.91 0.99 1.04 1.06 0.88 0.84 0.76 0.67
0.71 0.83 0.86 0.57 0.57 0.55 0.52 0.42 0.25 0.24 0.25 0.26 0.29 0.32 0.36 0.39 0.43 0.48 0.50 0.47 0.47 0.46 0.47 0.52 0.54 0.59 0.65 0.68 0.69 0.71 0.71 0.78 0.75 0.74 0.68 0.63 0.68 0.76 0.90 0.90 0.88 0.90 1.02 1.10 1.13 1.02 0.92 0.80 0.73
0.69 0.71 0.67 0.54 0.47 0.48 0.41 0.31 0.25 0.25 0.23 0.24 0.26 0.25 0.26 0.28 0.31 0.36 0.39 0.41 0.42 0.41 0.41 0.44 0.48 0.51 0.62 0.70 0.73 0.82 0.84 0.86 0.83 0.82 0.74 0.71 0.76 0.83 1.00 1.10 1.11 1.11 1.11 1.09 1.05 1.07 1.00 0.89 0.85
0.58 0.45 0.41 0.36 0.32 0.32 0.27 0.23 0.20 0.20 0.18 0.18 0.18 0.19 0.20 0.21 0.23 0.27 0.28 0.29 0.30 0.32 0.34 0.38 0.43 0.45 0.53 0.68 0.80 0.96 1.07 1.04 1.06 1.00 0.89 0.91 1.05 1.18 1.32 1.31 1.39 1.45 1.31 1.25 1.17 1.18 1.11 0.99 0.96
0.38 0.30 0.27 0.26 0.22 0.21 0.18 0.17 0.18 0.16 0.15 0.14 0.14 0.15 0.16 0.15 0.15 0.16 0.20 0.22 0.22 0.22 0.25 0.31 0.34 0.42 0.50 0.58 0.73 0.95 1.22 1.33 1.43 1.39 1.21 1.16 1.28 1.52 1.72 1.68 1.72 1.73 1.58 1.51 1.58 1.75 1.68 1.39 1.14
0.36 0.31 0.24 0.25 0.16 0.13 0.11 0.12 0.12 0.13 0.14 0.14 0.13 0.12 0.12 0.12 0.10 0.09 0.10 0.13 0.15 0.16 0.17 0.22 0.30 0.39 0.48 0.57 0.75 0.91 1.06 1.07 1.24 1.40 1.38 1.30 1.29 1.43 1.57 1.82 1.89 1.81 1.80 1.91 1.94 2.22 2.32 1.89 1.48
0.32 0.27 0.26 0.27 0.17 0.10 0.09 0.11 0.09 0.10 0.12 0.13 0.14 0.12 0.12 0.11 0.09 0.08 0.07 0.08 0.09 0.10 0.12 0.15 0.22 0.32 0.45 0.61 0.85 1.07 1.26 1.34 1.41 1.34 1.43 1.44 1.37 1.41 1.50 1.66 1.81 1.81 1.86 1.92 2.04 2.35 2.75 2.46 1.97
0.24 0.17 0.15 0.18 0.23 0.21 0.19 0.21 0.14 0.15 0.19 0.20 0.20 0.17 0.15 0.14 0.10 0.08 0.07 0.07 0.08 0.08 0.09 0.12 0.20 0.35 0.56 0.78 1.04 1.30 1.50 1.54 1.43 1.48 1.51 1.39 1.33 1.30 1.37 1.50 1.63 1.75 1.76 1.87 1.96 2.07 2.50 2.76 2.44
0.17 0.12 0.08 0.10 0.15 0.12 0.11 0.18 0.16 0.22 0.30 0.32 0.30 0.26 0.20 0.17 0.14 0.13 0.11 0.13 0.13 0.14 0.16 0.23 0.43 0.68 0.93 1.14 1.41 1.70 1.70 1.59 1.50 1.50 1.47 1.42 1.43 1.40 1.39 1.53 1.59 1.59 1.65 1.74 2.05 2.30 2.54 2.69 2.59
0.12 0.09 0.08 0.10 0.13 0.09 0.06 0.14 0.24 0.29 0.33 0.37 0.36 0.30 0.23 0.19 0.22 0.27 0.31 0.37 0.41 0.44 0.58 0.79 1.05 1.24 1.33 1.46 1.61 1.73 1.71 1.72 1.67 1.49 1.39 1.39 1.43 1.49 1.53 1.59 1.58 1.54 1.57 1.67 1.88 2.14 2.35 2.62 2.76
0.06 0.08 0.14 0.16 0.17 0.14 0.12 0.27 0.38 0.34 0.29 0.29 0.30 0.25 0.20 0.24 0.34 0.45 0.61 0.74 0.84 0.96 1.08 1.22 1.42 1.56 1.50 1.47 1.52 1.56 1.57 1.57 1.56 1.50 1.40 1.35 1.36 1.37 1.41 1.52 1.64 1.70 1.72 1.83 1.99 2.11 2.02 2.23 2.58
0.04 0.09 0.24 0.30 0.25 0.24 0.28 0.47 0.52 0.42 0.31 0.23 0.17 0.16 0.24 0.38 0.52 0.63 0.72 0.83 1.00 1.14 1.19 1.19 1.30 1.40 1.36 1.33 1.31 1.28 1.34 1.37 1.34 1.26 1.25 1.28 1.35 1.33 1.27 1.32 1.43 1.56 1.71 1.75 1.81 1.81 1.77 1.89 2.11
0.05 0.07 0.15 0.28 0.24 0.24 0.36 0.62 0.57 0.37 0.31 0.25 0.22 0.25 0.38 0.58 0.79 0.94 1.04 1.17 1.21 1.25 1.30 1.22 1.21 1.25 1.25 1.17 1.09 1.09 1.15 1.20 1.23 1.18 1.19 1.17 1.17 1.09 1.02 1.02 1.06 1.13 1.20 1.27 1.43 1.53 1.63 1.66 1.77
0.09 0.16 0.25 0.43 0.47 0.47 0.55 0.66 0.58 0.46 0.43 0.45 0.52 0.61 0.67 0.78 1.03 1.32 1.57 1.74 1.57 1.30 1.18 1.13 1.06 1.06 1.14 1.11 1.04 1.01 1.10 1.11 1.10 1.13 1.10 1.10 1.09 1.01 0.93 0.89 0.85 0.82 0.78 0.82 1.00 1.19 1.31 1.42 1.56
0.15 0.26 0.34 0.46 0.56 0.71 0.89 0.99 0.84 0.86 0.88 0.95 1.06 1.10 1.10 1.21 1.19 1.34 1.54 1.71 1.60 1.29 1.05 1.05 1.06 1.01 0.99 0.99 1.01 1.00 0.99 0.90 0.89 0.94 0.95 0.94 0.95 0.99 0.96 0.88 0.82 0.89 0.88 0.83 0.88 0.95 1.01 1.09 1.22
0.28 0.38 0.52 0.69 0.64 0.70 0.90 1.07 0.95 0.94 0.96 1.05 1.23 1.30 1.29 1.20 1.10 1.09 1.14 1.20 1.21 1.06 0.87 0.83 0.96 1.01 0.95 0.92 0.95 0.94 0.85 0.81 0.77 0.76 0.73 0.66 0.64 0.67 0.75 0.83 0.79 0.77 0.79 0.81 0.86 0.89 0.93 0.95 1.03

GEFSSGP_prec_meanprecacc_120.txt.gz
Total_Precipitation_Accumulation
1.00 0.97 1.55 2.23 2.27 1.42 0.97 0.68 0.42 0.42 0.40 0.27 0.19 0.17 0.27 0.53 0.77 0.98 0.80 0.71 0.49 0.43 0.43 0.61 0.78 0.79 0.74 0.68 0.63 0.63 0.57 0.47 0.45 0.48 0.45 0.40 0.36 0.36 0.34 0.33 0.30 0.29 0.28 0.29 0.34 0.39 0.33 0.33 0.43
0.71 1.21 2.00 2.62 1.98 1.16 0.96 0.69 0.55 0.43 0.29 0.21 0.17 0.17 0.19 0.18 0.15 0.35 0.70 0.86 0.56 0.41 0.44 0.57 0.82 0.87 0.82 0.76 0.72 0.81 0.74 0.61 0.54 0.52 0.48 0.42 0.38 0.40 0.46 0.46 0.39 0.34 0.33 0.30 0.34 0.42 0.36 0.36 0.43
0.92 1.73 2.41 2.38 1.44 1.05 0.97 0.75 0.57 0.39 0.24 0.20 0.19 0.17 0.17 0.22 0.25 0.50 0.74 0.67 0.53 0.44 0.46 0.72 0.91 0.83 0.80 0.80 0.91 1.04 0.95 0.84 0.73 0.62 0.54 0.50 0.46 0.47 0.53 0.48 0.47 0.45 0.40 0.38 0.44 0.48 0.43 0.39 0.37
1.28 2.09 2.39 1.91 1.24 0.92 0.77 0.72 0.56 0.40 0.22 0.11 0.14 0.18 0.14 0.16 0.30 0.51 0.59 0.51 0.46 0.48 0.52 0.68 0.83 0.82 0.82 0.86 0.95 1.02 1.05 1.06 0.87 0.72 0.66 0.65 0.63 0.61 0.63 0.62 0.56 0.56 0.53 0.52 0.53 0.50 0.49 0.46 0.44
1.70 2.19 2.10 1.77 1.30 0.95 0.76 0.61 0.55 0.45 0.27 0.13 0.11 0.22 0.21 0.20 0.31 0.48 0.59 0.49 0.42 0.43 0.48 0.55 0.70 0.70 0.74 0.84 0.94 0.95 1.02 1.11 0.97 0.75 0.75 0.78 0.71 0.71 0.73 0.75 0.65 0.62 0.60 0.59 0.60 0.55 0.52 0.50 0.50
1.99 2.04 1.92 1.74 1.43 1.06 0.89 0.57 0.45 0.38 0.26 0.20 0.17 0.25 0.26 0.29 0.42 0.59 0.64 0.72 0.64 0.55 0.50 0.54 0.65 0.68 0.72 0.82 0.95 0.88 0.92 1.03 0.98 0.88 0.82 0.77 0.76 0.80 0.82 0.78 0.73 0.66 0.65 0.63 0.65 0.65 0.58 0.55 0.54
1.86 1.75 1.64 1.24 1.19 1.28 0.97 0.52 0.45 0.40 0.35 0.32 0.20 0.29 0.31 0.31 0.39 0.53 0.62 0.73 0.89 0.93 0.80 0.64 0.58 0.60 0.67 0.80 0.92 0.93 0.93 0.96 0.94 0.99 0.94 0.92 0.89 0.83 0.78 0.76 0.75 0.73 0.72 0.71 0.69 0.65 0.61 0.59 0.58
1.54 1.38 1.22 1.12 1.15 1.20 0.78 0.42 0.29 0.29 0.28 0.23 0.24 0.33 0.34 0.31 0.34 0.44 0.65 0.87 0.94 0.98 0.93 0.81 0.72 0.70 0.72 0.70 0.85 1.04 1.12 1.08 0.99 0.98 0.97 0.97 0.91 0.82 0.76 0.70 0.71 0.75 0.76 0.79 0.79 0.71 0.69 0.65 0.61
1.35 1.29 1.28 1.39 1.31 1.04 0.58 0.39 0.28 0.21 0.18 0.18 0.20 0.21 0.22 0.25 0.35 0.47 0.59 0.67 0.78 0.80 0.81 0.82 0.85 0.88 0.94 0.94 0.93 1.15 1.23 1.16 0.97 0.87 0.90 0.92 0.78 0.80 0.81 0.70 0.82 0.81 0.85 0.89 0.88 0.82 0.79 0.70 0.61
1.32 1.26 1.20 1.01 0.82 0.67 0.50 0.39 0.33 0.34 0.33 0.25 0.23 0.22 0.20 0.25 0.35 0.44 0.51 0.55 0.59 0.65 0.65 0.66 0.69 0.77 0.89 0.97 1.30 1.50 1.30 1.19 0.92 0.91 0.81 0.87 0.94 1.02 0.85 0.79 0.95 0.97 1.01 0.98 0.96 0.97 0.89 0.72 0.54
1.07 1.10 0.84 0.70 0.60 0.41 0.40 0.40 0.34 0.35 0.36 0.25 0.23 0.22 0.24 0.29 0.36 0.42 0.45 0.45 0.49 0.50 0.48 0.48 0.47 0.49 0.58 0.78 1.12 1.41 1.52 1.48 1.40 1.16 0.93 0.94 0.82 0.72 0.67 0.69 0.79 0.87 0.94 0.89 0.92 0.91 0.76 0.66 0.61
1.00 0.79 0.60 0.59 0.43 0.37 0.36 0.33 0.32 0.28 0.25 0.18 0.21 0.22 0.25 0.28 0.32 0.34 0.40 0.42 0.46 0.48 0.48 0.45 0.44 0.41 0.43 0.52 0.69 0.89 1.03 1.12 1.14 0.99 0.88 0.95 0.84 0.74 0.75 0.75 0.75 0.75 0.83 0.91 0.94 0.88 0.75 0.63 0.56
0.94 0.81 0.53 0.44 0.40 0.34 0.29 0.27 0.27 0.25 0.23 0.18 0.23 0.30 0.35 0.38 0.36 0.37 0.40 0.43 0.46 0.52 0.59 0.56 0.47 0.44 0.43 0.47 0.54 0.62 0.77 0.86 0.89 0.91 0.86 0.90 0.90 0.87 0.84 0.77 0.77 0.71 0.77 0.86 0.92 0.86 0.78 0.72 0.64
0.73 0.73 0.68 0.59 0.46 0.35 0.30 0.27 0.24 0.23 0.23 0.22 0.28 0.36 0.42 0.49 0.47 0.48 0.48 0.49 0.49 0.53 0.60 0.65 0.57 0.52 0.48 0.46 0.49 0.54 0.64 0.72 0.76 0.75 0.75 0.85 0.94 0.93 0.89 0.85 0.86 0.83 0.84 0.95 0.93 0.83 0.86 0.83 0.72
0.65 0.73 0.67 0.58 0.52 0.45 0.39 0.35 0.24 0.25 0.27 0.29 0.33 0.36 0.41 0.48 0.52 0.54 0.54 0.51 0.51 0.53 0.56 0.59 0.60 0.60 0.59 0.57 0.56 0.56 0.63 0.73 0.75 0.72 0.67 0.69 0.78 0.83 0.86 0.87 0.87 0.91 0.99 1.04 1.06 0.89 0.87 0.81 0.71
0.72 0.86 0.89 0.60 0.59 0.56 0.54 0.46 0.26 0.26 0.28 0.29 0.31 0.33 0.37 0.40 0.44 0.48 0.50 0.47 0.47 0.46 0.47 0.52 0.54 0.59 0.65 0.68 0.69 0.71 0.71 0.78 0.75 0.74 0.68 0.63 0.68 0.76 0.90 0.90 0.88 0.90 1.03 1.10 1.14 1.03 0.94 0.85 0.80
0.70 0.72 0.69 0.56 0.49 0.50 0.43 0.33 0.26 0.26 0.26 0.25 0.27 0.26 0.26 0.29 0.32 0.36 0.39 0.41 0.42 0.41 0.41 0.44 0.48 0.51 0.62 0.70 0.73 0.82 0.84 0.86 0.83 0.82 0.74 0.71 0.76 0.83 1.00 1.10 1.11 1.11 1.11 1.09 1.05 1.08 1.01 0.93 0.91
0.58 0.45 0.42 0.38 0.33 0.33 0.29 0.24 0.21 0.21 0.19 0.19 0.18 0.19 0.20 0.21 0.23 0.27 0.28 0.29 0.30 0.32 0.34 0.38 0.43 0.45 0.53 0.68 0.80 0.96 1.07 1.04 1.06 1.00 0.89 0.91 1.05 1.18 1.32 1.32 1.39 1.45 1.32 1.25 1.18 1.19 1.13 1.02 1.01
0.39 0.31 0.28 0.27 0.23 0.21 0.19 0.18 0.18 0.16 0.15 0.15 0.14 0.15 0.16 0.15 0.15 0.16 0.20 0.22 0.23 0.22 0.25 0.31 0.35 0.42 0.51 0.58 0.73 0.95 1.22 1.33 1.43 1.39 1.21 1.16 1.28 1.52 1.72 1.68 1.72 1.74 1.60 1.53 1.59 1.76 1.70 1.41 1.17
0.37 0.33 0.26 0.26 0.16 0.13 0.12 0.12 0.12 0.13 0.14 0.14 0.13 0.12 0.12 0.12 0.10 0.09 0.10 0.13 0.15 0.16 0.17 0.22 0.31 0.40 0.48 0.57 0.75 0.91 1.06 1.07 1.24 1.40 1.38 1.30 1.29 1.43 1.57 1.82 1.91 1.82 1.81 1.92 1.95 2.23 2.35 1.92 1.51
0.33 0.29 0.28 0.28 0.17 0.11 0.10 0.11 0.09 0.11 0.13 0.13 0.14 0.12 0.12 0.11 0.09 0.08 0.07 0.08 0.10 0.11 0.12 0.16 0.23 0.33 0.45 0.61 0.85 1.07 1.26 1.34 1.41 1.34 1.43 1.44 1.37 1.41 1.51 1.66 1.81 1.82 1.87 1.94 2.05 2.36 2.78 2.51 2.01
0.25 0.18 0.15 0.18 0.23 0.21 0.19 0.22 0.14 0.15 0.19 0.20 0.20 0.17 0.15 0.14 0.10 0.08 0.07 0.08 0.08 0.09 0.09 0.12 0.21 0.36 0.57 0.78 1.04 1.30 1.50 1.54 1.43 1.48 1.51 1.39 1.33 1.30 1.37 1.51 1.64 1.75 1.77 1.89 1.98 2.08 2.52 2.81 2.49
0.18 0.12 0.08 0.11 0.15 0.13 0.11 0.18 0.16 0.22 0.30 0.32 0.30 0.26 0.20 0.17 0.14 0.13 0.11 0.13 0.14 0.14 0.16 0.24 0.44 0.68 0.93 1.14 1.41 1.70 1.70 1.59 1.50 1.50 1.47 1.42 1.43 1.40 1.39 1.53 1.59 1.60 1.65 1.75 2.08 2.32 2.56 2.73 2.64
0.13 0.09 0.08 0.10 0.13 0.09 0.06 0.14 0.24 0.29 0.33 0.37 0.36 0.30 0.23 0.19 0.22 0.27 0.31 0.37 0.42 0.44 0.58 0.79 1.06 1.25 1.33 1.46 1.61 1.73 1.71 1.72 1.67 1.49 1.39 1.39 1.43 1.49 1.53 1.59 1.59 1.55 1.58 1.68 1.90 2.17 2.37 2.66 2.81
0.07 0.08 0.14 0.16 0.17 0.14 0.12 0.27 0.38 0.34 0.29 0.29 0.30 0.25 0.20 0.24 0.34 0.45 0.61 0.74 0.84 0.96 1.08 1.22 1.42 1.56 1.51 1.48 1.52 1.56 1.57 1.57 1.56 1.50 1.40 1.35 1.36 1.37 1.41 1.52 1.64 1.71 1.73 1.84 2.00 2.14 2.05 2.26 2.63
0.04 0.09 0.24 0.31 0.26 0.25 0.28 0.47 0.52 0.42 0.31 0.23 0.17 0.16 0.24 0.38 0.52 0.63 0.72 0.83 1.00 1.14 1.19 1.19 1.30 1.41 1.36 1.33 1.31 1.28 1.34 1.37 1.34 1.26 1.25 1.28 1.35 1.33 1.27 1.32 1.43 1.57 1.72 1.77 1.82 1.83 1.80 1.92 2.15
0.05 0.07 0.15 0.28 0.24 0.24 0.36 0.62 0.58 0.37 0.31 0.25 0.22 0.25 0.39 0.58 0.79 0.94 1.04 1.17 1.21 1.25 1.30 1.22 1.21 1.26 1.26 1.18 1.09 1.09 1.15 1.20 1.23 1.18 1.19 1.17 1.17 1.09 1.02 1.02 1.06 1.14 1.22 1.29 1.45 1.54 1.65 1.69 1.80
0.09 0.16 0.25 0.43 0.48 0.47 0.55 0.66 0.59 0.47 0.43 0.45 0.52 0.61 0.67 0.78 1.03 1.33 1.57 1.75 1.57 1.30 1.19 1.14 1.07 1.07 1.15 1.11 1.04 1.01 1.10 1.11 1.10 1.13 1.10 1.10 1.09 1.01 0.94 0.90 0.86 0.82 0.80 0.84 1.02 1.21 1.33 1.44 1.58
0.15 0.26 0.34 0.46 0.56 0.71 0.89 0.99 0.84 0.86 0.88 0.95 1.06 1.10 1.10 1.21 1.19 1.34 1.54 1.71 1.61 1.30 1.06 1.06 1.07 1.02 1.00 0.99 1.01 1.00 0.99 0.90 0.89 0.94 0.95 0.94 0.95 0.99 0.97 0.88 0.82 0.89 0.89 0.85 0.90 0.95 1.01 1.09 1.23
0.28 0.38 0.52 0.69 0.64 0.70 0.90 1.07 0.95 0.94 0.96 1.05 1.23 1.30 1.29 1.20 1.10 1.09 1.14 1.20 1.22 1.07 0.88 0.85 0.97 1.02 0.95 0.92 0.95 0.94 0.85 0.81 0.78 0.76 0.73 0.66 0.64 0.67 0.76 0.84 0.79 0.77 0.80 0.81 0.87 0.89 0.93 0.95 1.03

GEFSSGP_prec_meanprecacc_126.txt.gz
Total_Precipitation_Accumulation
1.06 1.02 1.62 2.35 2.46 1.61 1.15 0.81 0.50 0.50 0.44 0.28 0.19 0.18 0.30 0.58 0.86 1.11 0.90 0.77 0.52 0.46 0.45 0.63 0.81 0.82 0.77 0.71 0.67 0.67 0.61 0.50 0.48 0.50 0.47 0.41 0.38 0.37 0.36 0.36 0.33 0.32 0.31 0.32 0.37 0.41 0.35 0.36 0.45
0.76 1.28 2.09 2.77 2.17 1.34 1.13 0.79 0.63 0.50 0.34 0.23 0.18 0.18 0.20 0.20 0.17 0.39 0.77 0.92 0.57 0.42 0.46 0.60 0.85 0.90 0.85 0.78 0.75 0.84 0.76 0.62 0.56 0.53 0.49 0.43 0.38 0.41 0.47 0.48 0.40 0.37 0.36 0.33 0.37 0.45 0.38 0.38 0.45
1.00 1.81 2.55 2.56 1.61 1.21 1.12 0.84 0.63 0.42 0.27 0.21 0.20 0.17 0.18 0.24 0.27 0.53 0.78 0.69 0.53 0.46 0.50 0.76 0.94 0.85 0.82 0.82 0.92 1.06 0.96 0.85 0.73 0.62 0.55 0.50 0.47 0.47 0.54 0.49 0.48 0.47 0.43 0.42 0.48 0.53 0.46 0.41 0.39
1.39 2.23 2.55 2.10 1.40 1.03 0.85 0.77 0.59 0.42 0.24 0.12 0.14 0.19 0.16 0.17 0.31 0.52 0.60 0.51 0.47 0.51 0.57 0.71 0.85 0.84 0.84 0.88 0.98 1.03 1.05 1.07 0.88 0.73 0.66 0.65 0.63 0.61 0.63 0.63 0.57 0.57 0.55 0.55 0.56 0.53 0.51 0.48 0.46
1.83 2.35 2.29 1.96 1.44 1.03 0.78 0.62 0.57 0.46 0.29 0.14 0.12 0.25 0.25 0.23 0.31 0.48 0.59 0.50 0.43 0.46 0.51 0.56 0.72 0.72 0.76 0.86 0.96 0.96 1.03 1.11 0.97 0.75 0.75 0.78 0.71 0.71 0.73 0.76 0.65 0.63 0.60 0.60 0.62 0.57 0.54 0.53 0.52
2.14 2.19 2.09 1.93 1.58 1.15 0.92 0.58 0.46 0.40 0.27 0.21 0.19 0.29 0.35 0.34 0.43 0.59 0.65 0.73 0.65 0.57 0.51 0.54 0.66 0.70 0.74 0.84 0.96 0.89 0.93 1.04 0.98 0.88 0.83 0.77 0.77 0.80 0.82 0.78 0.73 0.67 0.66 0.65 0.67 0.66 0.60 0.57 0.56
2.01 1.91 1.79 1.39 1.35 1.41 1.01 0.53 0.46 0.43 0.38 0.34 0.22 0.33 0.39 0.38 0.41 0.54 0.62 0.74 0.89 0.93 0.81 0.65 0.58 0.61 0.68 0.82 0.94 0.95 0.95 0.98 0.94 1.00 0.94 0.92 0.89 0.83 0.78 0.76 0.75 0.74 0.73 0.72 0.70 0.65 0.62 0.60 0.59
1.65 1.52 1.35 1.26 1.32 1.35 0.81 0.42 0.30 0.31 0.30 0.25 0.26 0.37 0.40 0.35 0.35 0.45 0.65 0.87 0.94 0.99 0.94 0.81 0.72 0.71 0.73 0.71 0.87 1.07 1.13 1.09 0.99 0.98 0.97 0.97 0.91 0.82 0.76 0.70 0.71 0.76 0.77 0.81 0.81 0.73 0.71 0.67 0.62
1.41 1.45 1.47 1.54 1.45 1.14 0.59 0.40 0.29 0.22 0.20 0.20 0.21 0.24 0.24 0.26 0.35 0.48 0.60 0.70 0.81 0.82 0.82 0.83 0.86 0.89 0.95 0.95 0.93 1.15 1.23 1.16 0.97 0.87 0.90 0.92 0.78 0.80 0.82 0.70 0.82 0.82 0.87 0.91 0.90 0.85 0.82 0.73 0.63
1.40 1.42 1.37 1.09 0.86 0.69 0.51 0.40 0.34 0.36 0.37 0.28 0.26 0.23 0.21 0.25 0.36 0.45 0.52 0.57 0.62 0.67 0.66 0.66 0.69 0.77 0.89 0.97 1.30 1.51 1.30 1.19 0.92 0.91 0.81 0.87 0.94 1.02 0.85 0.79 0.95 0.97 1.01 0.98 0.97 0.99 0.92 0.75 0.56
1.14 1.23 0.92 0.73 0.62 0.42 0.41 0.41 0.34 0.38 0.40 0.27 0.25 0.25 0.25 0.30 0.37 0.43 0.45 0.45 0.49 0.51 0.48 0.48 0.47 0.49 0.58 0.78 1.12 1.41 1.52 1.48 1.40 1.16 0.93 0.94 0.82 0.72 0.67 0.69 0.80 0.87 0.95 0.90 0.93 0.93 0.78 0.69 0.63
1.07 0.88 0.64 0.60 0.44 0.37 0.37 0.34 0.33 0.30 0.27 0.19 0.22 0.23 0.26 0.29 0.32 0.35 0.42 0.43 0.47 0.49 0.48 0.45 0.44 0.41 0.43 0.52 0.69 0.89 1.03 1.12 1.14 0.99 0.88 0.95 0.84 0.74 0.75 0.75 0.75 0.75 0.83 0.92 0.95 0.90 0.76 0.64 0.57
1.00 0.86 0.57 0.45 0.41 0.34 0.29 0.28 0.28 0.28 0.24 0.19 0.23 0.31 0.36 0.38 0.36 0.37 0.41 0.44 0.47 0.53 0.60 0.56 0.47 0.44 0.43 0.47 0.54 0.62 0.77 0.86 0.89 0.91 0.86 0.90 0.90 0.87 0.84 0.77 0.77 0.71 0.77 0.87 0.94 0.89 0.80 0.73 0.66
0.76 0.77 0.74 0.61 0.47 0.36 0.32 0.28 0.26 0.26 0.25 0.25 0.31 0.37 0.42 0.49 0.48 0.48 0.49 0.50 0.50 0.54 0.60 0.65 0.57 0.53 0.49 0.46 0.49 0.54 0.64 0.72 0.76 0.75 0.75 0.85 0.94 0.93 0.90 0.85 0.86 0.83 0.84 0.96 0.94 0.85 0.88 0.85 0.74
0.66 0.76 0.71 0.61 0.53 0.46 0.41 0.40 0.27 0.26 0.28 0.32 0.40 0.38 0.41 0.48 0.52 0.54 0.54 0.52 0.52 0.54 0.57 0.60 0.61 0.61 0.59 0.57 0.56 0.56 0.63 0.73 0.75 0.72 0.67 0.69 0.78 0.83 0.86 0.87 0.87 0.91 0.99 1.04 1.06 0.89 0.89 0.83 0.73
0.74 0.90 0.95 0.63 0.60 0.57 0.58 0.55 0.30 0.27 0.29 0.30 0.34 0.34 0.37 0.40 0.44 0.48 0.50 0.47 0.47 0.47 0.48 0.52 0.54 0.59 0.66 0.68 0.69 0.71 0.71 0.78 0.75 0.74 0.68 0.63 0.68 0.77 0.90 0.90 0.88 0.91 1.03 1.10 1.14 1.04 0.96 0.88 0.83
0.73 0.76 0.74 0.60 0.51 0.51 0.46 0.41 0.29 0.29 0.27 0.26 0.27 0.26 0.26 0.29 0.32 0.36 0.39 0.41 0.43 0.42 0.42 0.44 0.49 0.51 0.63 0.71 0.73 0.82 0.84 0.86 0.83 0.82 0.74 0.71 0.76 0.83 1.00 1.10 1.11 1.11 1.12 1.10 1.05 1.09 1.04 0.98 0.96
0.60 0.48 0.45 0.41 0.35 0.34 0.33 0.29 0.23 0.22 0.21 0.20 0.19 0.20 0.21 0.23 0.24 0.28 0.29 0.29 0.31 0.32 0.35 0.39 0.44 0.46 0.53 0.68 0.80 0.96 1.07 1.04 1.06 1.00 0.89 0.91 1.05 1.18 1.32 1.32 1.39 1.46 1.32 1.26 1.19 1.20 1.15 1.06 1.06
0.40 0.34 0.32 0.30 0.24 0.23 0.23 0.21 0.20 0.18 0.17 0.16 0.14 0.15 0.17 0.18 0.16 0.17 0.20 0.22 0.23 0.22 0.26 0.31 0.36 0.43 0.51 0.59 0.73 0.95 1.23 1.33 1.43 1.39 1.21 1.16 1.28 1.52 1.72 1.69 1.73 1.75 1.61 1.55 1.60 1.79 1.73 1.46 1.23
0.39 0.36 0.31 0.29 0.18 0.15 0.17 0.15 0.14 0.14 0.15 0.15 0.13 0.13 0.13 0.12 0.11 0.09 0.11 0.13 0.15 0.16 0.17 0.23 0.31 0.41 0.50 0.58 0.76 0.91 1.06 1.07 1.24 1.40 1.38 1.30 1.29 1.44 1.57 1.82 1.91 1.83 1.83 1.93 1.97 2.27 2.39 1.97 1.56
0.36 0.32 0.33 0.31 0.19 0.12 0.13 0.15 0.11 0.11 0.13 0.14 0.14 0.13 0.12 0.12 0.10 0.08 0.08 0.09 0.10 0.11 0.12 0.16 0.24 0.35 0.47 0.62 0.86 1.07 1.26 1.35 1.41 1.34 1.43 1.44 1.37 1.41 1.51 1.66 1.82 1.82 1.88 1.95 2.06 2.38 2.82 2.57 2.07
0.29 0.19 0.17 0.20 0.25 0.23 0.22 0.25 0.15 0.16 0.20 0.20 0.20 0.17 0.15 0.14 0.11 0.09 0.07 0.08 0.08 0.09 0.09 0.13 0.22 0.37 0.58 0.79 1.04 1.30 1.50 1.54 1.43 1.48 1.51 1.39 1.33 1.30 1.37 1.51 1.64 1.76 1.78 1.90 1.99 2.10 2.56 2.86 2.55
0.19 0.13 0.09 0.11 0.17 0.15 0.14 0.20 0.17 0.22 0.31 0.32 0.30 0.26 0.20 0.17 0.14 0.13 0.12 0.14 0.15 0.15 0.17 0.24 0.45 0.70 0.95 1.16 1.42 1.71 1.70 1.59 1.50 1.50 1.47 1.42 1.43 1.40 1.39 1.53 1.60 1.61 1.66 1.76 2.08 2.34 2.58 2.76 2.69
0.14 0.10 0.09 0.10 0.14 0.11 0.08 0.16 0.25 0.29 0.33 0.37 0.36 0.30 0.23 0.19 0.22 0.27 0.31 0.38 0.43 0.46 0.60 0.80 1.07 1.26 1.34 1.47 1.62 1.74 1.71 1.72 1.67 1.49 1.39 1.39 1.43 1.49 1.53 1.59 1.59 1.56 1.59 1.69 1.91 2.18 2.39 2.70 2.86
0.08 0.10 0.18 0.20 0.21 0.15 0.13 0.28 0.39 0.34 0.29 0.29 0.30 0.25 0.20 0.24 0.34 0.45 0.61 0.74 0.85 0.97 1.10 1.23 1.42 1.58 1.52 1.49 1.54 1.57 1.58 1.57 1.56 1.50 1.40 1.35 1.36 1.37 1.41 1.52 1.64 1.72 1.74 1.85 2.02 2.16 2.07 2.29 2.66
0.07 0.14 0.29 0.35 0.29 0.25 0.28 0.48 0.52 0.42 0.31 0.23 0.17 0.17 0.24 0.38 0.52 0.63 0.72 0.83 1.00 1.14 1.19 1.20 1.31 1.42 1.39 1.36 1.32 1.29 1.35 1.37 1.34 1.26 1.25 1.28 1.35 1.33 1.27 1.32 1.43 1.57 1.73 1.78 1.83 1.84 1.81 1.94 2.18
0.07 0.09 0.16 0.29 0.25 0.24 0.37 0.62 0.58 0.37 0.31 0.25 0.22 0.25 0.39 0.58 0.80 0.94 1.05 1.17 1.21 1.25 1.30 1.22 1.22 1.27 1.28 1.20 1.11 1.10 1.16 1.20 1.23 1.18 1.19 1.17 1.17 1.09 1.02 1.02 1.07 1.15 1.23 1.31 1.46 1.55 1.66 1.71 1.83
0.10 0.17 0.25 0.43 0.48 0.47 0.55 0.66 0.59 0.47 0.43 0.45 0.52 0.62 0.67 0.78 1.04 1.33 1.58 1.75 1.57 1.30 1.19 1.15 1.07 1.08 1.16 1.13 1.05 1.01 1.10 1.11 1.10 1.13 1.10 1.10 1.10 1.01 0.94 0.90 0.86 0.83 0.81 0.85 1.03 1.22 1.34 1.45 1.61
0.16 0.26 0.35 0.46 0.57 0.72 0.90 1.00 0.84 0.86 0.88 0.96 1.06 1.10 1.10 1.21 1.19 1.35 1.54 1.71 1.61 1.30 1.06 1.07 1.08 1.03 1.01 1.01 1.02 1.01 0.99 0.90 0.89 0.94 0.95 0.94 0.95 0.99 0.98 0.89 0.82 0.89 0.89 0.85 0.91 0.96 1.02 1.10 1.25
0.28 0.38 0.52 0.70 0.64 0.70 0.90 1.08 0.95 0.94 0.96 1.05 1.23 1.30 1.29 1.20 1.10 1.09 1.14 1.21 1.22 1.07 0.89 0.85 0.98 1.02 0.96 0.93 0.96 0.95 0.85 0.81 0.78 0.76 0.73 0.66 0.64 0.67 0.76 0.84 0.79 0.78 0.80 0.82 0.88 0.90 0.94 0.96 1.05